<?xml version="1.0" encoding="UTF-8" standalone="no" ?>
<gpx xmlns="http://www.topografix.com/GPX/1/1" xmlns:xsi="http://www.w3.org/2001/XMLSchema-instance" xsi:schemaLocation="http://www.topografix.com/GPX/1/1 http://www.topografix.com/GPX/1/1/gpx.xsd" version="1.1" creator="VisuGPX - https://www.visugpx.com">
  <metadata>
    <name>VTT (  noix) du mercredi 17 septembre 2014</name>
    <desc><![CDATA[Très beau temps et température élevée dès le départ. Le parcours est très bien, on est souvent dans les bois. A km 13 je quitte le groupe et Christian est obligé de venir me chercher pour aller à Pontcey ramasser des noix sous le regard courroucé d\'une femme se disant propriétaire du terrain. Au km 21, nouveau ramassage de noix au pont après l\'écluse. Retour classique par les bords de Saône suivi d\'un apéro consistant à la bière belge.]]></desc>
  </metadata>
  <trk>
    <name><![CDATA[Port84]]></name>
    <trkseg>
      <trkpt lat="47.68625" lon="6.04541">
        <ele>225</ele>
        <time>2014-09-17T07:33:20.000Z</time>
      </trkpt>
      <trkpt lat="47.68625" lon="6.04541">
        <ele>225</ele>
        <time>2014-09-17T07:33:21.000Z</time>
      </trkpt>
      <trkpt lat="47.68625" lon="6.0454">
        <ele>225</ele>
        <time>2014-09-17T07:33:23.000Z</time>
      </trkpt>
      <trkpt lat="47.68626" lon="6.04538">
        <ele>225</ele>
        <time>2014-09-17T07:33:24.000Z</time>
      </trkpt>
      <trkpt lat="47.68627" lon="6.04536">
        <ele>224.80000305176</ele>
        <time>2014-09-17T07:33:25.000Z</time>
      </trkpt>
      <trkpt lat="47.68635" lon="6.04535">
        <ele>224.80000305176</ele>
        <time>2014-09-17T07:33:29.000Z</time>
      </trkpt>
      <trkpt lat="47.68644" lon="6.04541">
        <ele>224.80000305176</ele>
        <time>2014-09-17T07:33:34.000Z</time>
      </trkpt>
      <trkpt lat="47.68656" lon="6.04555">
        <ele>224.80000305176</ele>
        <time>2014-09-17T07:33:41.000Z</time>
      </trkpt>
      <trkpt lat="47.68668" lon="6.0457">
        <ele>225.19999694824</ele>
        <time>2014-09-17T07:33:48.000Z</time>
      </trkpt>
      <trkpt lat="47.6867" lon="6.04572">
        <ele>225.60000610352</ele>
        <time>2014-09-17T07:33:49.000Z</time>
      </trkpt>
      <trkpt lat="47.68671" lon="6.04574">
        <ele>226</ele>
        <time>2014-09-17T07:33:50.000Z</time>
      </trkpt>
      <trkpt lat="47.68672" lon="6.04577">
        <ele>226.80000305176</ele>
        <time>2014-09-17T07:33:51.000Z</time>
      </trkpt>
      <trkpt lat="47.68675" lon="6.04585">
        <ele>226.80000305176</ele>
        <time>2014-09-17T07:33:54.000Z</time>
      </trkpt>
      <trkpt lat="47.68683" lon="6.04605">
        <ele>226.80000305176</ele>
        <time>2014-09-17T07:34:01.000Z</time>
      </trkpt>
      <trkpt lat="47.6869" lon="6.04625">
        <ele>226.80000305176</ele>
        <time>2014-09-17T07:34:08.000Z</time>
      </trkpt>
      <trkpt lat="47.68691" lon="6.04628">
        <ele>227.19999694824</ele>
        <time>2014-09-17T07:34:09.000Z</time>
      </trkpt>
      <trkpt lat="47.68693" lon="6.0463">
        <ele>227.80000305176</ele>
        <time>2014-09-17T07:34:10.000Z</time>
      </trkpt>
      <trkpt lat="47.68694" lon="6.04632">
        <ele>228.19999694824</ele>
        <time>2014-09-17T07:34:11.000Z</time>
      </trkpt>
      <trkpt lat="47.68695" lon="6.04635">
        <ele>228.60000610352</ele>
        <time>2014-09-17T07:34:12.000Z</time>
      </trkpt>
      <trkpt lat="47.68696" lon="6.04637">
        <ele>229</ele>
        <time>2014-09-17T07:34:13.000Z</time>
      </trkpt>
      <trkpt lat="47.687" lon="6.04646">
        <ele>229</ele>
        <time>2014-09-17T07:34:16.000Z</time>
      </trkpt>
      <trkpt lat="47.68711" lon="6.0467">
        <ele>229</ele>
        <time>2014-09-17T07:34:23.000Z</time>
      </trkpt>
      <trkpt lat="47.68724" lon="6.047">
        <ele>229</ele>
        <time>2014-09-17T07:34:31.000Z</time>
      </trkpt>
      <trkpt lat="47.68731" lon="6.04718">
        <ele>240</ele>
        <time>2014-09-17T07:34:36.000Z</time>
      </trkpt>
      <trkpt lat="47.68739" lon="6.04739">
        <ele>239.19999694824</ele>
        <time>2014-09-17T07:34:41.000Z</time>
      </trkpt>
      <trkpt lat="47.68741" lon="6.04748">
        <ele>239.19999694824</ele>
        <time>2014-09-17T07:34:43.000Z</time>
      </trkpt>
      <trkpt lat="47.6875" lon="6.04784">
        <ele>239.19999694824</ele>
        <time>2014-09-17T07:34:50.000Z</time>
      </trkpt>
      <trkpt lat="47.68767" lon="6.04845">
        <ele>239.19999694824</ele>
        <time>2014-09-17T07:35:00.000Z</time>
      </trkpt>
      <trkpt lat="47.68773" lon="6.04869">
        <ele>239.19999694824</ele>
        <time>2014-09-17T07:35:05.000Z</time>
      </trkpt>
      <trkpt lat="47.68773" lon="6.0487">
        <ele>239.19999694824</ele>
        <time>2014-09-17T07:35:06.000Z</time>
      </trkpt>
      <trkpt lat="47.68774" lon="6.04872">
        <ele>239.39999389648</ele>
        <time>2014-09-17T07:35:29.000Z</time>
      </trkpt>
      <trkpt lat="47.68775" lon="6.04874">
        <ele>239.39999389648</ele>
        <time>2014-09-17T07:35:30.000Z</time>
      </trkpt>
      <trkpt lat="47.6878" lon="6.04893">
        <ele>239.39999389648</ele>
        <time>2014-09-17T07:35:35.000Z</time>
      </trkpt>
      <trkpt lat="47.68788" lon="6.04923">
        <ele>239.39999389648</ele>
        <time>2014-09-17T07:35:42.000Z</time>
      </trkpt>
      <trkpt lat="47.68793" lon="6.04939">
        <ele>239.39999389648</ele>
        <time>2014-09-17T07:35:48.000Z</time>
      </trkpt>
      <trkpt lat="47.68794" lon="6.04939">
        <ele>239.39999389648</ele>
        <time>2014-09-17T07:35:49.000Z</time>
      </trkpt>
      <trkpt lat="47.68794" lon="6.04942">
        <ele>239.39999389648</ele>
        <time>2014-09-17T07:35:55.000Z</time>
      </trkpt>
      <trkpt lat="47.68793" lon="6.04946">
        <ele>239.39999389648</ele>
        <time>2014-09-17T07:35:57.000Z</time>
      </trkpt>
      <trkpt lat="47.68785" lon="6.04958">
        <ele>239.39999389648</ele>
        <time>2014-09-17T07:36:02.000Z</time>
      </trkpt>
      <trkpt lat="47.68783" lon="6.04961">
        <ele>239.39999389648</ele>
        <time>2014-09-17T07:36:03.000Z</time>
      </trkpt>
      <trkpt lat="47.68768" lon="6.04981">
        <ele>239.39999389648</ele>
        <time>2014-09-17T07:36:11.000Z</time>
      </trkpt>
      <trkpt lat="47.68757" lon="6.04995">
        <ele>239.80000305176</ele>
        <time>2014-09-17T07:36:17.000Z</time>
      </trkpt>
      <trkpt lat="47.68755" lon="6.04998">
        <ele>240.19999694824</ele>
        <time>2014-09-17T07:36:18.000Z</time>
      </trkpt>
      <trkpt lat="47.68754" lon="6.05">
        <ele>241</ele>
        <time>2014-09-17T07:36:19.000Z</time>
      </trkpt>
      <trkpt lat="47.68751" lon="6.05003">
        <ele>241.39999389648</ele>
        <time>2014-09-17T07:36:20.000Z</time>
      </trkpt>
      <trkpt lat="47.68742" lon="6.05016">
        <ele>241.39999389648</ele>
        <time>2014-09-17T07:36:25.000Z</time>
      </trkpt>
      <trkpt lat="47.68729" lon="6.05033">
        <ele>241.39999389648</ele>
        <time>2014-09-17T07:36:32.000Z</time>
      </trkpt>
      <trkpt lat="47.68715" lon="6.05052">
        <ele>241.39999389648</ele>
        <time>2014-09-17T07:36:40.000Z</time>
      </trkpt>
      <trkpt lat="47.68702" lon="6.05072">
        <ele>241.39999389648</ele>
        <time>2014-09-17T07:36:48.000Z</time>
      </trkpt>
      <trkpt lat="47.68693" lon="6.05084">
        <ele>241.39999389648</ele>
        <time>2014-09-17T07:36:53.000Z</time>
      </trkpt>
      <trkpt lat="47.68687" lon="6.05091">
        <ele>241.80000305176</ele>
        <time>2014-09-17T07:36:56.000Z</time>
      </trkpt>
      <trkpt lat="47.68685" lon="6.05094">
        <ele>242.19999694824</ele>
        <time>2014-09-17T07:36:57.000Z</time>
      </trkpt>
      <trkpt lat="47.68682" lon="6.05096">
        <ele>242.60000610352</ele>
        <time>2014-09-17T07:36:58.000Z</time>
      </trkpt>
      <trkpt lat="47.68679" lon="6.05099">
        <ele>243</ele>
        <time>2014-09-17T07:36:59.000Z</time>
      </trkpt>
      <trkpt lat="47.68677" lon="6.05101">
        <ele>243.39999389648</ele>
        <time>2014-09-17T07:37:00.000Z</time>
      </trkpt>
      <trkpt lat="47.68666" lon="6.05112">
        <ele>243.39999389648</ele>
        <time>2014-09-17T07:37:05.000Z</time>
      </trkpt>
      <trkpt lat="47.68649" lon="6.05126">
        <ele>243.39999389648</ele>
        <time>2014-09-17T07:37:12.000Z</time>
      </trkpt>
      <trkpt lat="47.68627" lon="6.05144">
        <ele>243.39999389648</ele>
        <time>2014-09-17T07:37:22.000Z</time>
      </trkpt>
      <trkpt lat="47.68608" lon="6.05159">
        <ele>243.39999389648</ele>
        <time>2014-09-17T07:37:30.000Z</time>
      </trkpt>
      <trkpt lat="47.68598" lon="6.05169">
        <ele>243.80000305176</ele>
        <time>2014-09-17T07:37:35.000Z</time>
      </trkpt>
      <trkpt lat="47.68595" lon="6.05171">
        <ele>244.19999694824</ele>
        <time>2014-09-17T07:37:36.000Z</time>
      </trkpt>
      <trkpt lat="47.68594" lon="6.05173">
        <ele>244.80000305176</ele>
        <time>2014-09-17T07:37:37.000Z</time>
      </trkpt>
      <trkpt lat="47.68592" lon="6.05175">
        <ele>245.19999694824</ele>
        <time>2014-09-17T07:37:38.000Z</time>
      </trkpt>
      <trkpt lat="47.6859" lon="6.05177">
        <ele>245.60000610352</ele>
        <time>2014-09-17T07:37:39.000Z</time>
      </trkpt>
      <trkpt lat="47.68577" lon="6.05186">
        <ele>245.60000610352</ele>
        <time>2014-09-17T07:37:45.000Z</time>
      </trkpt>
      <trkpt lat="47.68564" lon="6.05197">
        <ele>245.60000610352</ele>
        <time>2014-09-17T07:37:52.000Z</time>
      </trkpt>
      <trkpt lat="47.6855" lon="6.05209">
        <ele>245.60000610352</ele>
        <time>2014-09-17T07:37:59.000Z</time>
      </trkpt>
      <trkpt lat="47.68539" lon="6.0522">
        <ele>246</ele>
        <time>2014-09-17T07:38:05.000Z</time>
      </trkpt>
      <trkpt lat="47.68536" lon="6.05222">
        <ele>246.39999389648</ele>
        <time>2014-09-17T07:38:06.000Z</time>
      </trkpt>
      <trkpt lat="47.68534" lon="6.05224">
        <ele>246.80000305176</ele>
        <time>2014-09-17T07:38:07.000Z</time>
      </trkpt>
      <trkpt lat="47.68532" lon="6.05226">
        <ele>247.19999694824</ele>
        <time>2014-09-17T07:38:08.000Z</time>
      </trkpt>
      <trkpt lat="47.68529" lon="6.05227">
        <ele>247.60000610352</ele>
        <time>2014-09-17T07:38:09.000Z</time>
      </trkpt>
      <trkpt lat="47.68519" lon="6.05234">
        <ele>247.60000610352</ele>
        <time>2014-09-17T07:38:14.000Z</time>
      </trkpt>
      <trkpt lat="47.68505" lon="6.05247">
        <ele>247.60000610352</ele>
        <time>2014-09-17T07:38:20.000Z</time>
      </trkpt>
      <trkpt lat="47.68488" lon="6.05259">
        <ele>247.60000610352</ele>
        <time>2014-09-17T07:38:28.000Z</time>
      </trkpt>
      <trkpt lat="47.68481" lon="6.05264">
        <ele>248</ele>
        <time>2014-09-17T07:38:31.000Z</time>
      </trkpt>
      <trkpt lat="47.68479" lon="6.05266">
        <ele>248.39999389648</ele>
        <time>2014-09-17T07:38:32.000Z</time>
      </trkpt>
      <trkpt lat="47.68477" lon="6.05267">
        <ele>248.80000305176</ele>
        <time>2014-09-17T07:38:33.000Z</time>
      </trkpt>
      <trkpt lat="47.68475" lon="6.05268">
        <ele>249.19999694824</ele>
        <time>2014-09-17T07:38:34.000Z</time>
      </trkpt>
      <trkpt lat="47.68473" lon="6.0527">
        <ele>249.60000610352</ele>
        <time>2014-09-17T07:38:35.000Z</time>
      </trkpt>
      <trkpt lat="47.68456" lon="6.05282">
        <ele>249.60000610352</ele>
        <time>2014-09-17T07:38:42.000Z</time>
      </trkpt>
      <trkpt lat="47.68438" lon="6.05292">
        <ele>249.60000610352</ele>
        <time>2014-09-17T07:38:49.000Z</time>
      </trkpt>
      <trkpt lat="47.68418" lon="6.05303">
        <ele>249.60000610352</ele>
        <time>2014-09-17T07:38:56.000Z</time>
      </trkpt>
      <trkpt lat="47.68416" lon="6.05304">
        <ele>250</ele>
        <time>2014-09-17T07:38:57.000Z</time>
      </trkpt>
      <trkpt lat="47.68414" lon="6.05305">
        <ele>250.39999389648</ele>
        <time>2014-09-17T07:38:58.000Z</time>
      </trkpt>
      <trkpt lat="47.68411" lon="6.05306">
        <ele>250.80000305176</ele>
        <time>2014-09-17T07:38:59.000Z</time>
      </trkpt>
      <trkpt lat="47.68409" lon="6.05308">
        <ele>251.19999694824</ele>
        <time>2014-09-17T07:39:00.000Z</time>
      </trkpt>
      <trkpt lat="47.68407" lon="6.05309">
        <ele>251.60000610352</ele>
        <time>2014-09-17T07:39:01.000Z</time>
      </trkpt>
      <trkpt lat="47.68398" lon="6.05313">
        <ele>251.60000610352</ele>
        <time>2014-09-17T07:39:05.000Z</time>
      </trkpt>
      <trkpt lat="47.68386" lon="6.05318">
        <ele>251.60000610352</ele>
        <time>2014-09-17T07:39:11.000Z</time>
      </trkpt>
      <trkpt lat="47.68384" lon="6.05319">
        <ele>252</ele>
        <time>2014-09-17T07:39:12.000Z</time>
      </trkpt>
      <trkpt lat="47.68382" lon="6.05319">
        <ele>252.39999389648</ele>
        <time>2014-09-17T07:39:13.000Z</time>
      </trkpt>
      <trkpt lat="47.68379" lon="6.0532">
        <ele>252.80000305176</ele>
        <time>2014-09-17T07:39:14.000Z</time>
      </trkpt>
      <trkpt lat="47.68377" lon="6.05321">
        <ele>253.39999389648</ele>
        <time>2014-09-17T07:39:15.000Z</time>
      </trkpt>
      <trkpt lat="47.68374" lon="6.05323">
        <ele>253.80000305176</ele>
        <time>2014-09-17T07:39:16.000Z</time>
      </trkpt>
      <trkpt lat="47.68372" lon="6.05324">
        <ele>253.80000305176</ele>
        <time>2014-09-17T07:39:17.000Z</time>
      </trkpt>
      <trkpt lat="47.68358" lon="6.05328">
        <ele>254.19999694824</ele>
        <time>2014-09-17T07:39:24.000Z</time>
      </trkpt>
      <trkpt lat="47.68356" lon="6.05328">
        <ele>254.60000610352</ele>
        <time>2014-09-17T07:39:25.000Z</time>
      </trkpt>
      <trkpt lat="47.68355" lon="6.05329">
        <ele>255</ele>
        <time>2014-09-17T07:39:26.000Z</time>
      </trkpt>
      <trkpt lat="47.68353" lon="6.0533">
        <ele>255.39999389648</ele>
        <time>2014-09-17T07:39:27.000Z</time>
      </trkpt>
      <trkpt lat="47.68351" lon="6.0533">
        <ele>255.80000305176</ele>
        <time>2014-09-17T07:39:28.000Z</time>
      </trkpt>
      <trkpt lat="47.68344" lon="6.05333">
        <ele>255.80000305176</ele>
        <time>2014-09-17T07:39:32.000Z</time>
      </trkpt>
      <trkpt lat="47.68331" lon="6.05335">
        <ele>255.80000305176</ele>
        <time>2014-09-17T07:39:39.000Z</time>
      </trkpt>
      <trkpt lat="47.68329" lon="6.05336">
        <ele>256.39999389648</ele>
        <time>2014-09-17T07:39:40.000Z</time>
      </trkpt>
      <trkpt lat="47.68328" lon="6.05336">
        <ele>256.79998779297</ele>
        <time>2014-09-17T07:39:41.000Z</time>
      </trkpt>
      <trkpt lat="47.68326" lon="6.05336">
        <ele>257.20001220703</ele>
        <time>2014-09-17T07:39:42.000Z</time>
      </trkpt>
      <trkpt lat="47.68325" lon="6.05336">
        <ele>257.60000610352</ele>
        <time>2014-09-17T07:39:43.000Z</time>
      </trkpt>
      <trkpt lat="47.68323" lon="6.05336">
        <ele>258</ele>
        <time>2014-09-17T07:39:44.000Z</time>
      </trkpt>
      <trkpt lat="47.6832" lon="6.05336">
        <ele>258</ele>
        <time>2014-09-17T07:39:46.000Z</time>
      </trkpt>
      <trkpt lat="47.6831" lon="6.05337">
        <ele>258</ele>
        <time>2014-09-17T07:39:52.000Z</time>
      </trkpt>
      <trkpt lat="47.68305" lon="6.05336">
        <ele>258</ele>
        <time>2014-09-17T07:39:56.000Z</time>
      </trkpt>
      <trkpt lat="47.68302" lon="6.05335">
        <ele>258</ele>
        <time>2014-09-17T07:39:58.000Z</time>
      </trkpt>
      <trkpt lat="47.68291" lon="6.05337">
        <ele>258</ele>
        <time>2014-09-17T07:40:04.000Z</time>
      </trkpt>
      <trkpt lat="47.68277" lon="6.0535">
        <ele>258</ele>
        <time>2014-09-17T07:40:09.000Z</time>
      </trkpt>
      <trkpt lat="47.68255" lon="6.05379">
        <ele>258</ele>
        <time>2014-09-17T07:40:16.000Z</time>
      </trkpt>
      <trkpt lat="47.68244" lon="6.05397">
        <ele>257.60000610352</ele>
        <time>2014-09-17T07:40:20.000Z</time>
      </trkpt>
      <trkpt lat="47.68242" lon="6.05401">
        <ele>257</ele>
        <time>2014-09-17T07:40:21.000Z</time>
      </trkpt>
      <trkpt lat="47.6824" lon="6.05405">
        <ele>256.60000610352</ele>
        <time>2014-09-17T07:40:22.000Z</time>
      </trkpt>
      <trkpt lat="47.68237" lon="6.05408">
        <ele>256.20001220703</ele>
        <time>2014-09-17T07:40:23.000Z</time>
      </trkpt>
      <trkpt lat="47.68234" lon="6.05411">
        <ele>255.80000305176</ele>
        <time>2014-09-17T07:40:24.000Z</time>
      </trkpt>
      <trkpt lat="47.68228" lon="6.05416">
        <ele>255.39999389648</ele>
        <time>2014-09-17T07:40:26.000Z</time>
      </trkpt>
      <trkpt lat="47.68225" lon="6.05418">
        <ele>254.80000305176</ele>
        <time>2014-09-17T07:40:27.000Z</time>
      </trkpt>
      <trkpt lat="47.68223" lon="6.0542">
        <ele>254.39999389648</ele>
        <time>2014-09-17T07:40:28.000Z</time>
      </trkpt>
      <trkpt lat="47.6822" lon="6.05421">
        <ele>254</ele>
        <time>2014-09-17T07:40:29.000Z</time>
      </trkpt>
      <trkpt lat="47.68217" lon="6.05422">
        <ele>253.60000610352</ele>
        <time>2014-09-17T07:40:30.000Z</time>
      </trkpt>
      <trkpt lat="47.68212" lon="6.05423">
        <ele>253.60000610352</ele>
        <time>2014-09-17T07:40:32.000Z</time>
      </trkpt>
      <trkpt lat="47.68209" lon="6.05423">
        <ele>253.19999694824</ele>
        <time>2014-09-17T07:40:33.000Z</time>
      </trkpt>
      <trkpt lat="47.68206" lon="6.05422">
        <ele>252.80000305176</ele>
        <time>2014-09-17T07:40:34.000Z</time>
      </trkpt>
      <trkpt lat="47.68202" lon="6.05421">
        <ele>252.19999694824</ele>
        <time>2014-09-17T07:40:35.000Z</time>
      </trkpt>
      <trkpt lat="47.682" lon="6.0542">
        <ele>251.80000305176</ele>
        <time>2014-09-17T07:40:36.000Z</time>
      </trkpt>
      <trkpt lat="47.68196" lon="6.05418">
        <ele>251.39999389648</ele>
        <time>2014-09-17T07:40:37.000Z</time>
      </trkpt>
      <trkpt lat="47.68192" lon="6.05415">
        <ele>251</ele>
        <time>2014-09-17T07:40:39.000Z</time>
      </trkpt>
      <trkpt lat="47.6819" lon="6.05414">
        <ele>250.60000610352</ele>
        <time>2014-09-17T07:40:40.000Z</time>
      </trkpt>
      <trkpt lat="47.68188" lon="6.05412">
        <ele>250.19999694824</ele>
        <time>2014-09-17T07:40:41.000Z</time>
      </trkpt>
      <trkpt lat="47.68186" lon="6.05411">
        <ele>249.60000610352</ele>
        <time>2014-09-17T07:40:42.000Z</time>
      </trkpt>
      <trkpt lat="47.68182" lon="6.05412">
        <ele>249.19999694824</ele>
        <time>2014-09-17T07:40:43.000Z</time>
      </trkpt>
      <trkpt lat="47.68179" lon="6.05412">
        <ele>249.19999694824</ele>
        <time>2014-09-17T07:40:44.000Z</time>
      </trkpt>
      <trkpt lat="47.68172" lon="6.05415">
        <ele>248.80000305176</ele>
        <time>2014-09-17T07:40:46.000Z</time>
      </trkpt>
      <trkpt lat="47.68169" lon="6.05419">
        <ele>248.39999389648</ele>
        <time>2014-09-17T07:40:47.000Z</time>
      </trkpt>
      <trkpt lat="47.68166" lon="6.05423">
        <ele>248</ele>
        <time>2014-09-17T07:40:48.000Z</time>
      </trkpt>
      <trkpt lat="47.68164" lon="6.05429">
        <ele>247.60000610352</ele>
        <time>2014-09-17T07:40:49.000Z</time>
      </trkpt>
      <trkpt lat="47.68162" lon="6.05434">
        <ele>246.60000610352</ele>
        <time>2014-09-17T07:40:50.000Z</time>
      </trkpt>
      <trkpt lat="47.68161" lon="6.05439">
        <ele>246.19999694824</ele>
        <time>2014-09-17T07:40:51.000Z</time>
      </trkpt>
      <trkpt lat="47.6816" lon="6.05445">
        <ele>245.60000610352</ele>
        <time>2014-09-17T07:40:52.000Z</time>
      </trkpt>
      <trkpt lat="47.6816" lon="6.05452">
        <ele>245.19999694824</ele>
        <time>2014-09-17T07:40:53.000Z</time>
      </trkpt>
      <trkpt lat="47.68159" lon="6.05459">
        <ele>244.80000305176</ele>
        <time>2014-09-17T07:40:54.000Z</time>
      </trkpt>
      <trkpt lat="47.68159" lon="6.05466">
        <ele>244.19999694824</ele>
        <time>2014-09-17T07:40:55.000Z</time>
      </trkpt>
      <trkpt lat="47.68158" lon="6.05474">
        <ele>243.80000305176</ele>
        <time>2014-09-17T07:40:56.000Z</time>
      </trkpt>
      <trkpt lat="47.68158" lon="6.05481">
        <ele>243.39999389648</ele>
        <time>2014-09-17T07:40:57.000Z</time>
      </trkpt>
      <trkpt lat="47.68157" lon="6.0549">
        <ele>243</ele>
        <time>2014-09-17T07:40:58.000Z</time>
      </trkpt>
      <trkpt lat="47.68156" lon="6.05498">
        <ele>242.39999389648</ele>
        <time>2014-09-17T07:40:59.000Z</time>
      </trkpt>
      <trkpt lat="47.68154" lon="6.05507">
        <ele>241.80000305176</ele>
        <time>2014-09-17T07:41:00.000Z</time>
      </trkpt>
      <trkpt lat="47.68153" lon="6.05515">
        <ele>241.19999694824</ele>
        <time>2014-09-17T07:41:01.000Z</time>
      </trkpt>
      <trkpt lat="47.68151" lon="6.05528">
        <ele>240.80000305176</ele>
        <time>2014-09-17T07:41:02.000Z</time>
      </trkpt>
      <trkpt lat="47.68149" lon="6.05539">
        <ele>240.19999694824</ele>
        <time>2014-09-17T07:41:03.000Z</time>
      </trkpt>
      <trkpt lat="47.68147" lon="6.0555">
        <ele>239.60000610352</ele>
        <time>2014-09-17T07:41:04.000Z</time>
      </trkpt>
      <trkpt lat="47.68145" lon="6.05559">
        <ele>239</ele>
        <time>2014-09-17T07:41:05.000Z</time>
      </trkpt>
      <trkpt lat="47.68141" lon="6.05567">
        <ele>238.39999389648</ele>
        <time>2014-09-17T07:41:06.000Z</time>
      </trkpt>
      <trkpt lat="47.68137" lon="6.05574">
        <ele>238</ele>
        <time>2014-09-17T07:41:07.000Z</time>
      </trkpt>
      <trkpt lat="47.68133" lon="6.05579">
        <ele>237.39999389648</ele>
        <time>2014-09-17T07:41:08.000Z</time>
      </trkpt>
      <trkpt lat="47.68127" lon="6.05585">
        <ele>237</ele>
        <time>2014-09-17T07:41:09.000Z</time>
      </trkpt>
      <trkpt lat="47.68123" lon="6.0559">
        <ele>236.39999389648</ele>
        <time>2014-09-17T07:41:10.000Z</time>
      </trkpt>
      <trkpt lat="47.68118" lon="6.05596">
        <ele>236</ele>
        <time>2014-09-17T07:41:11.000Z</time>
      </trkpt>
      <trkpt lat="47.68113" lon="6.05601">
        <ele>235.39999389648</ele>
        <time>2014-09-17T07:41:12.000Z</time>
      </trkpt>
      <trkpt lat="47.68109" lon="6.05605">
        <ele>235.39999389648</ele>
        <time>2014-09-17T07:41:13.000Z</time>
      </trkpt>
      <trkpt lat="47.6809" lon="6.05622">
        <ele>235.39999389648</ele>
        <time>2014-09-17T07:41:18.000Z</time>
      </trkpt>
      <trkpt lat="47.68065" lon="6.05645">
        <ele>235.39999389648</ele>
        <time>2014-09-17T07:41:25.000Z</time>
      </trkpt>
      <trkpt lat="47.68049" lon="6.05662">
        <ele>235.39999389648</ele>
        <time>2014-09-17T07:41:30.000Z</time>
      </trkpt>
      <trkpt lat="47.68035" lon="6.05677">
        <ele>235.39999389648</ele>
        <time>2014-09-17T07:41:35.000Z</time>
      </trkpt>
      <trkpt lat="47.68026" lon="6.05688">
        <ele>235.39999389648</ele>
        <time>2014-09-17T07:41:40.000Z</time>
      </trkpt>
      <trkpt lat="47.68018" lon="6.057">
        <ele>235.39999389648</ele>
        <time>2014-09-17T07:41:45.000Z</time>
      </trkpt>
      <trkpt lat="47.68014" lon="6.0571">
        <ele>235.39999389648</ele>
        <time>2014-09-17T07:41:51.000Z</time>
      </trkpt>
      <trkpt lat="47.68003" lon="6.05723">
        <ele>235.39999389648</ele>
        <time>2014-09-17T07:41:57.000Z</time>
      </trkpt>
      <trkpt lat="47.68001" lon="6.05724">
        <ele>235.80000305176</ele>
        <time>2014-09-17T07:41:58.000Z</time>
      </trkpt>
      <trkpt lat="47.67999" lon="6.05726">
        <ele>236.19999694824</ele>
        <time>2014-09-17T07:41:59.000Z</time>
      </trkpt>
      <trkpt lat="47.67997" lon="6.05729">
        <ele>236.60000610352</ele>
        <time>2014-09-17T07:42:00.000Z</time>
      </trkpt>
      <trkpt lat="47.67995" lon="6.05731">
        <ele>237.19999694824</ele>
        <time>2014-09-17T07:42:01.000Z</time>
      </trkpt>
      <trkpt lat="47.67993" lon="6.05734">
        <ele>237.60000610352</ele>
        <time>2014-09-17T07:42:02.000Z</time>
      </trkpt>
      <trkpt lat="47.67981" lon="6.05746">
        <ele>237.60000610352</ele>
        <time>2014-09-17T07:42:09.000Z</time>
      </trkpt>
      <trkpt lat="47.67976" lon="6.0575">
        <ele>238</ele>
        <time>2014-09-17T07:42:12.000Z</time>
      </trkpt>
      <trkpt lat="47.67972" lon="6.05752">
        <ele>238.39999389648</ele>
        <time>2014-09-17T07:42:13.000Z</time>
      </trkpt>
      <trkpt lat="47.67969" lon="6.05754">
        <ele>238.80000305176</ele>
        <time>2014-09-17T07:42:14.000Z</time>
      </trkpt>
      <trkpt lat="47.67966" lon="6.05755">
        <ele>239.19999694824</ele>
        <time>2014-09-17T07:42:15.000Z</time>
      </trkpt>
      <trkpt lat="47.67964" lon="6.05756">
        <ele>239.60000610352</ele>
        <time>2014-09-17T07:42:16.000Z</time>
      </trkpt>
      <trkpt lat="47.67956" lon="6.0576">
        <ele>239.60000610352</ele>
        <time>2014-09-17T07:42:19.000Z</time>
      </trkpt>
      <trkpt lat="47.67945" lon="6.05758">
        <ele>239.60000610352</ele>
        <time>2014-09-17T07:42:26.000Z</time>
      </trkpt>
      <trkpt lat="47.67945" lon="6.05758">
        <ele>239.60000610352</ele>
        <time>2014-09-17T07:42:27.000Z</time>
      </trkpt>
      <trkpt lat="47.67942" lon="6.05757">
        <ele>239.60000610352</ele>
        <time>2014-09-17T07:42:59.000Z</time>
      </trkpt>
      <trkpt lat="47.67941" lon="6.05756">
        <ele>239.60000610352</ele>
        <time>2014-09-17T07:43:00.000Z</time>
      </trkpt>
      <trkpt lat="47.67928" lon="6.05751">
        <ele>239.60000610352</ele>
        <time>2014-09-17T07:43:06.000Z</time>
      </trkpt>
      <trkpt lat="47.67914" lon="6.05743">
        <ele>239.60000610352</ele>
        <time>2014-09-17T07:43:13.000Z</time>
      </trkpt>
      <trkpt lat="47.67901" lon="6.05734">
        <ele>239.60000610352</ele>
        <time>2014-09-17T07:43:19.000Z</time>
      </trkpt>
      <trkpt lat="47.67889" lon="6.05727">
        <ele>240</ele>
        <time>2014-09-17T07:43:24.000Z</time>
      </trkpt>
      <trkpt lat="47.67887" lon="6.05725">
        <ele>240.39999389648</ele>
        <time>2014-09-17T07:43:25.000Z</time>
      </trkpt>
      <trkpt lat="47.67884" lon="6.05724">
        <ele>240.80000305176</ele>
        <time>2014-09-17T07:43:26.000Z</time>
      </trkpt>
      <trkpt lat="47.67882" lon="6.05722">
        <ele>241.19999694824</ele>
        <time>2014-09-17T07:43:27.000Z</time>
      </trkpt>
      <trkpt lat="47.6788" lon="6.05721">
        <ele>241.60000610352</ele>
        <time>2014-09-17T07:43:28.000Z</time>
      </trkpt>
      <trkpt lat="47.67876" lon="6.05717">
        <ele>241.60000610352</ele>
        <time>2014-09-17T07:43:30.000Z</time>
      </trkpt>
      <trkpt lat="47.6787" lon="6.05713">
        <ele>241.60000610352</ele>
        <time>2014-09-17T07:43:33.000Z</time>
      </trkpt>
      <trkpt lat="47.67867" lon="6.05709">
        <ele>241.60000610352</ele>
        <time>2014-09-17T07:43:35.000Z</time>
      </trkpt>
      <trkpt lat="47.6786" lon="6.05706">
        <ele>241.60000610352</ele>
        <time>2014-09-17T07:43:38.000Z</time>
      </trkpt>
      <trkpt lat="47.67854" lon="6.05702">
        <ele>241.60000610352</ele>
        <time>2014-09-17T07:43:41.000Z</time>
      </trkpt>
      <trkpt lat="47.67842" lon="6.05691">
        <ele>242</ele>
        <time>2014-09-17T07:43:47.000Z</time>
      </trkpt>
      <trkpt lat="47.6784" lon="6.05689">
        <ele>242.39999389648</ele>
        <time>2014-09-17T07:43:48.000Z</time>
      </trkpt>
      <trkpt lat="47.67838" lon="6.05687">
        <ele>242.80000305176</ele>
        <time>2014-09-17T07:43:49.000Z</time>
      </trkpt>
      <trkpt lat="47.67835" lon="6.05685">
        <ele>243.19999694824</ele>
        <time>2014-09-17T07:43:50.000Z</time>
      </trkpt>
      <trkpt lat="47.67834" lon="6.05684">
        <ele>243.60000610352</ele>
        <time>2014-09-17T07:43:51.000Z</time>
      </trkpt>
      <trkpt lat="47.67831" lon="6.05681">
        <ele>243.60000610352</ele>
        <time>2014-09-17T07:43:53.000Z</time>
      </trkpt>
      <trkpt lat="47.6782" lon="6.05669">
        <ele>244.19999694824</ele>
        <time>2014-09-17T07:44:00.000Z</time>
      </trkpt>
      <trkpt lat="47.67819" lon="6.05668">
        <ele>244.60000610352</ele>
        <time>2014-09-17T07:44:01.000Z</time>
      </trkpt>
      <trkpt lat="47.67818" lon="6.05666">
        <ele>245</ele>
        <time>2014-09-17T07:44:02.000Z</time>
      </trkpt>
      <trkpt lat="47.67816" lon="6.05663">
        <ele>245.39999389648</ele>
        <time>2014-09-17T07:44:03.000Z</time>
      </trkpt>
      <trkpt lat="47.67815" lon="6.05661">
        <ele>245.80000305176</ele>
        <time>2014-09-17T07:44:04.000Z</time>
      </trkpt>
      <trkpt lat="47.67812" lon="6.05658">
        <ele>245.80000305176</ele>
        <time>2014-09-17T07:44:06.000Z</time>
      </trkpt>
      <trkpt lat="47.67807" lon="6.05647">
        <ele>245.80000305176</ele>
        <time>2014-09-17T07:44:12.000Z</time>
      </trkpt>
      <trkpt lat="47.67803" lon="6.05642">
        <ele>246.19999694824</ele>
        <time>2014-09-17T07:44:14.000Z</time>
      </trkpt>
      <trkpt lat="47.67801" lon="6.0564">
        <ele>246.60000610352</ele>
        <time>2014-09-17T07:44:15.000Z</time>
      </trkpt>
      <trkpt lat="47.678" lon="6.05638">
        <ele>247</ele>
        <time>2014-09-17T07:44:16.000Z</time>
      </trkpt>
      <trkpt lat="47.67798" lon="6.05636">
        <ele>247.39999389648</ele>
        <time>2014-09-17T07:44:17.000Z</time>
      </trkpt>
      <trkpt lat="47.67797" lon="6.05635">
        <ele>248</ele>
        <time>2014-09-17T07:44:18.000Z</time>
      </trkpt>
      <trkpt lat="47.67784" lon="6.0562">
        <ele>248</ele>
        <time>2014-09-17T07:44:25.000Z</time>
      </trkpt>
      <trkpt lat="47.67778" lon="6.05611">
        <ele>248</ele>
        <time>2014-09-17T07:44:30.000Z</time>
      </trkpt>
      <trkpt lat="47.67776" lon="6.0561">
        <ele>248.39999389648</ele>
        <time>2014-09-17T07:44:31.000Z</time>
      </trkpt>
      <trkpt lat="47.67775" lon="6.05608">
        <ele>248.80000305176</ele>
        <time>2014-09-17T07:44:32.000Z</time>
      </trkpt>
      <trkpt lat="47.67773" lon="6.05607">
        <ele>249.60000610352</ele>
        <time>2014-09-17T07:44:33.000Z</time>
      </trkpt>
      <trkpt lat="47.67771" lon="6.05604">
        <ele>250</ele>
        <time>2014-09-17T07:44:34.000Z</time>
      </trkpt>
      <trkpt lat="47.67769" lon="6.05598">
        <ele>250</ele>
        <time>2014-09-17T07:44:37.000Z</time>
      </trkpt>
      <trkpt lat="47.67768" lon="6.05582">
        <ele>250</ele>
        <time>2014-09-17T07:44:43.000Z</time>
      </trkpt>
      <trkpt lat="47.67769" lon="6.05563">
        <ele>250.39999389648</ele>
        <time>2014-09-17T07:44:49.000Z</time>
      </trkpt>
      <trkpt lat="47.67769" lon="6.0556">
        <ele>250.80000305176</ele>
        <time>2014-09-17T07:44:50.000Z</time>
      </trkpt>
      <trkpt lat="47.67769" lon="6.05557">
        <ele>251.19999694824</ele>
        <time>2014-09-17T07:44:51.000Z</time>
      </trkpt>
      <trkpt lat="47.6777" lon="6.05555">
        <ele>251.60000610352</ele>
        <time>2014-09-17T07:44:52.000Z</time>
      </trkpt>
      <trkpt lat="47.67769" lon="6.05554">
        <ele>252</ele>
        <time>2014-09-17T07:44:53.000Z</time>
      </trkpt>
      <trkpt lat="47.67769" lon="6.0555">
        <ele>252</ele>
        <time>2014-09-17T07:44:55.000Z</time>
      </trkpt>
      <trkpt lat="47.67769" lon="6.05548">
        <ele>252</ele>
        <time>2014-09-17T07:44:58.000Z</time>
      </trkpt>
      <trkpt lat="47.67774" lon="6.05544">
        <ele>252</ele>
        <time>2014-09-17T07:45:01.000Z</time>
      </trkpt>
      <trkpt lat="47.67788" lon="6.05537">
        <ele>252</ele>
        <time>2014-09-17T07:45:08.000Z</time>
      </trkpt>
      <trkpt lat="47.67791" lon="6.05537">
        <ele>252.39999389648</ele>
        <time>2014-09-17T07:45:09.000Z</time>
      </trkpt>
      <trkpt lat="47.67793" lon="6.05534">
        <ele>252.80000305176</ele>
        <time>2014-09-17T07:45:10.000Z</time>
      </trkpt>
      <trkpt lat="47.67797" lon="6.05531">
        <ele>253.39999389648</ele>
        <time>2014-09-17T07:45:11.000Z</time>
      </trkpt>
      <trkpt lat="47.678" lon="6.05528">
        <ele>253.80000305176</ele>
        <time>2014-09-17T07:45:12.000Z</time>
      </trkpt>
      <trkpt lat="47.67803" lon="6.05525">
        <ele>254.19999694824</ele>
        <time>2014-09-17T07:45:13.000Z</time>
      </trkpt>
      <trkpt lat="47.67804" lon="6.05521">
        <ele>254.19999694824</ele>
        <time>2014-09-17T07:45:14.000Z</time>
      </trkpt>
      <trkpt lat="47.67809" lon="6.055">
        <ele>254.19999694824</ele>
        <time>2014-09-17T07:45:21.000Z</time>
      </trkpt>
      <trkpt lat="47.67811" lon="6.05483">
        <ele>254.19999694824</ele>
        <time>2014-09-17T07:45:26.000Z</time>
      </trkpt>
      <trkpt lat="47.67812" lon="6.05459">
        <ele>254.19999694824</ele>
        <time>2014-09-17T07:45:32.000Z</time>
      </trkpt>
      <trkpt lat="47.67809" lon="6.05431">
        <ele>254.19999694824</ele>
        <time>2014-09-17T07:45:38.000Z</time>
      </trkpt>
      <trkpt lat="47.67804" lon="6.05408">
        <ele>254.19999694824</ele>
        <time>2014-09-17T07:45:44.000Z</time>
      </trkpt>
      <trkpt lat="47.67797" lon="6.05381">
        <ele>254.19999694824</ele>
        <time>2014-09-17T07:45:50.000Z</time>
      </trkpt>
      <trkpt lat="47.67791" lon="6.0535">
        <ele>254.19999694824</ele>
        <time>2014-09-17T07:45:57.000Z</time>
      </trkpt>
      <trkpt lat="47.67791" lon="6.05334">
        <ele>254.19999694824</ele>
        <time>2014-09-17T07:46:02.000Z</time>
      </trkpt>
      <trkpt lat="47.67791" lon="6.05328">
        <ele>254.19999694824</ele>
        <time>2014-09-17T07:46:04.000Z</time>
      </trkpt>
      <trkpt lat="47.67792" lon="6.0532">
        <ele>254.19999694824</ele>
        <time>2014-09-17T07:46:06.000Z</time>
      </trkpt>
      <trkpt lat="47.67791" lon="6.05296">
        <ele>254.19999694824</ele>
        <time>2014-09-17T07:46:11.000Z</time>
      </trkpt>
      <trkpt lat="47.67793" lon="6.05284">
        <ele>253.80000305176</ele>
        <time>2014-09-17T07:46:13.000Z</time>
      </trkpt>
      <trkpt lat="47.67795" lon="6.05277">
        <ele>253.19999694824</ele>
        <time>2014-09-17T07:46:14.000Z</time>
      </trkpt>
      <trkpt lat="47.67796" lon="6.05271">
        <ele>252.80000305176</ele>
        <time>2014-09-17T07:46:15.000Z</time>
      </trkpt>
      <trkpt lat="47.67798" lon="6.05262">
        <ele>252.39999389648</ele>
        <time>2014-09-17T07:46:16.000Z</time>
      </trkpt>
      <trkpt lat="47.678" lon="6.05251">
        <ele>252</ele>
        <time>2014-09-17T07:46:17.000Z</time>
      </trkpt>
      <trkpt lat="47.67801" lon="6.05241">
        <ele>251.39999389648</ele>
        <time>2014-09-17T07:46:18.000Z</time>
      </trkpt>
      <trkpt lat="47.67802" lon="6.0523">
        <ele>251</ele>
        <time>2014-09-17T07:46:19.000Z</time>
      </trkpt>
      <trkpt lat="47.67803" lon="6.05218">
        <ele>250.39999389648</ele>
        <time>2014-09-17T07:46:20.000Z</time>
      </trkpt>
      <trkpt lat="47.67804" lon="6.05207">
        <ele>250</ele>
        <time>2014-09-17T07:46:21.000Z</time>
      </trkpt>
      <trkpt lat="47.67804" lon="6.05195">
        <ele>249.39999389648</ele>
        <time>2014-09-17T07:46:22.000Z</time>
      </trkpt>
      <trkpt lat="47.67803" lon="6.05183">
        <ele>248.80000305176</ele>
        <time>2014-09-17T07:46:23.000Z</time>
      </trkpt>
      <trkpt lat="47.67803" lon="6.0517">
        <ele>248.19999694824</ele>
        <time>2014-09-17T07:46:24.000Z</time>
      </trkpt>
      <trkpt lat="47.67802" lon="6.05159">
        <ele>247.60000610352</ele>
        <time>2014-09-17T07:46:25.000Z</time>
      </trkpt>
      <trkpt lat="47.67801" lon="6.05146">
        <ele>247</ele>
        <time>2014-09-17T07:46:26.000Z</time>
      </trkpt>
      <trkpt lat="47.67801" lon="6.05133">
        <ele>246.39999389648</ele>
        <time>2014-09-17T07:46:27.000Z</time>
      </trkpt>
      <trkpt lat="47.678" lon="6.05122">
        <ele>245.80000305176</ele>
        <time>2014-09-17T07:46:28.000Z</time>
      </trkpt>
      <trkpt lat="47.67799" lon="6.0511">
        <ele>245.19999694824</ele>
        <time>2014-09-17T07:46:29.000Z</time>
      </trkpt>
      <trkpt lat="47.67797" lon="6.051">
        <ele>244.60000610352</ele>
        <time>2014-09-17T07:46:30.000Z</time>
      </trkpt>
      <trkpt lat="47.67794" lon="6.0509">
        <ele>244</ele>
        <time>2014-09-17T07:46:31.000Z</time>
      </trkpt>
      <trkpt lat="47.6779" lon="6.05079">
        <ele>243.60000610352</ele>
        <time>2014-09-17T07:46:32.000Z</time>
      </trkpt>
      <trkpt lat="47.67787" lon="6.05069">
        <ele>243</ele>
        <time>2014-09-17T07:46:33.000Z</time>
      </trkpt>
      <trkpt lat="47.6778" lon="6.0505">
        <ele>242.60000610352</ele>
        <time>2014-09-17T07:46:35.000Z</time>
      </trkpt>
      <trkpt lat="47.67777" lon="6.05042">
        <ele>241.80000305176</ele>
        <time>2014-09-17T07:46:36.000Z</time>
      </trkpt>
      <trkpt lat="47.67773" lon="6.05035">
        <ele>241.39999389648</ele>
        <time>2014-09-17T07:46:37.000Z</time>
      </trkpt>
      <trkpt lat="47.6777" lon="6.05028">
        <ele>241</ele>
        <time>2014-09-17T07:46:38.000Z</time>
      </trkpt>
      <trkpt lat="47.67768" lon="6.05022">
        <ele>241</ele>
        <time>2014-09-17T07:46:39.000Z</time>
      </trkpt>
      <trkpt lat="47.67768" lon="6.05004">
        <ele>241</ele>
        <time>2014-09-17T07:46:42.000Z</time>
      </trkpt>
      <trkpt lat="47.67771" lon="6.05">
        <ele>240.39999389648</ele>
        <time>2014-09-17T07:46:43.000Z</time>
      </trkpt>
      <trkpt lat="47.67774" lon="6.04995">
        <ele>240</ele>
        <time>2014-09-17T07:46:44.000Z</time>
      </trkpt>
      <trkpt lat="47.67776" lon="6.04991">
        <ele>239.39999389648</ele>
        <time>2014-09-17T07:46:45.000Z</time>
      </trkpt>
      <trkpt lat="47.67779" lon="6.04985">
        <ele>239</ele>
        <time>2014-09-17T07:46:46.000Z</time>
      </trkpt>
      <trkpt lat="47.67782" lon="6.0498">
        <ele>238.39999389648</ele>
        <time>2014-09-17T07:46:47.000Z</time>
      </trkpt>
      <trkpt lat="47.67793" lon="6.04958">
        <ele>238.39999389648</ele>
        <time>2014-09-17T07:46:52.000Z</time>
      </trkpt>
      <trkpt lat="47.67803" lon="6.0494">
        <ele>238.39999389648</ele>
        <time>2014-09-17T07:46:58.000Z</time>
      </trkpt>
      <trkpt lat="47.67808" lon="6.04926">
        <ele>238.39999389648</ele>
        <time>2014-09-17T07:47:02.000Z</time>
      </trkpt>
      <trkpt lat="47.67808" lon="6.04923">
        <ele>238.39999389648</ele>
        <time>2014-09-17T07:47:03.000Z</time>
      </trkpt>
      <trkpt lat="47.67804" lon="6.04913">
        <ele>238.39999389648</ele>
        <time>2014-09-17T07:47:08.000Z</time>
      </trkpt>
      <trkpt lat="47.67803" lon="6.04913">
        <ele>238.39999389648</ele>
        <time>2014-09-17T07:47:09.000Z</time>
      </trkpt>
      <trkpt lat="47.67793" lon="6.04913">
        <ele>238.39999389648</ele>
        <time>2014-09-17T07:47:13.000Z</time>
      </trkpt>
      <trkpt lat="47.67785" lon="6.04915">
        <ele>238.39999389648</ele>
        <time>2014-09-17T07:47:16.000Z</time>
      </trkpt>
      <trkpt lat="47.67778" lon="6.04915">
        <ele>238.39999389648</ele>
        <time>2014-09-17T07:47:19.000Z</time>
      </trkpt>
      <trkpt lat="47.67771" lon="6.04917">
        <ele>238.80000305176</ele>
        <time>2014-09-17T07:47:22.000Z</time>
      </trkpt>
      <trkpt lat="47.67768" lon="6.04918">
        <ele>239.19999694824</ele>
        <time>2014-09-17T07:47:23.000Z</time>
      </trkpt>
      <trkpt lat="47.67765" lon="6.04919">
        <ele>239.60000610352</ele>
        <time>2014-09-17T07:47:24.000Z</time>
      </trkpt>
      <trkpt lat="47.67763" lon="6.0492">
        <ele>240</ele>
        <time>2014-09-17T07:47:25.000Z</time>
      </trkpt>
      <trkpt lat="47.67761" lon="6.0492">
        <ele>240.39999389648</ele>
        <time>2014-09-17T07:47:26.000Z</time>
      </trkpt>
      <trkpt lat="47.67757" lon="6.04922">
        <ele>240.39999389648</ele>
        <time>2014-09-17T07:47:27.000Z</time>
      </trkpt>
      <trkpt lat="47.67737" lon="6.04929">
        <ele>240.39999389648</ele>
        <time>2014-09-17T07:47:34.000Z</time>
      </trkpt>
      <trkpt lat="47.67722" lon="6.04935">
        <ele>241</ele>
        <time>2014-09-17T07:47:40.000Z</time>
      </trkpt>
      <trkpt lat="47.6772" lon="6.04936">
        <ele>241.39999389648</ele>
        <time>2014-09-17T07:47:41.000Z</time>
      </trkpt>
      <trkpt lat="47.67718" lon="6.04937">
        <ele>241.80000305176</ele>
        <time>2014-09-17T07:47:42.000Z</time>
      </trkpt>
      <trkpt lat="47.67715" lon="6.04938">
        <ele>242.19999694824</ele>
        <time>2014-09-17T07:47:43.000Z</time>
      </trkpt>
      <trkpt lat="47.67713" lon="6.04938">
        <ele>242.60000610352</ele>
        <time>2014-09-17T07:47:44.000Z</time>
      </trkpt>
      <trkpt lat="47.67708" lon="6.04939">
        <ele>242.60000610352</ele>
        <time>2014-09-17T07:47:46.000Z</time>
      </trkpt>
      <trkpt lat="47.67696" lon="6.04939">
        <ele>242.60000610352</ele>
        <time>2014-09-17T07:47:53.000Z</time>
      </trkpt>
      <trkpt lat="47.67687" lon="6.04941">
        <ele>243</ele>
        <time>2014-09-17T07:47:58.000Z</time>
      </trkpt>
      <trkpt lat="47.67685" lon="6.04941">
        <ele>243.39999389648</ele>
        <time>2014-09-17T07:47:59.000Z</time>
      </trkpt>
      <trkpt lat="47.67684" lon="6.04942">
        <ele>243.80000305176</ele>
        <time>2014-09-17T07:48:00.000Z</time>
      </trkpt>
      <trkpt lat="47.67683" lon="6.04942">
        <ele>244.19999694824</ele>
        <time>2014-09-17T07:48:01.000Z</time>
      </trkpt>
      <trkpt lat="47.67681" lon="6.04942">
        <ele>244.80000305176</ele>
        <time>2014-09-17T07:48:02.000Z</time>
      </trkpt>
      <trkpt lat="47.67674" lon="6.0494">
        <ele>244.80000305176</ele>
        <time>2014-09-17T07:48:06.000Z</time>
      </trkpt>
      <trkpt lat="47.6767" lon="6.04936">
        <ele>244.80000305176</ele>
        <time>2014-09-17T07:48:11.000Z</time>
      </trkpt>
      <trkpt lat="47.67669" lon="6.04936">
        <ele>244.80000305176</ele>
        <time>2014-09-17T07:48:13.000Z</time>
      </trkpt>
      <trkpt lat="47.67563" lon="6.04777">
        <ele>263.39999389648</ele>
        <time>2014-09-17T07:51:44.000Z</time>
      </trkpt>
      <trkpt lat="47.67561" lon="6.04774">
        <ele>263.39999389648</ele>
        <time>2014-09-17T07:51:46.000Z</time>
      </trkpt>
      <trkpt lat="47.67559" lon="6.04768">
        <ele>263.79998779297</ele>
        <time>2014-09-17T07:51:50.000Z</time>
      </trkpt>
      <trkpt lat="47.67558" lon="6.04766">
        <ele>264.20001220703</ele>
        <time>2014-09-17T07:51:51.000Z</time>
      </trkpt>
      <trkpt lat="47.67556" lon="6.04763">
        <ele>264.60000610352</ele>
        <time>2014-09-17T07:51:52.000Z</time>
      </trkpt>
      <trkpt lat="47.67554" lon="6.04762">
        <ele>265</ele>
        <time>2014-09-17T07:51:53.000Z</time>
      </trkpt>
      <trkpt lat="47.67553" lon="6.04761">
        <ele>265.60000610352</ele>
        <time>2014-09-17T07:51:54.000Z</time>
      </trkpt>
      <trkpt lat="47.67545" lon="6.04752">
        <ele>265.60000610352</ele>
        <time>2014-09-17T07:52:00.000Z</time>
      </trkpt>
      <trkpt lat="47.67542" lon="6.04747">
        <ele>265.60000610352</ele>
        <time>2014-09-17T07:52:04.000Z</time>
      </trkpt>
      <trkpt lat="47.67541" lon="6.04745">
        <ele>265.60000610352</ele>
        <time>2014-09-17T07:52:06.000Z</time>
      </trkpt>
      <trkpt lat="47.6754" lon="6.04744">
        <ele>266</ele>
        <time>2014-09-17T07:52:07.000Z</time>
      </trkpt>
      <trkpt lat="47.67539" lon="6.04743">
        <ele>266.39999389648</ele>
        <time>2014-09-17T07:52:08.000Z</time>
      </trkpt>
      <trkpt lat="47.67539" lon="6.04742">
        <ele>266.79998779297</ele>
        <time>2014-09-17T07:52:09.000Z</time>
      </trkpt>
      <trkpt lat="47.67539" lon="6.04741">
        <ele>267.20001220703</ele>
        <time>2014-09-17T07:52:10.000Z</time>
      </trkpt>
      <trkpt lat="47.67538" lon="6.0474">
        <ele>267.60000610352</ele>
        <time>2014-09-17T07:52:11.000Z</time>
      </trkpt>
      <trkpt lat="47.67536" lon="6.04737">
        <ele>267.60000610352</ele>
        <time>2014-09-17T07:52:13.000Z</time>
      </trkpt>
      <trkpt lat="47.67535" lon="6.04731">
        <ele>267.60000610352</ele>
        <time>2014-09-17T07:52:18.000Z</time>
      </trkpt>
      <trkpt lat="47.67527" lon="6.04711">
        <ele>267.60000610352</ele>
        <time>2014-09-17T07:52:47.000Z</time>
      </trkpt>
      <trkpt lat="47.67518" lon="6.04696">
        <ele>267.60000610352</ele>
        <time>2014-09-17T07:52:54.000Z</time>
      </trkpt>
      <trkpt lat="47.67517" lon="6.04694">
        <ele>267.60000610352</ele>
        <time>2014-09-17T07:52:55.000Z</time>
      </trkpt>
      <trkpt lat="47.67515" lon="6.04692">
        <ele>268</ele>
        <time>2014-09-17T07:52:56.000Z</time>
      </trkpt>
      <trkpt lat="47.67514" lon="6.0469">
        <ele>268.39999389648</ele>
        <time>2014-09-17T07:52:57.000Z</time>
      </trkpt>
      <trkpt lat="47.67513" lon="6.04689">
        <ele>268.79998779297</ele>
        <time>2014-09-17T07:52:58.000Z</time>
      </trkpt>
      <trkpt lat="47.67512" lon="6.04689">
        <ele>269.20001220703</ele>
        <time>2014-09-17T07:52:59.000Z</time>
      </trkpt>
      <trkpt lat="47.67511" lon="6.04688">
        <ele>269.60000610352</ele>
        <time>2014-09-17T07:53:00.000Z</time>
      </trkpt>
      <trkpt lat="47.675" lon="6.04684">
        <ele>269.60000610352</ele>
        <time>2014-09-17T07:53:06.000Z</time>
      </trkpt>
      <trkpt lat="47.6749" lon="6.04683">
        <ele>269.60000610352</ele>
        <time>2014-09-17T07:53:12.000Z</time>
      </trkpt>
      <trkpt lat="47.67483" lon="6.04678">
        <ele>269.60000610352</ele>
        <time>2014-09-17T07:53:17.000Z</time>
      </trkpt>
      <trkpt lat="47.6748" lon="6.04676">
        <ele>269.60000610352</ele>
        <time>2014-09-17T07:53:19.000Z</time>
      </trkpt>
      <trkpt lat="47.67476" lon="6.04673">
        <ele>269.60000610352</ele>
        <time>2014-09-17T07:53:21.000Z</time>
      </trkpt>
      <trkpt lat="47.67472" lon="6.04672">
        <ele>269.60000610352</ele>
        <time>2014-09-17T07:53:24.000Z</time>
      </trkpt>
      <trkpt lat="47.67469" lon="6.0467">
        <ele>269.60000610352</ele>
        <time>2014-09-17T07:53:26.000Z</time>
      </trkpt>
      <trkpt lat="47.67465" lon="6.04665">
        <ele>269.60000610352</ele>
        <time>2014-09-17T07:53:29.000Z</time>
      </trkpt>
      <trkpt lat="47.67465" lon="6.04652">
        <ele>269.60000610352</ele>
        <time>2014-09-17T07:53:35.000Z</time>
      </trkpt>
      <trkpt lat="47.67466" lon="6.04648">
        <ele>269.60000610352</ele>
        <time>2014-09-17T07:53:36.000Z</time>
      </trkpt>
      <trkpt lat="47.67467" lon="6.04635">
        <ele>269.60000610352</ele>
        <time>2014-09-17T07:53:41.000Z</time>
      </trkpt>
      <trkpt lat="47.67465" lon="6.0463">
        <ele>269.60000610352</ele>
        <time>2014-09-17T07:53:44.000Z</time>
      </trkpt>
      <trkpt lat="47.67461" lon="6.04615">
        <ele>269.60000610352</ele>
        <time>2014-09-17T07:53:53.000Z</time>
      </trkpt>
      <trkpt lat="47.6746" lon="6.0461">
        <ele>269.60000610352</ele>
        <time>2014-09-17T07:53:54.000Z</time>
      </trkpt>
      <trkpt lat="47.6746" lon="6.04607">
        <ele>269.60000610352</ele>
        <time>2014-09-17T07:53:55.000Z</time>
      </trkpt>
      <trkpt lat="47.67457" lon="6.046">
        <ele>269.60000610352</ele>
        <time>2014-09-17T07:53:59.000Z</time>
      </trkpt>
      <trkpt lat="47.67455" lon="6.04596">
        <ele>269.60000610352</ele>
        <time>2014-09-17T07:54:01.000Z</time>
      </trkpt>
      <trkpt lat="47.67452" lon="6.0459">
        <ele>269.60000610352</ele>
        <time>2014-09-17T07:54:06.000Z</time>
      </trkpt>
      <trkpt lat="47.67451" lon="6.0459">
        <ele>269.60000610352</ele>
        <time>2014-09-17T07:54:07.000Z</time>
      </trkpt>
      <trkpt lat="47.6744" lon="6.04583">
        <ele>269.60000610352</ele>
        <time>2014-09-17T07:54:16.000Z</time>
      </trkpt>
      <trkpt lat="47.67437" lon="6.04582">
        <ele>269.60000610352</ele>
        <time>2014-09-17T07:54:18.000Z</time>
      </trkpt>
      <trkpt lat="47.6743" lon="6.04579">
        <ele>269.60000610352</ele>
        <time>2014-09-17T07:54:23.000Z</time>
      </trkpt>
      <trkpt lat="47.67428" lon="6.04577">
        <ele>269.60000610352</ele>
        <time>2014-09-17T07:54:24.000Z</time>
      </trkpt>
      <trkpt lat="47.67423" lon="6.04569">
        <ele>269.60000610352</ele>
        <time>2014-09-17T07:54:29.000Z</time>
      </trkpt>
      <trkpt lat="47.6742" lon="6.04566">
        <ele>269.60000610352</ele>
        <time>2014-09-17T07:54:32.000Z</time>
      </trkpt>
      <trkpt lat="47.67417" lon="6.04562">
        <ele>269.60000610352</ele>
        <time>2014-09-17T07:54:35.000Z</time>
      </trkpt>
      <trkpt lat="47.67411" lon="6.04549">
        <ele>269.60000610352</ele>
        <time>2014-09-17T07:54:41.000Z</time>
      </trkpt>
      <trkpt lat="47.67404" lon="6.04541">
        <ele>269.60000610352</ele>
        <time>2014-09-17T07:54:47.000Z</time>
      </trkpt>
      <trkpt lat="47.67401" lon="6.04539">
        <ele>269.60000610352</ele>
        <time>2014-09-17T07:54:49.000Z</time>
      </trkpt>
      <trkpt lat="47.67393" lon="6.04535">
        <ele>269.60000610352</ele>
        <time>2014-09-17T07:54:53.000Z</time>
      </trkpt>
      <trkpt lat="47.67389" lon="6.04532">
        <ele>269.60000610352</ele>
        <time>2014-09-17T07:54:55.000Z</time>
      </trkpt>
      <trkpt lat="47.67383" lon="6.04529">
        <ele>269.60000610352</ele>
        <time>2014-09-17T07:54:59.000Z</time>
      </trkpt>
      <trkpt lat="47.67373" lon="6.04525">
        <ele>269.60000610352</ele>
        <time>2014-09-17T07:55:06.000Z</time>
      </trkpt>
      <trkpt lat="47.67365" lon="6.04524">
        <ele>269.60000610352</ele>
        <time>2014-09-17T07:55:12.000Z</time>
      </trkpt>
      <trkpt lat="47.67355" lon="6.04519">
        <ele>269.60000610352</ele>
        <time>2014-09-17T07:55:19.000Z</time>
      </trkpt>
      <trkpt lat="47.67348" lon="6.04519">
        <ele>269.60000610352</ele>
        <time>2014-09-17T07:55:24.000Z</time>
      </trkpt>
      <trkpt lat="47.67334" lon="6.04515">
        <ele>269.60000610352</ele>
        <time>2014-09-17T07:55:31.000Z</time>
      </trkpt>
      <trkpt lat="47.67323" lon="6.04511">
        <ele>269.60000610352</ele>
        <time>2014-09-17T07:55:37.000Z</time>
      </trkpt>
      <trkpt lat="47.67302" lon="6.04504">
        <ele>269.60000610352</ele>
        <time>2014-09-17T07:55:45.000Z</time>
      </trkpt>
      <trkpt lat="47.67276" lon="6.04497">
        <ele>269.60000610352</ele>
        <time>2014-09-17T07:55:52.000Z</time>
      </trkpt>
      <trkpt lat="47.67253" lon="6.04488">
        <ele>269.20001220703</ele>
        <time>2014-09-17T07:55:58.000Z</time>
      </trkpt>
      <trkpt lat="47.67249" lon="6.04486">
        <ele>268.79998779297</ele>
        <time>2014-09-17T07:55:59.000Z</time>
      </trkpt>
      <trkpt lat="47.67244" lon="6.04484">
        <ele>268.39999389648</ele>
        <time>2014-09-17T07:56:00.000Z</time>
      </trkpt>
      <trkpt lat="47.6724" lon="6.04481">
        <ele>267.79998779297</ele>
        <time>2014-09-17T07:56:01.000Z</time>
      </trkpt>
      <trkpt lat="47.67235" lon="6.04479">
        <ele>267.39999389648</ele>
        <time>2014-09-17T07:56:02.000Z</time>
      </trkpt>
      <trkpt lat="47.67225" lon="6.04477">
        <ele>267.39999389648</ele>
        <time>2014-09-17T07:56:04.000Z</time>
      </trkpt>
      <trkpt lat="47.6722" lon="6.04475">
        <ele>267</ele>
        <time>2014-09-17T07:56:05.000Z</time>
      </trkpt>
      <trkpt lat="47.67215" lon="6.04473">
        <ele>266.60000610352</ele>
        <time>2014-09-17T07:56:06.000Z</time>
      </trkpt>
      <trkpt lat="47.6721" lon="6.04472">
        <ele>266.20001220703</ele>
        <time>2014-09-17T07:56:07.000Z</time>
      </trkpt>
      <trkpt lat="47.67204" lon="6.0447">
        <ele>265.79998779297</ele>
        <time>2014-09-17T07:56:08.000Z</time>
      </trkpt>
      <trkpt lat="47.672" lon="6.04469">
        <ele>265.39999389648</ele>
        <time>2014-09-17T07:56:09.000Z</time>
      </trkpt>
      <trkpt lat="47.67195" lon="6.04467">
        <ele>265.39999389648</ele>
        <time>2014-09-17T07:56:10.000Z</time>
      </trkpt>
      <trkpt lat="47.67185" lon="6.04465">
        <ele>265</ele>
        <time>2014-09-17T07:56:12.000Z</time>
      </trkpt>
      <trkpt lat="47.67179" lon="6.04465">
        <ele>264.60000610352</ele>
        <time>2014-09-17T07:56:13.000Z</time>
      </trkpt>
      <trkpt lat="47.67174" lon="6.04465">
        <ele>264.20001220703</ele>
        <time>2014-09-17T07:56:14.000Z</time>
      </trkpt>
      <trkpt lat="47.67169" lon="6.04464">
        <ele>263.79998779297</ele>
        <time>2014-09-17T07:56:15.000Z</time>
      </trkpt>
      <trkpt lat="47.67164" lon="6.04464">
        <ele>263.20001220703</ele>
        <time>2014-09-17T07:56:16.000Z</time>
      </trkpt>
      <trkpt lat="47.67159" lon="6.04463">
        <ele>262.79998779297</ele>
        <time>2014-09-17T07:56:17.000Z</time>
      </trkpt>
      <trkpt lat="47.67153" lon="6.04463">
        <ele>262.20001220703</ele>
        <time>2014-09-17T07:56:18.000Z</time>
      </trkpt>
      <trkpt lat="47.67148" lon="6.04462">
        <ele>261.79998779297</ele>
        <time>2014-09-17T07:56:19.000Z</time>
      </trkpt>
      <trkpt lat="47.67142" lon="6.04461">
        <ele>261.39999389648</ele>
        <time>2014-09-17T07:56:20.000Z</time>
      </trkpt>
      <trkpt lat="47.67136" lon="6.04461">
        <ele>260.79998779297</ele>
        <time>2014-09-17T07:56:21.000Z</time>
      </trkpt>
      <trkpt lat="47.67129" lon="6.0446">
        <ele>260.39999389648</ele>
        <time>2014-09-17T07:56:22.000Z</time>
      </trkpt>
      <trkpt lat="47.67123" lon="6.0446">
        <ele>260</ele>
        <time>2014-09-17T07:56:23.000Z</time>
      </trkpt>
      <trkpt lat="47.67116" lon="6.0446">
        <ele>259.60000610352</ele>
        <time>2014-09-17T07:56:24.000Z</time>
      </trkpt>
      <trkpt lat="47.6711" lon="6.0446">
        <ele>259.20001220703</ele>
        <time>2014-09-17T07:56:25.000Z</time>
      </trkpt>
      <trkpt lat="47.67104" lon="6.04461">
        <ele>259.20001220703</ele>
        <time>2014-09-17T07:56:26.000Z</time>
      </trkpt>
      <trkpt lat="47.67091" lon="6.04462">
        <ele>259.20001220703</ele>
        <time>2014-09-17T07:56:29.000Z</time>
      </trkpt>
      <trkpt lat="47.6708" lon="6.04461">
        <ele>258.79998779297</ele>
        <time>2014-09-17T07:56:33.000Z</time>
      </trkpt>
      <trkpt lat="47.67078" lon="6.0446">
        <ele>258.39999389648</ele>
        <time>2014-09-17T07:56:34.000Z</time>
      </trkpt>
      <trkpt lat="47.67076" lon="6.0446">
        <ele>258</ele>
        <time>2014-09-17T07:56:35.000Z</time>
      </trkpt>
      <trkpt lat="47.67075" lon="6.0446">
        <ele>257.60000610352</ele>
        <time>2014-09-17T07:56:36.000Z</time>
      </trkpt>
      <trkpt lat="47.67074" lon="6.04461">
        <ele>257</ele>
        <time>2014-09-17T07:56:37.000Z</time>
      </trkpt>
      <trkpt lat="47.67071" lon="6.04461">
        <ele>257</ele>
        <time>2014-09-17T07:56:39.000Z</time>
      </trkpt>
      <trkpt lat="47.67068" lon="6.04462">
        <ele>257</ele>
        <time>2014-09-17T07:56:45.000Z</time>
      </trkpt>
      <trkpt lat="47.67063" lon="6.04462">
        <ele>257</ele>
        <time>2014-09-17T07:56:49.000Z</time>
      </trkpt>
      <trkpt lat="47.6706" lon="6.04462">
        <ele>257</ele>
        <time>2014-09-17T07:56:51.000Z</time>
      </trkpt>
      <trkpt lat="47.67057" lon="6.04462">
        <ele>257</ele>
        <time>2014-09-17T07:57:08.000Z</time>
      </trkpt>
      <trkpt lat="47.67056" lon="6.04461">
        <ele>257</ele>
        <time>2014-09-17T07:57:09.000Z</time>
      </trkpt>
      <trkpt lat="47.67042" lon="6.04457">
        <ele>257</ele>
        <time>2014-09-17T07:57:15.000Z</time>
      </trkpt>
      <trkpt lat="47.67033" lon="6.04453">
        <ele>257</ele>
        <time>2014-09-17T07:57:20.000Z</time>
      </trkpt>
      <trkpt lat="47.67024" lon="6.04447">
        <ele>257</ele>
        <time>2014-09-17T07:57:26.000Z</time>
      </trkpt>
      <trkpt lat="47.67015" lon="6.04443">
        <ele>257</ele>
        <time>2014-09-17T07:57:31.000Z</time>
      </trkpt>
      <trkpt lat="47.67007" lon="6.04439">
        <ele>257</ele>
        <time>2014-09-17T07:57:36.000Z</time>
      </trkpt>
      <trkpt lat="47.66996" lon="6.04432">
        <ele>257</ele>
        <time>2014-09-17T07:57:43.000Z</time>
      </trkpt>
      <trkpt lat="47.66984" lon="6.04427">
        <ele>257</ele>
        <time>2014-09-17T07:57:50.000Z</time>
      </trkpt>
      <trkpt lat="47.66976" lon="6.04422">
        <ele>257</ele>
        <time>2014-09-17T07:57:54.000Z</time>
      </trkpt>
      <trkpt lat="47.66975" lon="6.0442">
        <ele>257</ele>
        <time>2014-09-17T07:57:55.000Z</time>
      </trkpt>
      <trkpt lat="47.66959" lon="6.04411">
        <ele>257</ele>
        <time>2014-09-17T07:58:02.000Z</time>
      </trkpt>
      <trkpt lat="47.66951" lon="6.04402">
        <ele>257</ele>
        <time>2014-09-17T07:58:07.000Z</time>
      </trkpt>
      <trkpt lat="47.66943" lon="6.04393">
        <ele>257</ele>
        <time>2014-09-17T07:58:12.000Z</time>
      </trkpt>
      <trkpt lat="47.66933" lon="6.0438">
        <ele>257</ele>
        <time>2014-09-17T07:58:18.000Z</time>
      </trkpt>
      <trkpt lat="47.66929" lon="6.04378">
        <ele>257</ele>
        <time>2014-09-17T07:58:19.000Z</time>
      </trkpt>
      <trkpt lat="47.66918" lon="6.04369">
        <ele>257</ele>
        <time>2014-09-17T07:58:22.000Z</time>
      </trkpt>
      <trkpt lat="47.66914" lon="6.04365">
        <ele>257</ele>
        <time>2014-09-17T07:58:23.000Z</time>
      </trkpt>
      <trkpt lat="47.66895" lon="6.04353">
        <ele>257</ele>
        <time>2014-09-17T07:58:28.000Z</time>
      </trkpt>
      <trkpt lat="47.66877" lon="6.04338">
        <ele>257</ele>
        <time>2014-09-17T07:58:35.000Z</time>
      </trkpt>
      <trkpt lat="47.66864" lon="6.04327">
        <ele>257</ele>
        <time>2014-09-17T07:58:41.000Z</time>
      </trkpt>
      <trkpt lat="47.66858" lon="6.04322">
        <ele>257.60000610352</ele>
        <time>2014-09-17T07:58:44.000Z</time>
      </trkpt>
      <trkpt lat="47.66856" lon="6.04321">
        <ele>258</ele>
        <time>2014-09-17T07:58:45.000Z</time>
      </trkpt>
      <trkpt lat="47.66855" lon="6.04319">
        <ele>258.39999389648</ele>
        <time>2014-09-17T07:58:46.000Z</time>
      </trkpt>
      <trkpt lat="47.66853" lon="6.04318">
        <ele>258.79998779297</ele>
        <time>2014-09-17T07:58:47.000Z</time>
      </trkpt>
      <trkpt lat="47.66852" lon="6.04316">
        <ele>259.20001220703</ele>
        <time>2014-09-17T07:58:48.000Z</time>
      </trkpt>
      <trkpt lat="47.66846" lon="6.04308">
        <ele>259.20001220703</ele>
        <time>2014-09-17T07:58:52.000Z</time>
      </trkpt>
      <trkpt lat="47.6684" lon="6.04302">
        <ele>260</ele>
        <time>2014-09-17T07:58:56.000Z</time>
      </trkpt>
      <trkpt lat="47.66838" lon="6.043">
        <ele>260.39999389648</ele>
        <time>2014-09-17T07:58:57.000Z</time>
      </trkpt>
      <trkpt lat="47.66836" lon="6.04298">
        <ele>260.79998779297</ele>
        <time>2014-09-17T07:58:58.000Z</time>
      </trkpt>
      <trkpt lat="47.66835" lon="6.04296">
        <ele>261.20001220703</ele>
        <time>2014-09-17T07:58:59.000Z</time>
      </trkpt>
      <trkpt lat="47.66833" lon="6.04294">
        <ele>261.20001220703</ele>
        <time>2014-09-17T07:59:01.000Z</time>
      </trkpt>
      <trkpt lat="47.66829" lon="6.0429">
        <ele>261.20001220703</ele>
        <time>2014-09-17T07:59:04.000Z</time>
      </trkpt>
      <trkpt lat="47.66822" lon="6.04285">
        <ele>261.60000610352</ele>
        <time>2014-09-17T07:59:08.000Z</time>
      </trkpt>
      <trkpt lat="47.6682" lon="6.04284">
        <ele>262</ele>
        <time>2014-09-17T07:59:09.000Z</time>
      </trkpt>
      <trkpt lat="47.66818" lon="6.04283">
        <ele>262.39999389648</ele>
        <time>2014-09-17T07:59:10.000Z</time>
      </trkpt>
      <trkpt lat="47.66816" lon="6.04282">
        <ele>262.79998779297</ele>
        <time>2014-09-17T07:59:11.000Z</time>
      </trkpt>
      <trkpt lat="47.66814" lon="6.0428">
        <ele>263.20001220703</ele>
        <time>2014-09-17T07:59:12.000Z</time>
      </trkpt>
      <trkpt lat="47.66805" lon="6.04274">
        <ele>263.20001220703</ele>
        <time>2014-09-17T07:59:18.000Z</time>
      </trkpt>
      <trkpt lat="47.66797" lon="6.04266">
        <ele>263.79998779297</ele>
        <time>2014-09-17T07:59:24.000Z</time>
      </trkpt>
      <trkpt lat="47.66795" lon="6.04265">
        <ele>264.20001220703</ele>
        <time>2014-09-17T07:59:25.000Z</time>
      </trkpt>
      <trkpt lat="47.66794" lon="6.04264">
        <ele>264.60000610352</ele>
        <time>2014-09-17T07:59:26.000Z</time>
      </trkpt>
      <trkpt lat="47.66794" lon="6.04263">
        <ele>265</ele>
        <time>2014-09-17T07:59:27.000Z</time>
      </trkpt>
      <trkpt lat="47.66792" lon="6.04262">
        <ele>265.39999389648</ele>
        <time>2014-09-17T07:59:28.000Z</time>
      </trkpt>
      <trkpt lat="47.66786" lon="6.04257">
        <ele>265.39999389648</ele>
        <time>2014-09-17T07:59:32.000Z</time>
      </trkpt>
      <trkpt lat="47.66776" lon="6.04249">
        <ele>265.39999389648</ele>
        <time>2014-09-17T07:59:39.000Z</time>
      </trkpt>
      <trkpt lat="47.6677" lon="6.0424">
        <ele>265.39999389648</ele>
        <time>2014-09-17T07:59:45.000Z</time>
      </trkpt>
      <trkpt lat="47.66767" lon="6.04237">
        <ele>265.39999389648</ele>
        <time>2014-09-17T07:59:47.000Z</time>
      </trkpt>
      <trkpt lat="47.66762" lon="6.04233">
        <ele>265.39999389648</ele>
        <time>2014-09-17T07:59:51.000Z</time>
      </trkpt>
      <trkpt lat="47.66761" lon="6.04232">
        <ele>265.79998779297</ele>
        <time>2014-09-17T07:59:52.000Z</time>
      </trkpt>
      <trkpt lat="47.6676" lon="6.0423">
        <ele>266.20001220703</ele>
        <time>2014-09-17T07:59:53.000Z</time>
      </trkpt>
      <trkpt lat="47.66758" lon="6.04229">
        <ele>266.60000610352</ele>
        <time>2014-09-17T07:59:54.000Z</time>
      </trkpt>
      <trkpt lat="47.66757" lon="6.04228">
        <ele>267</ele>
        <time>2014-09-17T07:59:55.000Z</time>
      </trkpt>
      <trkpt lat="47.66756" lon="6.04226">
        <ele>267.39999389648</ele>
        <time>2014-09-17T07:59:56.000Z</time>
      </trkpt>
      <trkpt lat="47.66755" lon="6.04225">
        <ele>267.39999389648</ele>
        <time>2014-09-17T07:59:57.000Z</time>
      </trkpt>
      <trkpt lat="47.6675" lon="6.04223">
        <ele>267.39999389648</ele>
        <time>2014-09-17T08:00:01.000Z</time>
      </trkpt>
      <trkpt lat="47.66749" lon="6.04223">
        <ele>267.39999389648</ele>
        <time>2014-09-17T08:00:02.000Z</time>
      </trkpt>
      <trkpt lat="47.66748" lon="6.04222">
        <ele>267.39999389648</ele>
        <time>2014-09-17T08:00:03.000Z</time>
      </trkpt>
      <trkpt lat="47.66743" lon="6.04217">
        <ele>267.39999389648</ele>
        <time>2014-09-17T08:00:07.000Z</time>
      </trkpt>
      <trkpt lat="47.66741" lon="6.04215">
        <ele>267.39999389648</ele>
        <time>2014-09-17T08:00:09.000Z</time>
      </trkpt>
      <trkpt lat="47.66734" lon="6.04209">
        <ele>267.39999389648</ele>
        <time>2014-09-17T08:00:14.000Z</time>
      </trkpt>
      <trkpt lat="47.66725" lon="6.04201">
        <ele>267.39999389648</ele>
        <time>2014-09-17T08:00:19.000Z</time>
      </trkpt>
      <trkpt lat="47.66714" lon="6.04192">
        <ele>267.39999389648</ele>
        <time>2014-09-17T08:00:23.000Z</time>
      </trkpt>
      <trkpt lat="47.667" lon="6.04179">
        <ele>267.39999389648</ele>
        <time>2014-09-17T08:00:28.000Z</time>
      </trkpt>
      <trkpt lat="47.66689" lon="6.04171">
        <ele>267.39999389648</ele>
        <time>2014-09-17T08:00:34.000Z</time>
      </trkpt>
      <trkpt lat="47.66682" lon="6.04175">
        <ele>267.39999389648</ele>
        <time>2014-09-17T08:00:40.000Z</time>
      </trkpt>
      <trkpt lat="47.66681" lon="6.0418">
        <ele>267.39999389648</ele>
        <time>2014-09-17T08:00:43.000Z</time>
      </trkpt>
      <trkpt lat="47.66678" lon="6.04186">
        <ele>267.39999389648</ele>
        <time>2014-09-17T08:00:46.000Z</time>
      </trkpt>
      <trkpt lat="47.66669" lon="6.04201">
        <ele>267.39999389648</ele>
        <time>2014-09-17T08:00:52.000Z</time>
      </trkpt>
      <trkpt lat="47.66668" lon="6.04204">
        <ele>267</ele>
        <time>2014-09-17T08:00:53.000Z</time>
      </trkpt>
      <trkpt lat="47.66667" lon="6.04207">
        <ele>266.60000610352</ele>
        <time>2014-09-17T08:00:54.000Z</time>
      </trkpt>
      <trkpt lat="47.66666" lon="6.04209">
        <ele>266.20001220703</ele>
        <time>2014-09-17T08:00:55.000Z</time>
      </trkpt>
      <trkpt lat="47.66666" lon="6.04211">
        <ele>265.79998779297</ele>
        <time>2014-09-17T08:00:56.000Z</time>
      </trkpt>
      <trkpt lat="47.66665" lon="6.04214">
        <ele>265.39999389648</ele>
        <time>2014-09-17T08:00:57.000Z</time>
      </trkpt>
      <trkpt lat="47.66664" lon="6.04216">
        <ele>265.39999389648</ele>
        <time>2014-09-17T08:00:58.000Z</time>
      </trkpt>
      <trkpt lat="47.66653" lon="6.04241">
        <ele>265.39999389648</ele>
        <time>2014-09-17T08:01:05.000Z</time>
      </trkpt>
      <trkpt lat="47.66648" lon="6.04254">
        <ele>265</ele>
        <time>2014-09-17T08:01:09.000Z</time>
      </trkpt>
      <trkpt lat="47.66648" lon="6.04257">
        <ele>264.60000610352</ele>
        <time>2014-09-17T08:01:10.000Z</time>
      </trkpt>
      <trkpt lat="47.66648" lon="6.0426">
        <ele>264.20001220703</ele>
        <time>2014-09-17T08:01:11.000Z</time>
      </trkpt>
      <trkpt lat="47.66647" lon="6.04263">
        <ele>263.79998779297</ele>
        <time>2014-09-17T08:01:12.000Z</time>
      </trkpt>
      <trkpt lat="47.66646" lon="6.04266">
        <ele>263.39999389648</ele>
        <time>2014-09-17T08:01:13.000Z</time>
      </trkpt>
      <trkpt lat="47.66643" lon="6.04276">
        <ele>263.39999389648</ele>
        <time>2014-09-17T08:01:18.000Z</time>
      </trkpt>
      <trkpt lat="47.66637" lon="6.04284">
        <ele>263.39999389648</ele>
        <time>2014-09-17T08:01:21.000Z</time>
      </trkpt>
      <trkpt lat="47.66636" lon="6.04292">
        <ele>263.39999389648</ele>
        <time>2014-09-17T08:01:26.000Z</time>
      </trkpt>
      <trkpt lat="47.66635" lon="6.04296">
        <ele>263</ele>
        <time>2014-09-17T08:01:28.000Z</time>
      </trkpt>
      <trkpt lat="47.66635" lon="6.04298">
        <ele>262.39999389648</ele>
        <time>2014-09-17T08:01:29.000Z</time>
      </trkpt>
      <trkpt lat="47.66635" lon="6.043">
        <ele>262</ele>
        <time>2014-09-17T08:01:30.000Z</time>
      </trkpt>
      <trkpt lat="47.66634" lon="6.04303">
        <ele>261.60000610352</ele>
        <time>2014-09-17T08:01:31.000Z</time>
      </trkpt>
      <trkpt lat="47.66633" lon="6.04306">
        <ele>261.20001220703</ele>
        <time>2014-09-17T08:01:32.000Z</time>
      </trkpt>
      <trkpt lat="47.66631" lon="6.04315">
        <ele>261.20001220703</ele>
        <time>2014-09-17T08:01:35.000Z</time>
      </trkpt>
      <trkpt lat="47.66622" lon="6.04331">
        <ele>261.20001220703</ele>
        <time>2014-09-17T08:01:40.000Z</time>
      </trkpt>
      <trkpt lat="47.66616" lon="6.0434">
        <ele>261.20001220703</ele>
        <time>2014-09-17T08:01:43.000Z</time>
      </trkpt>
      <trkpt lat="47.66616" lon="6.04342">
        <ele>261.20001220703</ele>
        <time>2014-09-17T08:01:44.000Z</time>
      </trkpt>
      <trkpt lat="47.66616" lon="6.04345">
        <ele>261.20001220703</ele>
        <time>2014-09-17T08:01:45.000Z</time>
      </trkpt>
      <trkpt lat="47.66593" lon="6.04383">
        <ele>261.20001220703</ele>
        <time>2014-09-17T08:01:52.000Z</time>
      </trkpt>
      <trkpt lat="47.66585" lon="6.04399">
        <ele>261.20001220703</ele>
        <time>2014-09-17T08:01:59.000Z</time>
      </trkpt>
      <trkpt lat="47.6658" lon="6.04411">
        <ele>261.20001220703</ele>
        <time>2014-09-17T08:02:05.000Z</time>
      </trkpt>
      <trkpt lat="47.66574" lon="6.04425">
        <ele>261.20001220703</ele>
        <time>2014-09-17T08:02:11.000Z</time>
      </trkpt>
      <trkpt lat="47.66574" lon="6.04427">
        <ele>261.60000610352</ele>
        <time>2014-09-17T08:02:12.000Z</time>
      </trkpt>
      <trkpt lat="47.66573" lon="6.0443">
        <ele>262</ele>
        <time>2014-09-17T08:02:13.000Z</time>
      </trkpt>
      <trkpt lat="47.66573" lon="6.04432">
        <ele>262.79998779297</ele>
        <time>2014-09-17T08:02:14.000Z</time>
      </trkpt>
      <trkpt lat="47.66572" lon="6.04434">
        <ele>263.20001220703</ele>
        <time>2014-09-17T08:02:15.000Z</time>
      </trkpt>
      <trkpt lat="47.66568" lon="6.04447">
        <ele>263.20001220703</ele>
        <time>2014-09-17T08:02:19.000Z</time>
      </trkpt>
      <trkpt lat="47.66563" lon="6.04463">
        <ele>263.20001220703</ele>
        <time>2014-09-17T08:02:25.000Z</time>
      </trkpt>
      <trkpt lat="47.66553" lon="6.04481">
        <ele>263.20001220703</ele>
        <time>2014-09-17T08:02:30.000Z</time>
      </trkpt>
      <trkpt lat="47.66543" lon="6.04508">
        <ele>263.20001220703</ele>
        <time>2014-09-17T08:02:35.000Z</time>
      </trkpt>
      <trkpt lat="47.6654" lon="6.04514">
        <ele>263.20001220703</ele>
        <time>2014-09-17T08:02:36.000Z</time>
      </trkpt>
      <trkpt lat="47.66537" lon="6.04521">
        <ele>262.79998779297</ele>
        <time>2014-09-17T08:02:37.000Z</time>
      </trkpt>
      <trkpt lat="47.66534" lon="6.04528">
        <ele>262.39999389648</ele>
        <time>2014-09-17T08:02:38.000Z</time>
      </trkpt>
      <trkpt lat="47.6653" lon="6.04535">
        <ele>261.39999389648</ele>
        <time>2014-09-17T08:02:39.000Z</time>
      </trkpt>
      <trkpt lat="47.66528" lon="6.04541">
        <ele>260.79998779297</ele>
        <time>2014-09-17T08:02:40.000Z</time>
      </trkpt>
      <trkpt lat="47.66519" lon="6.04557">
        <ele>260.39999389648</ele>
        <time>2014-09-17T08:02:43.000Z</time>
      </trkpt>
      <trkpt lat="47.66516" lon="6.04564">
        <ele>260</ele>
        <time>2014-09-17T08:02:44.000Z</time>
      </trkpt>
      <trkpt lat="47.66514" lon="6.0457">
        <ele>259.60000610352</ele>
        <time>2014-09-17T08:02:45.000Z</time>
      </trkpt>
      <trkpt lat="47.66511" lon="6.04575">
        <ele>259.20001220703</ele>
        <time>2014-09-17T08:02:46.000Z</time>
      </trkpt>
      <trkpt lat="47.6651" lon="6.04581">
        <ele>258.79998779297</ele>
        <time>2014-09-17T08:02:47.000Z</time>
      </trkpt>
      <trkpt lat="47.66507" lon="6.04597">
        <ele>258.79998779297</ele>
        <time>2014-09-17T08:02:50.000Z</time>
      </trkpt>
      <trkpt lat="47.66508" lon="6.04601">
        <ele>258.79998779297</ele>
        <time>2014-09-17T08:02:51.000Z</time>
      </trkpt>
      <trkpt lat="47.66514" lon="6.04605">
        <ele>258.79998779297</ele>
        <time>2014-09-17T08:02:54.000Z</time>
      </trkpt>
      <trkpt lat="47.66521" lon="6.0461">
        <ele>258.79998779297</ele>
        <time>2014-09-17T08:02:58.000Z</time>
      </trkpt>
      <trkpt lat="47.66523" lon="6.04611">
        <ele>258.79998779297</ele>
        <time>2014-09-17T08:02:59.000Z</time>
      </trkpt>
      <trkpt lat="47.66537" lon="6.04616">
        <ele>258.79998779297</ele>
        <time>2014-09-17T08:03:06.000Z</time>
      </trkpt>
      <trkpt lat="47.66549" lon="6.04621">
        <ele>258.79998779297</ele>
        <time>2014-09-17T08:03:14.000Z</time>
      </trkpt>
      <trkpt lat="47.66559" lon="6.04625">
        <ele>258.79998779297</ele>
        <time>2014-09-17T08:03:20.000Z</time>
      </trkpt>
      <trkpt lat="47.66563" lon="6.04627">
        <ele>259.20001220703</ele>
        <time>2014-09-17T08:03:22.000Z</time>
      </trkpt>
      <trkpt lat="47.66564" lon="6.04628">
        <ele>259.60000610352</ele>
        <time>2014-09-17T08:03:23.000Z</time>
      </trkpt>
      <trkpt lat="47.66566" lon="6.04629">
        <ele>260</ele>
        <time>2014-09-17T08:03:24.000Z</time>
      </trkpt>
      <trkpt lat="47.66567" lon="6.0463">
        <ele>260.39999389648</ele>
        <time>2014-09-17T08:03:25.000Z</time>
      </trkpt>
      <trkpt lat="47.66568" lon="6.0463">
        <ele>260.79998779297</ele>
        <time>2014-09-17T08:03:26.000Z</time>
      </trkpt>
      <trkpt lat="47.6658" lon="6.04632">
        <ele>260.79998779297</ele>
        <time>2014-09-17T08:03:33.000Z</time>
      </trkpt>
      <trkpt lat="47.66585" lon="6.04634">
        <ele>260.79998779297</ele>
        <time>2014-09-17T08:03:36.000Z</time>
      </trkpt>
      <trkpt lat="47.66589" lon="6.04636">
        <ele>261.20001220703</ele>
        <time>2014-09-17T08:03:38.000Z</time>
      </trkpt>
      <trkpt lat="47.66591" lon="6.04636">
        <ele>261.60000610352</ele>
        <time>2014-09-17T08:03:39.000Z</time>
      </trkpt>
      <trkpt lat="47.66593" lon="6.04637">
        <ele>262</ele>
        <time>2014-09-17T08:03:40.000Z</time>
      </trkpt>
      <trkpt lat="47.66594" lon="6.04638">
        <ele>262.39999389648</ele>
        <time>2014-09-17T08:03:41.000Z</time>
      </trkpt>
      <trkpt lat="47.66596" lon="6.04638">
        <ele>262.79998779297</ele>
        <time>2014-09-17T08:03:42.000Z</time>
      </trkpt>
      <trkpt lat="47.666" lon="6.04641">
        <ele>262.79998779297</ele>
        <time>2014-09-17T08:03:45.000Z</time>
      </trkpt>
      <trkpt lat="47.66608" lon="6.04646">
        <ele>262.79998779297</ele>
        <time>2014-09-17T08:03:49.000Z</time>
      </trkpt>
      <trkpt lat="47.66612" lon="6.04649">
        <ele>262.79998779297</ele>
        <time>2014-09-17T08:03:51.000Z</time>
      </trkpt>
      <trkpt lat="47.66618" lon="6.04652">
        <ele>262.79998779297</ele>
        <time>2014-09-17T08:03:55.000Z</time>
      </trkpt>
      <trkpt lat="47.66622" lon="6.04655">
        <ele>262.79998779297</ele>
        <time>2014-09-17T08:03:57.000Z</time>
      </trkpt>
      <trkpt lat="47.66628" lon="6.04657">
        <ele>263.20001220703</ele>
        <time>2014-09-17T08:04:01.000Z</time>
      </trkpt>
      <trkpt lat="47.6663" lon="6.04658">
        <ele>263.60000610352</ele>
        <time>2014-09-17T08:04:02.000Z</time>
      </trkpt>
      <trkpt lat="47.66632" lon="6.04658">
        <ele>264</ele>
        <time>2014-09-17T08:04:03.000Z</time>
      </trkpt>
      <trkpt lat="47.66635" lon="6.04658">
        <ele>264.39999389648</ele>
        <time>2014-09-17T08:04:04.000Z</time>
      </trkpt>
      <trkpt lat="47.66637" lon="6.04659">
        <ele>264.79998779297</ele>
        <time>2014-09-17T08:04:05.000Z</time>
      </trkpt>
      <trkpt lat="47.66645" lon="6.0466">
        <ele>264.79998779297</ele>
        <time>2014-09-17T08:04:09.000Z</time>
      </trkpt>
      <trkpt lat="47.66653" lon="6.04663">
        <ele>264.79998779297</ele>
        <time>2014-09-17T08:04:14.000Z</time>
      </trkpt>
      <trkpt lat="47.66656" lon="6.04664">
        <ele>264.79998779297</ele>
        <time>2014-09-17T08:04:16.000Z</time>
      </trkpt>
      <trkpt lat="47.6666" lon="6.04666">
        <ele>264.79998779297</ele>
        <time>2014-09-17T08:04:19.000Z</time>
      </trkpt>
      <trkpt lat="47.66663" lon="6.04669">
        <ele>264.79998779297</ele>
        <time>2014-09-17T08:04:23.000Z</time>
      </trkpt>
      <trkpt lat="47.66656" lon="6.04682">
        <ele>264.79998779297</ele>
        <time>2014-09-17T08:04:44.000Z</time>
      </trkpt>
      <trkpt lat="47.66648" lon="6.04692">
        <ele>264.79998779297</ele>
        <time>2014-09-17T08:04:49.000Z</time>
      </trkpt>
      <trkpt lat="47.66646" lon="6.04695">
        <ele>264.79998779297</ele>
        <time>2014-09-17T08:04:50.000Z</time>
      </trkpt>
      <trkpt lat="47.66637" lon="6.047">
        <ele>264.79998779297</ele>
        <time>2014-09-17T08:04:55.000Z</time>
      </trkpt>
      <trkpt lat="47.66626" lon="6.04704">
        <ele>264.79998779297</ele>
        <time>2014-09-17T08:05:00.000Z</time>
      </trkpt>
      <trkpt lat="47.66625" lon="6.04707">
        <ele>264.79998779297</ele>
        <time>2014-09-17T08:05:01.000Z</time>
      </trkpt>
      <trkpt lat="47.66625" lon="6.04711">
        <ele>264.39999389648</ele>
        <time>2014-09-17T08:05:02.000Z</time>
      </trkpt>
      <trkpt lat="47.66623" lon="6.04716">
        <ele>264</ele>
        <time>2014-09-17T08:05:03.000Z</time>
      </trkpt>
      <trkpt lat="47.66622" lon="6.04721">
        <ele>263.60000610352</ele>
        <time>2014-09-17T08:05:04.000Z</time>
      </trkpt>
      <trkpt lat="47.6662" lon="6.04726">
        <ele>263.20001220703</ele>
        <time>2014-09-17T08:05:05.000Z</time>
      </trkpt>
      <trkpt lat="47.66619" lon="6.0473">
        <ele>262.79998779297</ele>
        <time>2014-09-17T08:05:06.000Z</time>
      </trkpt>
      <trkpt lat="47.66612" lon="6.04748">
        <ele>262.39999389648</ele>
        <time>2014-09-17T08:05:10.000Z</time>
      </trkpt>
      <trkpt lat="47.66611" lon="6.04754">
        <ele>262</ele>
        <time>2014-09-17T08:05:11.000Z</time>
      </trkpt>
      <trkpt lat="47.66611" lon="6.04759">
        <ele>261.60000610352</ele>
        <time>2014-09-17T08:05:12.000Z</time>
      </trkpt>
      <trkpt lat="47.6661" lon="6.04765">
        <ele>261.20001220703</ele>
        <time>2014-09-17T08:05:13.000Z</time>
      </trkpt>
      <trkpt lat="47.66609" lon="6.04769">
        <ele>260.60000610352</ele>
        <time>2014-09-17T08:05:14.000Z</time>
      </trkpt>
      <trkpt lat="47.66607" lon="6.04773">
        <ele>260.60000610352</ele>
        <time>2014-09-17T08:05:15.000Z</time>
      </trkpt>
      <trkpt lat="47.66605" lon="6.04777">
        <ele>260.20001220703</ele>
        <time>2014-09-17T08:05:16.000Z</time>
      </trkpt>
      <trkpt lat="47.66603" lon="6.04781">
        <ele>259.79998779297</ele>
        <time>2014-09-17T08:05:17.000Z</time>
      </trkpt>
      <trkpt lat="47.66602" lon="6.04785">
        <ele>259.39999389648</ele>
        <time>2014-09-17T08:05:18.000Z</time>
      </trkpt>
      <trkpt lat="47.66601" lon="6.04788">
        <ele>259</ele>
        <time>2014-09-17T08:05:19.000Z</time>
      </trkpt>
      <trkpt lat="47.666" lon="6.04791">
        <ele>258.60000610352</ele>
        <time>2014-09-17T08:05:20.000Z</time>
      </trkpt>
      <trkpt lat="47.66599" lon="6.04794">
        <ele>258.60000610352</ele>
        <time>2014-09-17T08:05:21.000Z</time>
      </trkpt>
      <trkpt lat="47.66595" lon="6.04808">
        <ele>258.20001220703</ele>
        <time>2014-09-17T08:05:25.000Z</time>
      </trkpt>
      <trkpt lat="47.66594" lon="6.04812">
        <ele>257.79998779297</ele>
        <time>2014-09-17T08:05:26.000Z</time>
      </trkpt>
      <trkpt lat="47.66593" lon="6.04815">
        <ele>257.39999389648</ele>
        <time>2014-09-17T08:05:27.000Z</time>
      </trkpt>
      <trkpt lat="47.66593" lon="6.04818">
        <ele>257</ele>
        <time>2014-09-17T08:05:28.000Z</time>
      </trkpt>
      <trkpt lat="47.66591" lon="6.04823">
        <ele>256.60000610352</ele>
        <time>2014-09-17T08:05:29.000Z</time>
      </trkpt>
      <trkpt lat="47.66586" lon="6.04835">
        <ele>256.60000610352</ele>
        <time>2014-09-17T08:05:31.000Z</time>
      </trkpt>
      <trkpt lat="47.66583" lon="6.0484">
        <ele>256.20001220703</ele>
        <time>2014-09-17T08:05:32.000Z</time>
      </trkpt>
      <trkpt lat="47.66581" lon="6.04845">
        <ele>255.80000305176</ele>
        <time>2014-09-17T08:05:33.000Z</time>
      </trkpt>
      <trkpt lat="47.66579" lon="6.04851">
        <ele>255.39999389648</ele>
        <time>2014-09-17T08:05:34.000Z</time>
      </trkpt>
      <trkpt lat="47.66577" lon="6.04857">
        <ele>255</ele>
        <time>2014-09-17T08:05:35.000Z</time>
      </trkpt>
      <trkpt lat="47.66574" lon="6.04864">
        <ele>254.60000610352</ele>
        <time>2014-09-17T08:05:36.000Z</time>
      </trkpt>
      <trkpt lat="47.66571" lon="6.04869">
        <ele>254</ele>
        <time>2014-09-17T08:05:37.000Z</time>
      </trkpt>
      <trkpt lat="47.66568" lon="6.04875">
        <ele>253.60000610352</ele>
        <time>2014-09-17T08:05:38.000Z</time>
      </trkpt>
      <trkpt lat="47.66565" lon="6.0488">
        <ele>253.19999694824</ele>
        <time>2014-09-17T08:05:39.000Z</time>
      </trkpt>
      <trkpt lat="47.66562" lon="6.04886">
        <ele>252.80000305176</ele>
        <time>2014-09-17T08:05:40.000Z</time>
      </trkpt>
      <trkpt lat="47.66559" lon="6.04892">
        <ele>252.19999694824</ele>
        <time>2014-09-17T08:05:41.000Z</time>
      </trkpt>
      <trkpt lat="47.66555" lon="6.04897">
        <ele>251.80000305176</ele>
        <time>2014-09-17T08:05:42.000Z</time>
      </trkpt>
      <trkpt lat="47.66551" lon="6.04902">
        <ele>251.19999694824</ele>
        <time>2014-09-17T08:05:43.000Z</time>
      </trkpt>
      <trkpt lat="47.66548" lon="6.04907">
        <ele>250.60000610352</ele>
        <time>2014-09-17T08:05:44.000Z</time>
      </trkpt>
      <trkpt lat="47.66545" lon="6.04912">
        <ele>250.19999694824</ele>
        <time>2014-09-17T08:05:45.000Z</time>
      </trkpt>
      <trkpt lat="47.66539" lon="6.0492">
        <ele>250.19999694824</ele>
        <time>2014-09-17T08:05:47.000Z</time>
      </trkpt>
      <trkpt lat="47.66534" lon="6.04927">
        <ele>249.80000305176</ele>
        <time>2014-09-17T08:05:49.000Z</time>
      </trkpt>
      <trkpt lat="47.66531" lon="6.04931">
        <ele>249.19999694824</ele>
        <time>2014-09-17T08:05:50.000Z</time>
      </trkpt>
      <trkpt lat="47.66528" lon="6.04935">
        <ele>248.80000305176</ele>
        <time>2014-09-17T08:05:51.000Z</time>
      </trkpt>
      <trkpt lat="47.66525" lon="6.0494">
        <ele>248.39999389648</ele>
        <time>2014-09-17T08:05:52.000Z</time>
      </trkpt>
      <trkpt lat="47.66523" lon="6.04945">
        <ele>248</ele>
        <time>2014-09-17T08:05:53.000Z</time>
      </trkpt>
      <trkpt lat="47.66516" lon="6.04959">
        <ele>248</ele>
        <time>2014-09-17T08:05:56.000Z</time>
      </trkpt>
      <trkpt lat="47.66514" lon="6.04963">
        <ele>247</ele>
        <time>2014-09-17T08:05:57.000Z</time>
      </trkpt>
      <trkpt lat="47.66512" lon="6.04966">
        <ele>246.60000610352</ele>
        <time>2014-09-17T08:05:58.000Z</time>
      </trkpt>
      <trkpt lat="47.66511" lon="6.04969">
        <ele>246.19999694824</ele>
        <time>2014-09-17T08:05:59.000Z</time>
      </trkpt>
      <trkpt lat="47.66509" lon="6.04972">
        <ele>245.80000305176</ele>
        <time>2014-09-17T08:06:00.000Z</time>
      </trkpt>
      <trkpt lat="47.66508" lon="6.04975">
        <ele>245.80000305176</ele>
        <time>2014-09-17T08:06:01.000Z</time>
      </trkpt>
      <trkpt lat="47.66505" lon="6.04981">
        <ele>245.39999389648</ele>
        <time>2014-09-17T08:06:03.000Z</time>
      </trkpt>
      <trkpt lat="47.66503" lon="6.04984">
        <ele>245</ele>
        <time>2014-09-17T08:06:04.000Z</time>
      </trkpt>
      <trkpt lat="47.66501" lon="6.04987">
        <ele>244.60000610352</ele>
        <time>2014-09-17T08:06:05.000Z</time>
      </trkpt>
      <trkpt lat="47.665" lon="6.04988">
        <ele>244.19999694824</ele>
        <time>2014-09-17T08:06:06.000Z</time>
      </trkpt>
      <trkpt lat="47.66499" lon="6.0499">
        <ele>243.80000305176</ele>
        <time>2014-09-17T08:06:07.000Z</time>
      </trkpt>
      <trkpt lat="47.66498" lon="6.04992">
        <ele>243.80000305176</ele>
        <time>2014-09-17T08:06:10.000Z</time>
      </trkpt>
      <trkpt lat="47.66495" lon="6.04995">
        <ele>243.80000305176</ele>
        <time>2014-09-17T08:06:23.000Z</time>
      </trkpt>
      <trkpt lat="47.66494" lon="6.04998">
        <ele>243.80000305176</ele>
        <time>2014-09-17T08:06:24.000Z</time>
      </trkpt>
      <trkpt lat="47.66491" lon="6.05004">
        <ele>243.39999389648</ele>
        <time>2014-09-17T08:06:26.000Z</time>
      </trkpt>
      <trkpt lat="47.6649" lon="6.05006">
        <ele>243</ele>
        <time>2014-09-17T08:06:27.000Z</time>
      </trkpt>
      <trkpt lat="47.66489" lon="6.05008">
        <ele>242.60000610352</ele>
        <time>2014-09-17T08:06:28.000Z</time>
      </trkpt>
      <trkpt lat="47.66488" lon="6.05008">
        <ele>242.19999694824</ele>
        <time>2014-09-17T08:06:29.000Z</time>
      </trkpt>
      <trkpt lat="47.66489" lon="6.0501">
        <ele>241.80000305176</ele>
        <time>2014-09-17T08:06:30.000Z</time>
      </trkpt>
      <trkpt lat="47.66489" lon="6.05011">
        <ele>241.19999694824</ele>
        <time>2014-09-17T08:06:31.000Z</time>
      </trkpt>
      <trkpt lat="47.6649" lon="6.05012">
        <ele>240.80000305176</ele>
        <time>2014-09-17T08:06:32.000Z</time>
      </trkpt>
      <trkpt lat="47.6649" lon="6.05013">
        <ele>240.39999389648</ele>
        <time>2014-09-17T08:06:33.000Z</time>
      </trkpt>
      <trkpt lat="47.6649" lon="6.05013">
        <ele>240</ele>
        <time>2014-09-17T08:06:34.000Z</time>
      </trkpt>
      <trkpt lat="47.66489" lon="6.05015">
        <ele>239.60000610352</ele>
        <time>2014-09-17T08:06:35.000Z</time>
      </trkpt>
      <trkpt lat="47.66483" lon="6.05022">
        <ele>239.60000610352</ele>
        <time>2014-09-17T08:06:38.000Z</time>
      </trkpt>
      <trkpt lat="47.6648" lon="6.05033">
        <ele>239.60000610352</ele>
        <time>2014-09-17T08:06:41.000Z</time>
      </trkpt>
      <trkpt lat="47.66479" lon="6.05038">
        <ele>239.60000610352</ele>
        <time>2014-09-17T08:06:43.000Z</time>
      </trkpt>
      <trkpt lat="47.66479" lon="6.05041">
        <ele>239.60000610352</ele>
        <time>2014-09-17T08:06:46.000Z</time>
      </trkpt>
      <trkpt lat="47.66434" lon="6.05105">
        <ele>248.80000305176</ele>
        <time>2014-09-17T08:08:10.000Z</time>
      </trkpt>
      <trkpt lat="47.66432" lon="6.05107">
        <ele>249.19999694824</ele>
        <time>2014-09-17T08:08:11.000Z</time>
      </trkpt>
      <trkpt lat="47.66431" lon="6.05109">
        <ele>249.60000610352</ele>
        <time>2014-09-17T08:08:12.000Z</time>
      </trkpt>
      <trkpt lat="47.6643" lon="6.05111">
        <ele>250</ele>
        <time>2014-09-17T08:08:13.000Z</time>
      </trkpt>
      <trkpt lat="47.66426" lon="6.0512">
        <ele>250</ele>
        <time>2014-09-17T08:08:18.000Z</time>
      </trkpt>
      <trkpt lat="47.66422" lon="6.05132">
        <ele>250</ele>
        <time>2014-09-17T08:08:24.000Z</time>
      </trkpt>
      <trkpt lat="47.6642" lon="6.05134">
        <ele>250.39999389648</ele>
        <time>2014-09-17T08:08:25.000Z</time>
      </trkpt>
      <trkpt lat="47.6642" lon="6.05136">
        <ele>250.80000305176</ele>
        <time>2014-09-17T08:08:26.000Z</time>
      </trkpt>
      <trkpt lat="47.6642" lon="6.05137">
        <ele>251.19999694824</ele>
        <time>2014-09-17T08:08:27.000Z</time>
      </trkpt>
      <trkpt lat="47.66419" lon="6.05138">
        <ele>251.60000610352</ele>
        <time>2014-09-17T08:08:28.000Z</time>
      </trkpt>
      <trkpt lat="47.66412" lon="6.05152">
        <ele>252</ele>
        <time>2014-09-17T08:08:40.000Z</time>
      </trkpt>
      <trkpt lat="47.66412" lon="6.05152">
        <ele>252</ele>
        <time>2014-09-17T08:08:41.000Z</time>
      </trkpt>
      <trkpt lat="47.66411" lon="6.05154">
        <ele>252.39999389648</ele>
        <time>2014-09-17T08:08:43.000Z</time>
      </trkpt>
      <trkpt lat="47.66411" lon="6.05156">
        <ele>252.80000305176</ele>
        <time>2014-09-17T08:08:44.000Z</time>
      </trkpt>
      <trkpt lat="47.6641" lon="6.05157">
        <ele>253.39999389648</ele>
        <time>2014-09-17T08:08:45.000Z</time>
      </trkpt>
      <trkpt lat="47.6641" lon="6.05157">
        <ele>253.80000305176</ele>
        <time>2014-09-17T08:08:46.000Z</time>
      </trkpt>
      <trkpt lat="47.6638" lon="6.05217">
        <ele>258.39999389648</ele>
        <time>2014-09-17T08:09:26.000Z</time>
      </trkpt>
      <trkpt lat="47.66378" lon="6.05222">
        <ele>258.79998779297</ele>
        <time>2014-09-17T08:09:29.000Z</time>
      </trkpt>
      <trkpt lat="47.66377" lon="6.05224">
        <ele>259.20001220703</ele>
        <time>2014-09-17T08:09:30.000Z</time>
      </trkpt>
      <trkpt lat="47.66376" lon="6.05225">
        <ele>259.60000610352</ele>
        <time>2014-09-17T08:09:31.000Z</time>
      </trkpt>
      <trkpt lat="47.66375" lon="6.05226">
        <ele>260</ele>
        <time>2014-09-17T08:09:32.000Z</time>
      </trkpt>
      <trkpt lat="47.66375" lon="6.05227">
        <ele>260.39999389648</ele>
        <time>2014-09-17T08:09:33.000Z</time>
      </trkpt>
      <trkpt lat="47.66372" lon="6.05228">
        <ele>260.39999389648</ele>
        <time>2014-09-17T08:09:36.000Z</time>
      </trkpt>
      <trkpt lat="47.66356" lon="6.05257">
        <ele>262.60000610352</ele>
        <time>2014-09-17T08:09:56.000Z</time>
      </trkpt>
      <trkpt lat="47.66357" lon="6.05259">
        <ele>262.60000610352</ele>
        <time>2014-09-17T08:09:57.000Z</time>
      </trkpt>
      <trkpt lat="47.66357" lon="6.05266">
        <ele>262.60000610352</ele>
        <time>2014-09-17T08:10:02.000Z</time>
      </trkpt>
      <trkpt lat="47.66356" lon="6.0527">
        <ele>262.60000610352</ele>
        <time>2014-09-17T08:10:05.000Z</time>
      </trkpt>
      <trkpt lat="47.6635" lon="6.05282">
        <ele>262.60000610352</ele>
        <time>2014-09-17T08:11:01.000Z</time>
      </trkpt>
      <trkpt lat="47.66349" lon="6.05283">
        <ele>262.60000610352</ele>
        <time>2014-09-17T08:11:02.000Z</time>
      </trkpt>
      <trkpt lat="47.66345" lon="6.0529">
        <ele>263</ele>
        <time>2014-09-17T08:11:05.000Z</time>
      </trkpt>
      <trkpt lat="47.66345" lon="6.05292">
        <ele>263.39999389648</ele>
        <time>2014-09-17T08:11:06.000Z</time>
      </trkpt>
      <trkpt lat="47.66343" lon="6.05294">
        <ele>263.79998779297</ele>
        <time>2014-09-17T08:11:07.000Z</time>
      </trkpt>
      <trkpt lat="47.66341" lon="6.05298">
        <ele>264.20001220703</ele>
        <time>2014-09-17T08:11:08.000Z</time>
      </trkpt>
      <trkpt lat="47.66339" lon="6.05302">
        <ele>264.60000610352</ele>
        <time>2014-09-17T08:11:09.000Z</time>
      </trkpt>
      <trkpt lat="47.66334" lon="6.0531">
        <ele>264.60000610352</ele>
        <time>2014-09-17T08:11:12.000Z</time>
      </trkpt>
      <trkpt lat="47.6633" lon="6.05322">
        <ele>264.60000610352</ele>
        <time>2014-09-17T08:11:17.000Z</time>
      </trkpt>
      <trkpt lat="47.66327" lon="6.05327">
        <ele>264.60000610352</ele>
        <time>2014-09-17T08:11:20.000Z</time>
      </trkpt>
      <trkpt lat="47.66324" lon="6.05334">
        <ele>264.60000610352</ele>
        <time>2014-09-17T08:11:22.000Z</time>
      </trkpt>
      <trkpt lat="47.66317" lon="6.05345">
        <ele>264.60000610352</ele>
        <time>2014-09-17T08:11:26.000Z</time>
      </trkpt>
      <trkpt lat="47.66303" lon="6.0537">
        <ele>264.60000610352</ele>
        <time>2014-09-17T08:11:33.000Z</time>
      </trkpt>
      <trkpt lat="47.66289" lon="6.05401">
        <ele>264.20001220703</ele>
        <time>2014-09-17T08:11:39.000Z</time>
      </trkpt>
      <trkpt lat="47.66288" lon="6.05407">
        <ele>263.60000610352</ele>
        <time>2014-09-17T08:11:40.000Z</time>
      </trkpt>
      <trkpt lat="47.66285" lon="6.05412">
        <ele>263.20001220703</ele>
        <time>2014-09-17T08:11:41.000Z</time>
      </trkpt>
      <trkpt lat="47.66282" lon="6.05418">
        <ele>262.20001220703</ele>
        <time>2014-09-17T08:11:42.000Z</time>
      </trkpt>
      <trkpt lat="47.66273" lon="6.05435">
        <ele>262.20001220703</ele>
        <time>2014-09-17T08:11:45.000Z</time>
      </trkpt>
      <trkpt lat="47.66267" lon="6.05444">
        <ele>261.79998779297</ele>
        <time>2014-09-17T08:11:47.000Z</time>
      </trkpt>
      <trkpt lat="47.66264" lon="6.05448">
        <ele>261.39999389648</ele>
        <time>2014-09-17T08:11:48.000Z</time>
      </trkpt>
      <trkpt lat="47.66261" lon="6.05452">
        <ele>260.79998779297</ele>
        <time>2014-09-17T08:11:49.000Z</time>
      </trkpt>
      <trkpt lat="47.66258" lon="6.05455">
        <ele>260.39999389648</ele>
        <time>2014-09-17T08:11:50.000Z</time>
      </trkpt>
      <trkpt lat="47.66255" lon="6.05459">
        <ele>260</ele>
        <time>2014-09-17T08:11:51.000Z</time>
      </trkpt>
      <trkpt lat="47.66251" lon="6.0547">
        <ele>260</ele>
        <time>2014-09-17T08:11:54.000Z</time>
      </trkpt>
      <trkpt lat="47.6625" lon="6.05482">
        <ele>259.60000610352</ele>
        <time>2014-09-17T08:11:58.000Z</time>
      </trkpt>
      <trkpt lat="47.66249" lon="6.05486">
        <ele>259.20001220703</ele>
        <time>2014-09-17T08:11:59.000Z</time>
      </trkpt>
      <trkpt lat="47.66247" lon="6.05488">
        <ele>258.60000610352</ele>
        <time>2014-09-17T08:12:00.000Z</time>
      </trkpt>
      <trkpt lat="47.66246" lon="6.0549">
        <ele>258.20001220703</ele>
        <time>2014-09-17T08:12:01.000Z</time>
      </trkpt>
      <trkpt lat="47.66245" lon="6.05492">
        <ele>257.79998779297</ele>
        <time>2014-09-17T08:12:02.000Z</time>
      </trkpt>
      <trkpt lat="47.66239" lon="6.05499">
        <ele>257</ele>
        <time>2014-09-17T08:12:07.000Z</time>
      </trkpt>
      <trkpt lat="47.66237" lon="6.05501">
        <ele>256.60000610352</ele>
        <time>2014-09-17T08:12:08.000Z</time>
      </trkpt>
      <trkpt lat="47.66235" lon="6.05501">
        <ele>256</ele>
        <time>2014-09-17T08:12:09.000Z</time>
      </trkpt>
      <trkpt lat="47.66234" lon="6.05502">
        <ele>255.60000610352</ele>
        <time>2014-09-17T08:12:10.000Z</time>
      </trkpt>
      <trkpt lat="47.66231" lon="6.05506">
        <ele>255.60000610352</ele>
        <time>2014-09-17T08:12:12.000Z</time>
      </trkpt>
      <trkpt lat="47.6623" lon="6.0551">
        <ele>255.19999694824</ele>
        <time>2014-09-17T08:12:13.000Z</time>
      </trkpt>
      <trkpt lat="47.66229" lon="6.05514">
        <ele>254.80000305176</ele>
        <time>2014-09-17T08:12:14.000Z</time>
      </trkpt>
      <trkpt lat="47.66228" lon="6.05517">
        <ele>254.39999389648</ele>
        <time>2014-09-17T08:12:15.000Z</time>
      </trkpt>
      <trkpt lat="47.66227" lon="6.0552">
        <ele>254</ele>
        <time>2014-09-17T08:12:16.000Z</time>
      </trkpt>
      <trkpt lat="47.66225" lon="6.05522">
        <ele>253.60000610352</ele>
        <time>2014-09-17T08:12:17.000Z</time>
      </trkpt>
      <trkpt lat="47.66218" lon="6.05526">
        <ele>253.60000610352</ele>
        <time>2014-09-17T08:12:21.000Z</time>
      </trkpt>
      <trkpt lat="47.66218" lon="6.05533">
        <ele>253.60000610352</ele>
        <time>2014-09-17T08:12:24.000Z</time>
      </trkpt>
      <trkpt lat="47.66216" lon="6.05535">
        <ele>254</ele>
        <time>2014-09-17T08:12:25.000Z</time>
      </trkpt>
      <trkpt lat="47.66217" lon="6.05538">
        <ele>254.39999389648</ele>
        <time>2014-09-17T08:12:26.000Z</time>
      </trkpt>
      <trkpt lat="47.66217" lon="6.0554">
        <ele>254.80000305176</ele>
        <time>2014-09-17T08:12:27.000Z</time>
      </trkpt>
      <trkpt lat="47.66217" lon="6.05542">
        <ele>255.19999694824</ele>
        <time>2014-09-17T08:12:28.000Z</time>
      </trkpt>
      <trkpt lat="47.66218" lon="6.05544">
        <ele>255.60000610352</ele>
        <time>2014-09-17T08:12:29.000Z</time>
      </trkpt>
      <trkpt lat="47.66219" lon="6.05552">
        <ele>255.60000610352</ele>
        <time>2014-09-17T08:12:32.000Z</time>
      </trkpt>
      <trkpt lat="47.66218" lon="6.05556">
        <ele>256</ele>
        <time>2014-09-17T08:12:34.000Z</time>
      </trkpt>
      <trkpt lat="47.66218" lon="6.05558">
        <ele>256.39999389648</ele>
        <time>2014-09-17T08:12:35.000Z</time>
      </trkpt>
      <trkpt lat="47.66217" lon="6.0556">
        <ele>256.79998779297</ele>
        <time>2014-09-17T08:12:36.000Z</time>
      </trkpt>
      <trkpt lat="47.66216" lon="6.05562">
        <ele>257.39999389648</ele>
        <time>2014-09-17T08:12:37.000Z</time>
      </trkpt>
      <trkpt lat="47.66216" lon="6.05565">
        <ele>257.79998779297</ele>
        <time>2014-09-17T08:12:38.000Z</time>
      </trkpt>
      <trkpt lat="47.66216" lon="6.05568">
        <ele>257.79998779297</ele>
        <time>2014-09-17T08:12:39.000Z</time>
      </trkpt>
      <trkpt lat="47.66218" lon="6.05582">
        <ele>257.79998779297</ele>
        <time>2014-09-17T08:12:44.000Z</time>
      </trkpt>
      <trkpt lat="47.66219" lon="6.05584">
        <ele>257.79998779297</ele>
        <time>2014-09-17T08:12:45.000Z</time>
      </trkpt>
      <trkpt lat="47.66221" lon="6.0559">
        <ele>257.79998779297</ele>
        <time>2014-09-17T08:12:48.000Z</time>
      </trkpt>
      <trkpt lat="47.66226" lon="6.05594">
        <ele>257.79998779297</ele>
        <time>2014-09-17T08:12:51.000Z</time>
      </trkpt>
      <trkpt lat="47.66229" lon="6.05595">
        <ele>258.20001220703</ele>
        <time>2014-09-17T08:12:54.000Z</time>
      </trkpt>
      <trkpt lat="47.6623" lon="6.05595">
        <ele>258.60000610352</ele>
        <time>2014-09-17T08:12:55.000Z</time>
      </trkpt>
      <trkpt lat="47.6623" lon="6.05595">
        <ele>259</ele>
        <time>2014-09-17T08:12:56.000Z</time>
      </trkpt>
      <trkpt lat="47.66227" lon="6.05596">
        <ele>259.79998779297</ele>
        <time>2014-09-17T08:12:57.000Z</time>
      </trkpt>
      <trkpt lat="47.66219" lon="6.05602">
        <ele>259.79998779297</ele>
        <time>2014-09-17T08:13:00.000Z</time>
      </trkpt>
      <trkpt lat="47.66216" lon="6.05603">
        <ele>259.79998779297</ele>
        <time>2014-09-17T08:13:01.000Z</time>
      </trkpt>
      <trkpt lat="47.66198" lon="6.05614">
        <ele>259.79998779297</ele>
        <time>2014-09-17T08:13:06.000Z</time>
      </trkpt>
      <trkpt lat="47.66189" lon="6.05617">
        <ele>259.79998779297</ele>
        <time>2014-09-17T08:13:09.000Z</time>
      </trkpt>
      <trkpt lat="47.66174" lon="6.0562">
        <ele>259.79998779297</ele>
        <time>2014-09-17T08:13:14.000Z</time>
      </trkpt>
      <trkpt lat="47.6617" lon="6.05619">
        <ele>259.79998779297</ele>
        <time>2014-09-17T08:13:16.000Z</time>
      </trkpt>
      <trkpt lat="47.66164" lon="6.05618">
        <ele>259.79998779297</ele>
        <time>2014-09-17T08:13:19.000Z</time>
      </trkpt>
      <trkpt lat="47.66159" lon="6.05617">
        <ele>259.79998779297</ele>
        <time>2014-09-17T08:13:21.000Z</time>
      </trkpt>
      <trkpt lat="47.66146" lon="6.05618">
        <ele>259.79998779297</ele>
        <time>2014-09-17T08:13:26.000Z</time>
      </trkpt>
      <trkpt lat="47.66128" lon="6.05618">
        <ele>259.79998779297</ele>
        <time>2014-09-17T08:13:30.000Z</time>
      </trkpt>
      <trkpt lat="47.66104" lon="6.05619">
        <ele>259.79998779297</ele>
        <time>2014-09-17T08:13:35.000Z</time>
      </trkpt>
      <trkpt lat="47.66085" lon="6.05619">
        <ele>259.39999389648</ele>
        <time>2014-09-17T08:13:39.000Z</time>
      </trkpt>
      <trkpt lat="47.66079" lon="6.05619">
        <ele>259</ele>
        <time>2014-09-17T08:13:40.000Z</time>
      </trkpt>
      <trkpt lat="47.66073" lon="6.0562">
        <ele>258.60000610352</ele>
        <time>2014-09-17T08:13:41.000Z</time>
      </trkpt>
      <trkpt lat="47.66068" lon="6.05622">
        <ele>258.20001220703</ele>
        <time>2014-09-17T08:13:42.000Z</time>
      </trkpt>
      <trkpt lat="47.66062" lon="6.05624">
        <ele>257.79998779297</ele>
        <time>2014-09-17T08:13:43.000Z</time>
      </trkpt>
      <trkpt lat="47.66055" lon="6.05626">
        <ele>257.39999389648</ele>
        <time>2014-09-17T08:13:44.000Z</time>
      </trkpt>
      <trkpt lat="47.66048" lon="6.0563">
        <ele>257</ele>
        <time>2014-09-17T08:13:45.000Z</time>
      </trkpt>
      <trkpt lat="47.66042" lon="6.05633">
        <ele>256</ele>
        <time>2014-09-17T08:13:46.000Z</time>
      </trkpt>
      <trkpt lat="47.66036" lon="6.05637">
        <ele>255.60000610352</ele>
        <time>2014-09-17T08:13:47.000Z</time>
      </trkpt>
      <trkpt lat="47.66021" lon="6.05647">
        <ele>255.19999694824</ele>
        <time>2014-09-17T08:13:50.000Z</time>
      </trkpt>
      <trkpt lat="47.66015" lon="6.05651">
        <ele>254.80000305176</ele>
        <time>2014-09-17T08:13:51.000Z</time>
      </trkpt>
      <trkpt lat="47.6601" lon="6.05655">
        <ele>254.39999389648</ele>
        <time>2014-09-17T08:13:52.000Z</time>
      </trkpt>
      <trkpt lat="47.66004" lon="6.05658">
        <ele>253.80000305176</ele>
        <time>2014-09-17T08:13:53.000Z</time>
      </trkpt>
      <trkpt lat="47.65998" lon="6.05662">
        <ele>253.39999389648</ele>
        <time>2014-09-17T08:13:54.000Z</time>
      </trkpt>
      <trkpt lat="47.65986" lon="6.0567">
        <ele>253</ele>
        <time>2014-09-17T08:13:56.000Z</time>
      </trkpt>
      <trkpt lat="47.65981" lon="6.05673">
        <ele>252.60000610352</ele>
        <time>2014-09-17T08:13:57.000Z</time>
      </trkpt>
      <trkpt lat="47.65975" lon="6.05675">
        <ele>252.19999694824</ele>
        <time>2014-09-17T08:13:58.000Z</time>
      </trkpt>
      <trkpt lat="47.6597" lon="6.05677">
        <ele>251.80000305176</ele>
        <time>2014-09-17T08:13:59.000Z</time>
      </trkpt>
      <trkpt lat="47.65964" lon="6.05677">
        <ele>251.39999389648</ele>
        <time>2014-09-17T08:14:00.000Z</time>
      </trkpt>
      <trkpt lat="47.65959" lon="6.05677">
        <ele>251</ele>
        <time>2014-09-17T08:14:01.000Z</time>
      </trkpt>
      <trkpt lat="47.65954" lon="6.05677">
        <ele>250.60000610352</ele>
        <time>2014-09-17T08:14:02.000Z</time>
      </trkpt>
      <trkpt lat="47.65948" lon="6.05677">
        <ele>250.19999694824</ele>
        <time>2014-09-17T08:14:03.000Z</time>
      </trkpt>
      <trkpt lat="47.65944" lon="6.05676">
        <ele>249.80000305176</ele>
        <time>2014-09-17T08:14:04.000Z</time>
      </trkpt>
      <trkpt lat="47.65939" lon="6.05676">
        <ele>249.39999389648</ele>
        <time>2014-09-17T08:14:05.000Z</time>
      </trkpt>
      <trkpt lat="47.65915" lon="6.05677">
        <ele>249.39999389648</ele>
        <time>2014-09-17T08:14:10.000Z</time>
      </trkpt>
      <trkpt lat="47.65909" lon="6.05678">
        <ele>248.60000610352</ele>
        <time>2014-09-17T08:14:11.000Z</time>
      </trkpt>
      <trkpt lat="47.65903" lon="6.05679">
        <ele>248.19999694824</ele>
        <time>2014-09-17T08:14:12.000Z</time>
      </trkpt>
      <trkpt lat="47.65897" lon="6.05679">
        <ele>247.80000305176</ele>
        <time>2014-09-17T08:14:13.000Z</time>
      </trkpt>
      <trkpt lat="47.6589" lon="6.0568">
        <ele>247.39999389648</ele>
        <time>2014-09-17T08:14:14.000Z</time>
      </trkpt>
      <trkpt lat="47.65884" lon="6.0568">
        <ele>247.39999389648</ele>
        <time>2014-09-17T08:14:15.000Z</time>
      </trkpt>
      <trkpt lat="47.65877" lon="6.0568">
        <ele>246.80000305176</ele>
        <time>2014-09-17T08:14:16.000Z</time>
      </trkpt>
      <trkpt lat="47.65869" lon="6.05681">
        <ele>246.39999389648</ele>
        <time>2014-09-17T08:14:17.000Z</time>
      </trkpt>
      <trkpt lat="47.65862" lon="6.05683">
        <ele>245.80000305176</ele>
        <time>2014-09-17T08:14:18.000Z</time>
      </trkpt>
      <trkpt lat="47.65855" lon="6.05686">
        <ele>245.39999389648</ele>
        <time>2014-09-17T08:14:19.000Z</time>
      </trkpt>
      <trkpt lat="47.65849" lon="6.0569">
        <ele>244.80000305176</ele>
        <time>2014-09-17T08:14:20.000Z</time>
      </trkpt>
      <trkpt lat="47.65843" lon="6.05694">
        <ele>244.39999389648</ele>
        <time>2014-09-17T08:14:21.000Z</time>
      </trkpt>
      <trkpt lat="47.65838" lon="6.05698">
        <ele>243.80000305176</ele>
        <time>2014-09-17T08:14:22.000Z</time>
      </trkpt>
      <trkpt lat="47.65832" lon="6.05702">
        <ele>243.39999389648</ele>
        <time>2014-09-17T08:14:23.000Z</time>
      </trkpt>
      <trkpt lat="47.65828" lon="6.05705">
        <ele>242.80000305176</ele>
        <time>2014-09-17T08:14:24.000Z</time>
      </trkpt>
      <trkpt lat="47.65823" lon="6.05709">
        <ele>242.39999389648</ele>
        <time>2014-09-17T08:14:25.000Z</time>
      </trkpt>
      <trkpt lat="47.65818" lon="6.05712">
        <ele>242</ele>
        <time>2014-09-17T08:14:26.000Z</time>
      </trkpt>
      <trkpt lat="47.65812" lon="6.05715">
        <ele>241.60000610352</ele>
        <time>2014-09-17T08:14:27.000Z</time>
      </trkpt>
      <trkpt lat="47.65807" lon="6.05719">
        <ele>241.19999694824</ele>
        <time>2014-09-17T08:14:28.000Z</time>
      </trkpt>
      <trkpt lat="47.65801" lon="6.05723">
        <ele>240.80000305176</ele>
        <time>2014-09-17T08:14:29.000Z</time>
      </trkpt>
      <trkpt lat="47.65795" lon="6.05727">
        <ele>240.39999389648</ele>
        <time>2014-09-17T08:14:30.000Z</time>
      </trkpt>
      <trkpt lat="47.65789" lon="6.05732">
        <ele>239.80000305176</ele>
        <time>2014-09-17T08:14:31.000Z</time>
      </trkpt>
      <trkpt lat="47.65783" lon="6.05736">
        <ele>239.39999389648</ele>
        <time>2014-09-17T08:14:32.000Z</time>
      </trkpt>
      <trkpt lat="47.65776" lon="6.05741">
        <ele>239</ele>
        <time>2014-09-17T08:14:33.000Z</time>
      </trkpt>
      <trkpt lat="47.6577" lon="6.05747">
        <ele>238.60000610352</ele>
        <time>2014-09-17T08:14:34.000Z</time>
      </trkpt>
      <trkpt lat="47.65764" lon="6.05753">
        <ele>238.19999694824</ele>
        <time>2014-09-17T08:14:35.000Z</time>
      </trkpt>
      <trkpt lat="47.65759" lon="6.05759">
        <ele>238.19999694824</ele>
        <time>2014-09-17T08:14:36.000Z</time>
      </trkpt>
      <trkpt lat="47.65742" lon="6.0578">
        <ele>238.19999694824</ele>
        <time>2014-09-17T08:14:40.000Z</time>
      </trkpt>
      <trkpt lat="47.65736" lon="6.05783">
        <ele>238.19999694824</ele>
        <time>2014-09-17T08:14:41.000Z</time>
      </trkpt>
      <trkpt lat="47.65731" lon="6.05784">
        <ele>237.80000305176</ele>
        <time>2014-09-17T08:14:42.000Z</time>
      </trkpt>
      <trkpt lat="47.65724" lon="6.05785">
        <ele>237.39999389648</ele>
        <time>2014-09-17T08:14:43.000Z</time>
      </trkpt>
      <trkpt lat="47.65718" lon="6.05785">
        <ele>236.80000305176</ele>
        <time>2014-09-17T08:14:44.000Z</time>
      </trkpt>
      <trkpt lat="47.65712" lon="6.05785">
        <ele>236.39999389648</ele>
        <time>2014-09-17T08:14:45.000Z</time>
      </trkpt>
      <trkpt lat="47.65706" lon="6.05784">
        <ele>236</ele>
        <time>2014-09-17T08:14:46.000Z</time>
      </trkpt>
      <trkpt lat="47.65674" lon="6.05785">
        <ele>236</ele>
        <time>2014-09-17T08:14:52.000Z</time>
      </trkpt>
      <trkpt lat="47.65651" lon="6.05786">
        <ele>236</ele>
        <time>2014-09-17T08:14:57.000Z</time>
      </trkpt>
      <trkpt lat="47.65643" lon="6.05792">
        <ele>236</ele>
        <time>2014-09-17T08:14:59.000Z</time>
      </trkpt>
      <trkpt lat="47.65637" lon="6.058">
        <ele>236</ele>
        <time>2014-09-17T08:15:01.000Z</time>
      </trkpt>
      <trkpt lat="47.65626" lon="6.05817">
        <ele>236</ele>
        <time>2014-09-17T08:15:05.000Z</time>
      </trkpt>
      <trkpt lat="47.6562" lon="6.05835">
        <ele>236</ele>
        <time>2014-09-17T08:15:10.000Z</time>
      </trkpt>
      <trkpt lat="47.65619" lon="6.05848">
        <ele>236</ele>
        <time>2014-09-17T08:15:15.000Z</time>
      </trkpt>
      <trkpt lat="47.6562" lon="6.05851">
        <ele>236</ele>
        <time>2014-09-17T08:15:16.000Z</time>
      </trkpt>
      <trkpt lat="47.65622" lon="6.0586">
        <ele>236.39999389648</ele>
        <time>2014-09-17T08:15:19.000Z</time>
      </trkpt>
      <trkpt lat="47.65623" lon="6.05863">
        <ele>236.80000305176</ele>
        <time>2014-09-17T08:15:20.000Z</time>
      </trkpt>
      <trkpt lat="47.65624" lon="6.05866">
        <ele>237.19999694824</ele>
        <time>2014-09-17T08:15:21.000Z</time>
      </trkpt>
      <trkpt lat="47.65625" lon="6.05868">
        <ele>237.60000610352</ele>
        <time>2014-09-17T08:15:22.000Z</time>
      </trkpt>
      <trkpt lat="47.65627" lon="6.0587">
        <ele>238</ele>
        <time>2014-09-17T08:15:23.000Z</time>
      </trkpt>
      <trkpt lat="47.65645" lon="6.05883">
        <ele>238</ele>
        <time>2014-09-17T08:15:31.000Z</time>
      </trkpt>
      <trkpt lat="47.65663" lon="6.05899">
        <ele>238</ele>
        <time>2014-09-17T08:15:38.000Z</time>
      </trkpt>
      <trkpt lat="47.6568" lon="6.05916">
        <ele>238</ele>
        <time>2014-09-17T08:15:45.000Z</time>
      </trkpt>
      <trkpt lat="47.65701" lon="6.05933">
        <ele>238</ele>
        <time>2014-09-17T08:15:52.000Z</time>
      </trkpt>
      <trkpt lat="47.65718" lon="6.05948">
        <ele>238</ele>
        <time>2014-09-17T08:15:58.000Z</time>
      </trkpt>
      <trkpt lat="47.65731" lon="6.05959">
        <ele>238</ele>
        <time>2014-09-17T08:16:03.000Z</time>
      </trkpt>
      <trkpt lat="47.65746" lon="6.05973">
        <ele>238</ele>
        <time>2014-09-17T08:16:09.000Z</time>
      </trkpt>
      <trkpt lat="47.65761" lon="6.05984">
        <ele>238</ele>
        <time>2014-09-17T08:16:15.000Z</time>
      </trkpt>
      <trkpt lat="47.65776" lon="6.05992">
        <ele>238</ele>
        <time>2014-09-17T08:16:20.000Z</time>
      </trkpt>
      <trkpt lat="47.65789" lon="6.06003">
        <ele>238</ele>
        <time>2014-09-17T08:16:25.000Z</time>
      </trkpt>
      <trkpt lat="47.65799" lon="6.0601">
        <ele>238</ele>
        <time>2014-09-17T08:16:31.000Z</time>
      </trkpt>
      <trkpt lat="47.65809" lon="6.06023">
        <ele>238</ele>
        <time>2014-09-17T08:16:36.000Z</time>
      </trkpt>
      <trkpt lat="47.65811" lon="6.06026">
        <ele>238.39999389648</ele>
        <time>2014-09-17T08:16:37.000Z</time>
      </trkpt>
      <trkpt lat="47.65814" lon="6.06029">
        <ele>238.80000305176</ele>
        <time>2014-09-17T08:16:38.000Z</time>
      </trkpt>
      <trkpt lat="47.65817" lon="6.06031">
        <ele>239.80000305176</ele>
        <time>2014-09-17T08:16:39.000Z</time>
      </trkpt>
      <trkpt lat="47.6582" lon="6.06031">
        <ele>240.19999694824</ele>
        <time>2014-09-17T08:16:40.000Z</time>
      </trkpt>
      <trkpt lat="47.65823" lon="6.06031">
        <ele>240.19999694824</ele>
        <time>2014-09-17T08:16:41.000Z</time>
      </trkpt>
      <trkpt lat="47.65826" lon="6.06031">
        <ele>240.19999694824</ele>
        <time>2014-09-17T08:16:42.000Z</time>
      </trkpt>
      <trkpt lat="47.6584" lon="6.06037">
        <ele>240.19999694824</ele>
        <time>2014-09-17T08:16:48.000Z</time>
      </trkpt>
      <trkpt lat="47.65847" lon="6.06042">
        <ele>240.19999694824</ele>
        <time>2014-09-17T08:16:54.000Z</time>
      </trkpt>
      <trkpt lat="47.6585" lon="6.06038">
        <ele>240.19999694824</ele>
        <time>2014-09-17T08:18:04.000Z</time>
      </trkpt>
      <trkpt lat="47.65848" lon="6.06035">
        <ele>240.19999694824</ele>
        <time>2014-09-17T08:18:06.000Z</time>
      </trkpt>
      <trkpt lat="47.65837" lon="6.06028">
        <ele>240.19999694824</ele>
        <time>2014-09-17T08:18:10.000Z</time>
      </trkpt>
      <trkpt lat="47.65815" lon="6.06023">
        <ele>240.19999694824</ele>
        <time>2014-09-17T08:18:16.000Z</time>
      </trkpt>
      <trkpt lat="47.65811" lon="6.0602">
        <ele>240.19999694824</ele>
        <time>2014-09-17T08:18:17.000Z</time>
      </trkpt>
      <trkpt lat="47.65806" lon="6.06011">
        <ele>240.19999694824</ele>
        <time>2014-09-17T08:18:19.000Z</time>
      </trkpt>
      <trkpt lat="47.65791" lon="6.05999">
        <ele>240.19999694824</ele>
        <time>2014-09-17T08:18:23.000Z</time>
      </trkpt>
      <trkpt lat="47.65776" lon="6.05988">
        <ele>240.19999694824</ele>
        <time>2014-09-17T08:18:27.000Z</time>
      </trkpt>
      <trkpt lat="47.65772" lon="6.05988">
        <ele>240.19999694824</ele>
        <time>2014-09-17T08:18:28.000Z</time>
      </trkpt>
      <trkpt lat="47.65769" lon="6.05992">
        <ele>240.19999694824</ele>
        <time>2014-09-17T08:18:29.000Z</time>
      </trkpt>
      <trkpt lat="47.65766" lon="6.06001">
        <ele>240.19999694824</ele>
        <time>2014-09-17T08:18:31.000Z</time>
      </trkpt>
      <trkpt lat="47.65771" lon="6.06011">
        <ele>240.19999694824</ele>
        <time>2014-09-17T08:18:34.000Z</time>
      </trkpt>
      <trkpt lat="47.65784" lon="6.06021">
        <ele>240.19999694824</ele>
        <time>2014-09-17T08:18:39.000Z</time>
      </trkpt>
      <trkpt lat="47.65788" lon="6.06026">
        <ele>240.19999694824</ele>
        <time>2014-09-17T08:18:41.000Z</time>
      </trkpt>
      <trkpt lat="47.65803" lon="6.0604">
        <ele>240.19999694824</ele>
        <time>2014-09-17T08:18:47.000Z</time>
      </trkpt>
      <trkpt lat="47.65823" lon="6.06059">
        <ele>240.19999694824</ele>
        <time>2014-09-17T08:18:56.000Z</time>
      </trkpt>
      <trkpt lat="47.65825" lon="6.0606">
        <ele>240.60000610352</ele>
        <time>2014-09-17T08:18:57.000Z</time>
      </trkpt>
      <trkpt lat="47.65828" lon="6.06062">
        <ele>241</ele>
        <time>2014-09-17T08:18:58.000Z</time>
      </trkpt>
      <trkpt lat="47.6583" lon="6.06063">
        <ele>241.39999389648</ele>
        <time>2014-09-17T08:18:59.000Z</time>
      </trkpt>
      <trkpt lat="47.65832" lon="6.06066">
        <ele>241.80000305176</ele>
        <time>2014-09-17T08:19:00.000Z</time>
      </trkpt>
      <trkpt lat="47.65834" lon="6.06069">
        <ele>242.19999694824</ele>
        <time>2014-09-17T08:19:01.000Z</time>
      </trkpt>
      <trkpt lat="47.65845" lon="6.06079">
        <ele>242.19999694824</ele>
        <time>2014-09-17T08:19:06.000Z</time>
      </trkpt>
      <trkpt lat="47.65856" lon="6.06088">
        <ele>242.19999694824</ele>
        <time>2014-09-17T08:19:11.000Z</time>
      </trkpt>
      <trkpt lat="47.65868" lon="6.06103">
        <ele>242.60000610352</ele>
        <time>2014-09-17T08:19:18.000Z</time>
      </trkpt>
      <trkpt lat="47.6587" lon="6.06105">
        <ele>243</ele>
        <time>2014-09-17T08:19:19.000Z</time>
      </trkpt>
      <trkpt lat="47.65872" lon="6.06107">
        <ele>243.39999389648</ele>
        <time>2014-09-17T08:19:20.000Z</time>
      </trkpt>
      <trkpt lat="47.65875" lon="6.0611">
        <ele>243.80000305176</ele>
        <time>2014-09-17T08:19:21.000Z</time>
      </trkpt>
      <trkpt lat="47.65877" lon="6.06113">
        <ele>244.19999694824</ele>
        <time>2014-09-17T08:19:22.000Z</time>
      </trkpt>
      <trkpt lat="47.65882" lon="6.0612">
        <ele>244.19999694824</ele>
        <time>2014-09-17T08:19:25.000Z</time>
      </trkpt>
      <trkpt lat="47.65896" lon="6.06143">
        <ele>244.19999694824</ele>
        <time>2014-09-17T08:19:32.000Z</time>
      </trkpt>
      <trkpt lat="47.65902" lon="6.06157">
        <ele>244.60000610352</ele>
        <time>2014-09-17T08:19:36.000Z</time>
      </trkpt>
      <trkpt lat="47.65903" lon="6.06161">
        <ele>245</ele>
        <time>2014-09-17T08:19:37.000Z</time>
      </trkpt>
      <trkpt lat="47.65905" lon="6.06164">
        <ele>245.39999389648</ele>
        <time>2014-09-17T08:19:38.000Z</time>
      </trkpt>
      <trkpt lat="47.65906" lon="6.06168">
        <ele>246</ele>
        <time>2014-09-17T08:19:39.000Z</time>
      </trkpt>
      <trkpt lat="47.65907" lon="6.06172">
        <ele>246.39999389648</ele>
        <time>2014-09-17T08:19:40.000Z</time>
      </trkpt>
      <trkpt lat="47.65915" lon="6.06196">
        <ele>246.39999389648</ele>
        <time>2014-09-17T08:19:46.000Z</time>
      </trkpt>
      <trkpt lat="47.65929" lon="6.06234">
        <ele>246.39999389648</ele>
        <time>2014-09-17T08:19:54.000Z</time>
      </trkpt>
      <trkpt lat="47.65937" lon="6.06257">
        <ele>246.39999389648</ele>
        <time>2014-09-17T08:19:58.000Z</time>
      </trkpt>
      <trkpt lat="47.65939" lon="6.06272">
        <ele>246.39999389648</ele>
        <time>2014-09-17T08:20:00.000Z</time>
      </trkpt>
      <trkpt lat="47.65939" lon="6.0629">
        <ele>245.80000305176</ele>
        <time>2014-09-17T08:20:02.000Z</time>
      </trkpt>
      <trkpt lat="47.65938" lon="6.06299">
        <ele>245.39999389648</ele>
        <time>2014-09-17T08:20:03.000Z</time>
      </trkpt>
      <trkpt lat="47.65937" lon="6.06308">
        <ele>245</ele>
        <time>2014-09-17T08:20:04.000Z</time>
      </trkpt>
      <trkpt lat="47.65933" lon="6.06335">
        <ele>244</ele>
        <time>2014-09-17T08:20:05.000Z</time>
      </trkpt>
      <trkpt lat="47.65929" lon="6.06361">
        <ele>243.60000610352</ele>
        <time>2014-09-17T08:20:10.000Z</time>
      </trkpt>
      <trkpt lat="47.65928" lon="6.0637">
        <ele>243.19999694824</ele>
        <time>2014-09-17T08:20:11.000Z</time>
      </trkpt>
      <trkpt lat="47.65928" lon="6.06378">
        <ele>242.80000305176</ele>
        <time>2014-09-17T08:20:12.000Z</time>
      </trkpt>
      <trkpt lat="47.6593" lon="6.06386">
        <ele>242.39999389648</ele>
        <time>2014-09-17T08:20:13.000Z</time>
      </trkpt>
      <trkpt lat="47.65931" lon="6.06393">
        <ele>242</ele>
        <time>2014-09-17T08:20:14.000Z</time>
      </trkpt>
      <trkpt lat="47.65938" lon="6.06427">
        <ele>242</ele>
        <time>2014-09-17T08:20:19.000Z</time>
      </trkpt>
      <trkpt lat="47.65944" lon="6.06458">
        <ele>242</ele>
        <time>2014-09-17T08:20:25.000Z</time>
      </trkpt>
      <trkpt lat="47.65947" lon="6.06495">
        <ele>242</ele>
        <time>2014-09-17T08:20:33.000Z</time>
      </trkpt>
      <trkpt lat="47.65949" lon="6.0652">
        <ele>242</ele>
        <time>2014-09-17T08:20:40.000Z</time>
      </trkpt>
      <trkpt lat="47.65953" lon="6.06545">
        <ele>242</ele>
        <time>2014-09-17T08:20:47.000Z</time>
      </trkpt>
      <trkpt lat="47.65954" lon="6.06548">
        <ele>242.39999389648</ele>
        <time>2014-09-17T08:20:48.000Z</time>
      </trkpt>
      <trkpt lat="47.65954" lon="6.06551">
        <ele>242.80000305176</ele>
        <time>2014-09-17T08:20:49.000Z</time>
      </trkpt>
      <trkpt lat="47.65955" lon="6.06554">
        <ele>243.19999694824</ele>
        <time>2014-09-17T08:20:50.000Z</time>
      </trkpt>
      <trkpt lat="47.65956" lon="6.06557">
        <ele>243.60000610352</ele>
        <time>2014-09-17T08:20:51.000Z</time>
      </trkpt>
      <trkpt lat="47.65957" lon="6.0656">
        <ele>244</ele>
        <time>2014-09-17T08:20:52.000Z</time>
      </trkpt>
      <trkpt lat="47.65959" lon="6.06568">
        <ele>244</ele>
        <time>2014-09-17T08:20:55.000Z</time>
      </trkpt>
      <trkpt lat="47.65965" lon="6.06581">
        <ele>244</ele>
        <time>2014-09-17T08:21:01.000Z</time>
      </trkpt>
      <trkpt lat="47.6597" lon="6.06594">
        <ele>244</ele>
        <time>2014-09-17T08:21:06.000Z</time>
      </trkpt>
      <trkpt lat="47.65974" lon="6.06603">
        <ele>244.39999389648</ele>
        <time>2014-09-17T08:21:10.000Z</time>
      </trkpt>
      <trkpt lat="47.65975" lon="6.06605">
        <ele>244.80000305176</ele>
        <time>2014-09-17T08:21:11.000Z</time>
      </trkpt>
      <trkpt lat="47.65976" lon="6.06607">
        <ele>245.60000610352</ele>
        <time>2014-09-17T08:21:12.000Z</time>
      </trkpt>
      <trkpt lat="47.65977" lon="6.06609">
        <ele>246</ele>
        <time>2014-09-17T08:21:13.000Z</time>
      </trkpt>
      <trkpt lat="47.65983" lon="6.06623">
        <ele>246</ele>
        <time>2014-09-17T08:21:20.000Z</time>
      </trkpt>
      <trkpt lat="47.65988" lon="6.06635">
        <ele>246</ele>
        <time>2014-09-17T08:21:26.000Z</time>
      </trkpt>
      <trkpt lat="47.65994" lon="6.06653">
        <ele>246.60000610352</ele>
        <time>2014-09-17T08:21:34.000Z</time>
      </trkpt>
      <trkpt lat="47.65995" lon="6.06656">
        <ele>247</ele>
        <time>2014-09-17T08:21:35.000Z</time>
      </trkpt>
      <trkpt lat="47.65996" lon="6.06658">
        <ele>247.80000305176</ele>
        <time>2014-09-17T08:21:36.000Z</time>
      </trkpt>
      <trkpt lat="47.65997" lon="6.0666">
        <ele>248.19999694824</ele>
        <time>2014-09-17T08:21:37.000Z</time>
      </trkpt>
      <trkpt lat="47.65999" lon="6.06668">
        <ele>248.19999694824</ele>
        <time>2014-09-17T08:21:40.000Z</time>
      </trkpt>
      <trkpt lat="47.66008" lon="6.06685">
        <ele>248.19999694824</ele>
        <time>2014-09-17T08:21:48.000Z</time>
      </trkpt>
      <trkpt lat="47.66014" lon="6.067">
        <ele>248.19999694824</ele>
        <time>2014-09-17T08:21:54.000Z</time>
      </trkpt>
      <trkpt lat="47.66019" lon="6.06713">
        <ele>248.60000610352</ele>
        <time>2014-09-17T08:22:00.000Z</time>
      </trkpt>
      <trkpt lat="47.6602" lon="6.06715">
        <ele>249</ele>
        <time>2014-09-17T08:22:01.000Z</time>
      </trkpt>
      <trkpt lat="47.66021" lon="6.06717">
        <ele>249.39999389648</ele>
        <time>2014-09-17T08:22:02.000Z</time>
      </trkpt>
      <trkpt lat="47.66021" lon="6.06719">
        <ele>250</ele>
        <time>2014-09-17T08:22:03.000Z</time>
      </trkpt>
      <trkpt lat="47.66022" lon="6.06721">
        <ele>250.39999389648</ele>
        <time>2014-09-17T08:22:04.000Z</time>
      </trkpt>
      <trkpt lat="47.66025" lon="6.0673">
        <ele>250.39999389648</ele>
        <time>2014-09-17T08:22:08.000Z</time>
      </trkpt>
      <trkpt lat="47.66031" lon="6.06749">
        <ele>250.39999389648</ele>
        <time>2014-09-17T08:22:16.000Z</time>
      </trkpt>
      <trkpt lat="47.66038" lon="6.06768">
        <ele>250.39999389648</ele>
        <time>2014-09-17T08:22:25.000Z</time>
      </trkpt>
      <trkpt lat="47.66042" lon="6.06775">
        <ele>250.80000305176</ele>
        <time>2014-09-17T08:22:29.000Z</time>
      </trkpt>
      <trkpt lat="47.66042" lon="6.06778">
        <ele>251.19999694824</ele>
        <time>2014-09-17T08:22:30.000Z</time>
      </trkpt>
      <trkpt lat="47.66043" lon="6.0678">
        <ele>251.60000610352</ele>
        <time>2014-09-17T08:22:31.000Z</time>
      </trkpt>
      <trkpt lat="47.66044" lon="6.06782">
        <ele>252</ele>
        <time>2014-09-17T08:22:32.000Z</time>
      </trkpt>
      <trkpt lat="47.66046" lon="6.06784">
        <ele>252.39999389648</ele>
        <time>2014-09-17T08:22:33.000Z</time>
      </trkpt>
      <trkpt lat="47.66053" lon="6.068">
        <ele>252.39999389648</ele>
        <time>2014-09-17T08:22:41.000Z</time>
      </trkpt>
      <trkpt lat="47.66062" lon="6.0682">
        <ele>252.39999389648</ele>
        <time>2014-09-17T08:22:51.000Z</time>
      </trkpt>
      <trkpt lat="47.66067" lon="6.06832">
        <ele>252.39999389648</ele>
        <time>2014-09-17T08:22:57.000Z</time>
      </trkpt>
      <trkpt lat="47.66071" lon="6.06845">
        <ele>252.39999389648</ele>
        <time>2014-09-17T08:23:03.000Z</time>
      </trkpt>
      <trkpt lat="47.66078" lon="6.06858">
        <ele>252.39999389648</ele>
        <time>2014-09-17T08:23:10.000Z</time>
      </trkpt>
      <trkpt lat="47.66079" lon="6.06862">
        <ele>252.80000305176</ele>
        <time>2014-09-17T08:23:12.000Z</time>
      </trkpt>
      <trkpt lat="47.6608" lon="6.06864">
        <ele>253.19999694824</ele>
        <time>2014-09-17T08:23:13.000Z</time>
      </trkpt>
      <trkpt lat="47.6608" lon="6.06867">
        <ele>254.19999694824</ele>
        <time>2014-09-17T08:23:14.000Z</time>
      </trkpt>
      <trkpt lat="47.66082" lon="6.06869">
        <ele>254.60000610352</ele>
        <time>2014-09-17T08:23:15.000Z</time>
      </trkpt>
      <trkpt lat="47.66083" lon="6.06872">
        <ele>254.60000610352</ele>
        <time>2014-09-17T08:23:17.000Z</time>
      </trkpt>
      <trkpt lat="47.66089" lon="6.06885">
        <ele>254.60000610352</ele>
        <time>2014-09-17T08:23:25.000Z</time>
      </trkpt>
      <trkpt lat="47.66094" lon="6.06898">
        <ele>254.60000610352</ele>
        <time>2014-09-17T08:23:32.000Z</time>
      </trkpt>
      <trkpt lat="47.66099" lon="6.0691">
        <ele>254.60000610352</ele>
        <time>2014-09-17T08:23:39.000Z</time>
      </trkpt>
      <trkpt lat="47.66103" lon="6.06922">
        <ele>254.60000610352</ele>
        <time>2014-09-17T08:23:45.000Z</time>
      </trkpt>
      <trkpt lat="47.66106" lon="6.06927">
        <ele>255</ele>
        <time>2014-09-17T08:23:48.000Z</time>
      </trkpt>
      <trkpt lat="47.66106" lon="6.06929">
        <ele>255.39999389648</ele>
        <time>2014-09-17T08:23:49.000Z</time>
      </trkpt>
      <trkpt lat="47.66107" lon="6.0693">
        <ele>255.80000305176</ele>
        <time>2014-09-17T08:23:50.000Z</time>
      </trkpt>
      <trkpt lat="47.66108" lon="6.06932">
        <ele>256.20001220703</ele>
        <time>2014-09-17T08:23:51.000Z</time>
      </trkpt>
      <trkpt lat="47.66109" lon="6.06934">
        <ele>256.60000610352</ele>
        <time>2014-09-17T08:23:52.000Z</time>
      </trkpt>
      <trkpt lat="47.66111" lon="6.06946">
        <ele>256.60000610352</ele>
        <time>2014-09-17T08:23:57.000Z</time>
      </trkpt>
      <trkpt lat="47.66116" lon="6.06962">
        <ele>256.60000610352</ele>
        <time>2014-09-17T08:24:05.000Z</time>
      </trkpt>
      <trkpt lat="47.66119" lon="6.0698">
        <ele>256.60000610352</ele>
        <time>2014-09-17T08:24:14.000Z</time>
      </trkpt>
      <trkpt lat="47.66121" lon="6.06996">
        <ele>256.60000610352</ele>
        <time>2014-09-17T08:24:22.000Z</time>
      </trkpt>
      <trkpt lat="47.66123" lon="6.07008">
        <ele>256.60000610352</ele>
        <time>2014-09-17T08:24:28.000Z</time>
      </trkpt>
      <trkpt lat="47.66126" lon="6.07024">
        <ele>256.60000610352</ele>
        <time>2014-09-17T08:24:36.000Z</time>
      </trkpt>
      <trkpt lat="47.66126" lon="6.07026">
        <ele>257</ele>
        <time>2014-09-17T08:24:37.000Z</time>
      </trkpt>
      <trkpt lat="47.66126" lon="6.07027">
        <ele>257.39999389648</ele>
        <time>2014-09-17T08:24:38.000Z</time>
      </trkpt>
      <trkpt lat="47.66126" lon="6.07029">
        <ele>257.79998779297</ele>
        <time>2014-09-17T08:24:39.000Z</time>
      </trkpt>
      <trkpt lat="47.66126" lon="6.07032">
        <ele>258.20001220703</ele>
        <time>2014-09-17T08:24:40.000Z</time>
      </trkpt>
      <trkpt lat="47.66127" lon="6.07033">
        <ele>258.60000610352</ele>
        <time>2014-09-17T08:24:41.000Z</time>
      </trkpt>
      <trkpt lat="47.66127" lon="6.07036">
        <ele>258.60000610352</ele>
        <time>2014-09-17T08:24:42.000Z</time>
      </trkpt>
      <trkpt lat="47.66129" lon="6.0705">
        <ele>258.60000610352</ele>
        <time>2014-09-17T08:24:49.000Z</time>
      </trkpt>
      <trkpt lat="47.66131" lon="6.07063">
        <ele>258.60000610352</ele>
        <time>2014-09-17T08:24:56.000Z</time>
      </trkpt>
      <trkpt lat="47.66132" lon="6.07068">
        <ele>258.60000610352</ele>
        <time>2014-09-17T08:24:59.000Z</time>
      </trkpt>
      <trkpt lat="47.66132" lon="6.07074">
        <ele>258.60000610352</ele>
        <time>2014-09-17T08:25:02.000Z</time>
      </trkpt>
      <trkpt lat="47.66134" lon="6.07084">
        <ele>258.60000610352</ele>
        <time>2014-09-17T08:25:07.000Z</time>
      </trkpt>
      <trkpt lat="47.66135" lon="6.07089">
        <ele>258.60000610352</ele>
        <time>2014-09-17T08:25:10.000Z</time>
      </trkpt>
      <trkpt lat="47.66137" lon="6.07103">
        <ele>258.60000610352</ele>
        <time>2014-09-17T08:25:17.000Z</time>
      </trkpt>
      <trkpt lat="47.66138" lon="6.07119">
        <ele>258.60000610352</ele>
        <time>2014-09-17T08:25:24.000Z</time>
      </trkpt>
      <trkpt lat="47.66141" lon="6.07138">
        <ele>258.60000610352</ele>
        <time>2014-09-17T08:25:31.000Z</time>
      </trkpt>
      <trkpt lat="47.66143" lon="6.07157">
        <ele>258.60000610352</ele>
        <time>2014-09-17T08:25:39.000Z</time>
      </trkpt>
      <trkpt lat="47.66144" lon="6.07169">
        <ele>259</ele>
        <time>2014-09-17T08:25:44.000Z</time>
      </trkpt>
      <trkpt lat="47.66144" lon="6.07171">
        <ele>259.60000610352</ele>
        <time>2014-09-17T08:25:45.000Z</time>
      </trkpt>
      <trkpt lat="47.66145" lon="6.07173">
        <ele>260</ele>
        <time>2014-09-17T08:25:46.000Z</time>
      </trkpt>
      <trkpt lat="47.66145" lon="6.07175">
        <ele>260.39999389648</ele>
        <time>2014-09-17T08:25:47.000Z</time>
      </trkpt>
      <trkpt lat="47.66145" lon="6.07177">
        <ele>260.79998779297</ele>
        <time>2014-09-17T08:25:48.000Z</time>
      </trkpt>
      <trkpt lat="47.66147" lon="6.07192">
        <ele>260.79998779297</ele>
        <time>2014-09-17T08:25:55.000Z</time>
      </trkpt>
      <trkpt lat="47.66148" lon="6.07207">
        <ele>260.79998779297</ele>
        <time>2014-09-17T08:26:03.000Z</time>
      </trkpt>
      <trkpt lat="47.66149" lon="6.07223">
        <ele>260.79998779297</ele>
        <time>2014-09-17T08:26:11.000Z</time>
      </trkpt>
      <trkpt lat="47.66152" lon="6.07239">
        <ele>261.20001220703</ele>
        <time>2014-09-17T08:26:18.000Z</time>
      </trkpt>
      <trkpt lat="47.66152" lon="6.07241">
        <ele>261.60000610352</ele>
        <time>2014-09-17T08:26:19.000Z</time>
      </trkpt>
      <trkpt lat="47.66152" lon="6.07243">
        <ele>262</ele>
        <time>2014-09-17T08:26:20.000Z</time>
      </trkpt>
      <trkpt lat="47.66153" lon="6.07246">
        <ele>262.39999389648</ele>
        <time>2014-09-17T08:26:21.000Z</time>
      </trkpt>
      <trkpt lat="47.66153" lon="6.07248">
        <ele>262.79998779297</ele>
        <time>2014-09-17T08:26:22.000Z</time>
      </trkpt>
      <trkpt lat="47.66157" lon="6.07267">
        <ele>262.79998779297</ele>
        <time>2014-09-17T08:26:30.000Z</time>
      </trkpt>
      <trkpt lat="47.66161" lon="6.0729">
        <ele>262.79998779297</ele>
        <time>2014-09-17T08:26:39.000Z</time>
      </trkpt>
      <trkpt lat="47.66167" lon="6.07314">
        <ele>262.79998779297</ele>
        <time>2014-09-17T08:26:48.000Z</time>
      </trkpt>
      <trkpt lat="47.66169" lon="6.07335">
        <ele>263.20001220703</ele>
        <time>2014-09-17T08:26:56.000Z</time>
      </trkpt>
      <trkpt lat="47.6617" lon="6.07337">
        <ele>263.60000610352</ele>
        <time>2014-09-17T08:26:57.000Z</time>
      </trkpt>
      <trkpt lat="47.6617" lon="6.0734">
        <ele>264</ele>
        <time>2014-09-17T08:26:58.000Z</time>
      </trkpt>
      <trkpt lat="47.6617" lon="6.07342">
        <ele>264.39999389648</ele>
        <time>2014-09-17T08:26:59.000Z</time>
      </trkpt>
      <trkpt lat="47.6617" lon="6.07345">
        <ele>264.79998779297</ele>
        <time>2014-09-17T08:27:00.000Z</time>
      </trkpt>
      <trkpt lat="47.66171" lon="6.0736">
        <ele>264.79998779297</ele>
        <time>2014-09-17T08:27:05.000Z</time>
      </trkpt>
      <trkpt lat="47.66175" lon="6.07382">
        <ele>264.79998779297</ele>
        <time>2014-09-17T08:27:13.000Z</time>
      </trkpt>
      <trkpt lat="47.66176" lon="6.07392">
        <ele>264.79998779297</ele>
        <time>2014-09-17T08:27:17.000Z</time>
      </trkpt>
      <trkpt lat="47.66176" lon="6.07398">
        <ele>264.79998779297</ele>
        <time>2014-09-17T08:27:19.000Z</time>
      </trkpt>
      <trkpt lat="47.66179" lon="6.07422">
        <ele>264.79998779297</ele>
        <time>2014-09-17T08:27:29.000Z</time>
      </trkpt>
      <trkpt lat="47.66178" lon="6.07427">
        <ele>264.79998779297</ele>
        <time>2014-09-17T08:27:32.000Z</time>
      </trkpt>
      <trkpt lat="47.66175" lon="6.07427">
        <ele>264.79998779297</ele>
        <time>2014-09-17T08:27:34.000Z</time>
      </trkpt>
      <trkpt lat="47.66167" lon="6.07424">
        <ele>264.79998779297</ele>
        <time>2014-09-17T08:27:38.000Z</time>
      </trkpt>
      <trkpt lat="47.66162" lon="6.07423">
        <ele>264.79998779297</ele>
        <time>2014-09-17T08:27:40.000Z</time>
      </trkpt>
      <trkpt lat="47.66146" lon="6.0742">
        <ele>265.20001220703</ele>
        <time>2014-09-17T08:27:47.000Z</time>
      </trkpt>
      <trkpt lat="47.66144" lon="6.0742">
        <ele>265.60000610352</ele>
        <time>2014-09-17T08:27:48.000Z</time>
      </trkpt>
      <trkpt lat="47.66142" lon="6.0742">
        <ele>266</ele>
        <time>2014-09-17T08:27:49.000Z</time>
      </trkpt>
      <trkpt lat="47.6614" lon="6.07419">
        <ele>266.39999389648</ele>
        <time>2014-09-17T08:27:50.000Z</time>
      </trkpt>
      <trkpt lat="47.66138" lon="6.07419">
        <ele>266.79998779297</ele>
        <time>2014-09-17T08:27:51.000Z</time>
      </trkpt>
      <trkpt lat="47.66128" lon="6.07419">
        <ele>266.79998779297</ele>
        <time>2014-09-17T08:27:56.000Z</time>
      </trkpt>
      <trkpt lat="47.66111" lon="6.0742">
        <ele>266.79998779297</ele>
        <time>2014-09-17T08:28:04.000Z</time>
      </trkpt>
      <trkpt lat="47.66091" lon="6.07419">
        <ele>266.79998779297</ele>
        <time>2014-09-17T08:28:13.000Z</time>
      </trkpt>
      <trkpt lat="47.66071" lon="6.07419">
        <ele>266.79998779297</ele>
        <time>2014-09-17T08:28:22.000Z</time>
      </trkpt>
      <trkpt lat="47.66053" lon="6.07417">
        <ele>266.79998779297</ele>
        <time>2014-09-17T08:28:30.000Z</time>
      </trkpt>
      <trkpt lat="47.66039" lon="6.07412">
        <ele>267.20001220703</ele>
        <time>2014-09-17T08:28:37.000Z</time>
      </trkpt>
      <trkpt lat="47.66036" lon="6.07412">
        <ele>267.60000610352</ele>
        <time>2014-09-17T08:28:38.000Z</time>
      </trkpt>
      <trkpt lat="47.66034" lon="6.07411">
        <ele>268</ele>
        <time>2014-09-17T08:28:39.000Z</time>
      </trkpt>
      <trkpt lat="47.66032" lon="6.07411">
        <ele>268.39999389648</ele>
        <time>2014-09-17T08:28:40.000Z</time>
      </trkpt>
      <trkpt lat="47.6603" lon="6.0741">
        <ele>268.79998779297</ele>
        <time>2014-09-17T08:28:41.000Z</time>
      </trkpt>
      <trkpt lat="47.66022" lon="6.07407">
        <ele>268.79998779297</ele>
        <time>2014-09-17T08:28:45.000Z</time>
      </trkpt>
      <trkpt lat="47.66007" lon="6.07406">
        <ele>268.79998779297</ele>
        <time>2014-09-17T08:28:53.000Z</time>
      </trkpt>
      <trkpt lat="47.65995" lon="6.07407">
        <ele>269.39999389648</ele>
        <time>2014-09-17T08:28:59.000Z</time>
      </trkpt>
      <trkpt lat="47.65993" lon="6.07408">
        <ele>270.20001220703</ele>
        <time>2014-09-17T08:29:00.000Z</time>
      </trkpt>
      <trkpt lat="47.65991" lon="6.07408">
        <ele>270.60000610352</ele>
        <time>2014-09-17T08:29:01.000Z</time>
      </trkpt>
      <trkpt lat="47.6599" lon="6.07409">
        <ele>271</ele>
        <time>2014-09-17T08:29:02.000Z</time>
      </trkpt>
      <trkpt lat="47.65979" lon="6.07412">
        <ele>271</ele>
        <time>2014-09-17T08:29:08.000Z</time>
      </trkpt>
      <trkpt lat="47.65964" lon="6.07414">
        <ele>271</ele>
        <time>2014-09-17T08:29:13.000Z</time>
      </trkpt>
      <trkpt lat="47.6594" lon="6.07416">
        <ele>271</ele>
        <time>2014-09-17T08:29:19.000Z</time>
      </trkpt>
      <trkpt lat="47.65916" lon="6.07418">
        <ele>271</ele>
        <time>2014-09-17T08:29:25.000Z</time>
      </trkpt>
      <trkpt lat="47.65893" lon="6.07415">
        <ele>271</ele>
        <time>2014-09-17T08:29:31.000Z</time>
      </trkpt>
      <trkpt lat="47.65882" lon="6.07413">
        <ele>271</ele>
        <time>2014-09-17T08:29:34.000Z</time>
      </trkpt>
      <trkpt lat="47.65871" lon="6.07406">
        <ele>271</ele>
        <time>2014-09-17T08:29:37.000Z</time>
      </trkpt>
      <trkpt lat="47.65864" lon="6.07402">
        <ele>271</ele>
        <time>2014-09-17T08:29:41.000Z</time>
      </trkpt>
      <trkpt lat="47.65863" lon="6.07402">
        <ele>271</ele>
        <time>2014-09-17T08:32:07.000Z</time>
      </trkpt>
      <trkpt lat="47.65859" lon="6.07403">
        <ele>271</ele>
        <time>2014-09-17T08:32:10.000Z</time>
      </trkpt>
      <trkpt lat="47.65843" lon="6.07403">
        <ele>271</ele>
        <time>2014-09-17T08:32:16.000Z</time>
      </trkpt>
      <trkpt lat="47.65819" lon="6.07402">
        <ele>271</ele>
        <time>2014-09-17T08:32:23.000Z</time>
      </trkpt>
      <trkpt lat="47.6579" lon="6.07401">
        <ele>271</ele>
        <time>2014-09-17T08:32:30.000Z</time>
      </trkpt>
      <trkpt lat="47.65777" lon="6.07401">
        <ele>270.60000610352</ele>
        <time>2014-09-17T08:32:33.000Z</time>
      </trkpt>
      <trkpt lat="47.65772" lon="6.07401">
        <ele>270.20001220703</ele>
        <time>2014-09-17T08:32:34.000Z</time>
      </trkpt>
      <trkpt lat="47.65767" lon="6.07401">
        <ele>269.79998779297</ele>
        <time>2014-09-17T08:32:35.000Z</time>
      </trkpt>
      <trkpt lat="47.65762" lon="6.07401">
        <ele>269.39999389648</ele>
        <time>2014-09-17T08:32:36.000Z</time>
      </trkpt>
      <trkpt lat="47.65757" lon="6.07401">
        <ele>269</ele>
        <time>2014-09-17T08:32:37.000Z</time>
      </trkpt>
      <trkpt lat="47.65752" lon="6.074">
        <ele>269</ele>
        <time>2014-09-17T08:32:38.000Z</time>
      </trkpt>
      <trkpt lat="47.65706" lon="6.074">
        <ele>269</ele>
        <time>2014-09-17T08:32:47.000Z</time>
      </trkpt>
      <trkpt lat="47.65679" lon="6.074">
        <ele>268.60000610352</ele>
        <time>2014-09-17T08:32:52.000Z</time>
      </trkpt>
      <trkpt lat="47.65674" lon="6.07399">
        <ele>268.20001220703</ele>
        <time>2014-09-17T08:32:53.000Z</time>
      </trkpt>
      <trkpt lat="47.65669" lon="6.07399">
        <ele>267.79998779297</ele>
        <time>2014-09-17T08:32:54.000Z</time>
      </trkpt>
      <trkpt lat="47.65664" lon="6.07399">
        <ele>267.39999389648</ele>
        <time>2014-09-17T08:32:55.000Z</time>
      </trkpt>
      <trkpt lat="47.65659" lon="6.07399">
        <ele>267</ele>
        <time>2014-09-17T08:32:56.000Z</time>
      </trkpt>
      <trkpt lat="47.6563" lon="6.07398">
        <ele>267</ele>
        <time>2014-09-17T08:33:02.000Z</time>
      </trkpt>
      <trkpt lat="47.65592" lon="6.07394">
        <ele>267</ele>
        <time>2014-09-17T08:33:10.000Z</time>
      </trkpt>
      <trkpt lat="47.65565" lon="6.07391">
        <ele>267.39999389648</ele>
        <time>2014-09-17T08:33:17.000Z</time>
      </trkpt>
      <trkpt lat="47.65562" lon="6.0739">
        <ele>267.79998779297</ele>
        <time>2014-09-17T08:33:18.000Z</time>
      </trkpt>
      <trkpt lat="47.65558" lon="6.07389">
        <ele>268.20001220703</ele>
        <time>2014-09-17T08:33:19.000Z</time>
      </trkpt>
      <trkpt lat="47.65555" lon="6.07388">
        <ele>268.60000610352</ele>
        <time>2014-09-17T08:33:20.000Z</time>
      </trkpt>
      <trkpt lat="47.65551" lon="6.07387">
        <ele>269</ele>
        <time>2014-09-17T08:33:21.000Z</time>
      </trkpt>
      <trkpt lat="47.65543" lon="6.07385">
        <ele>269</ele>
        <time>2014-09-17T08:33:23.000Z</time>
      </trkpt>
      <trkpt lat="47.65526" lon="6.07379">
        <ele>269</ele>
        <time>2014-09-17T08:33:27.000Z</time>
      </trkpt>
      <trkpt lat="47.65522" lon="6.07378">
        <ele>269</ele>
        <time>2014-09-17T08:33:28.000Z</time>
      </trkpt>
      <trkpt lat="47.65511" lon="6.07376">
        <ele>269.39999389648</ele>
        <time>2014-09-17T08:33:31.000Z</time>
      </trkpt>
      <trkpt lat="47.65507" lon="6.07375">
        <ele>269.79998779297</ele>
        <time>2014-09-17T08:33:32.000Z</time>
      </trkpt>
      <trkpt lat="47.65503" lon="6.07375">
        <ele>270.20001220703</ele>
        <time>2014-09-17T08:33:33.000Z</time>
      </trkpt>
      <trkpt lat="47.65499" lon="6.07374">
        <ele>270.60000610352</ele>
        <time>2014-09-17T08:33:34.000Z</time>
      </trkpt>
      <trkpt lat="47.65496" lon="6.07374">
        <ele>271</ele>
        <time>2014-09-17T08:33:35.000Z</time>
      </trkpt>
      <trkpt lat="47.65481" lon="6.07374">
        <ele>271</ele>
        <time>2014-09-17T08:33:39.000Z</time>
      </trkpt>
      <trkpt lat="47.65476" lon="6.07374">
        <ele>271</ele>
        <time>2014-09-17T08:33:40.000Z</time>
      </trkpt>
      <trkpt lat="47.65449" lon="6.07371">
        <ele>271</ele>
        <time>2014-09-17T08:33:46.000Z</time>
      </trkpt>
      <trkpt lat="47.65427" lon="6.07364">
        <ele>270.39999389648</ele>
        <time>2014-09-17T08:33:50.000Z</time>
      </trkpt>
      <trkpt lat="47.65422" lon="6.07361">
        <ele>270</ele>
        <time>2014-09-17T08:33:51.000Z</time>
      </trkpt>
      <trkpt lat="47.65417" lon="6.07356">
        <ele>269.39999389648</ele>
        <time>2014-09-17T08:33:52.000Z</time>
      </trkpt>
      <trkpt lat="47.65413" lon="6.0735">
        <ele>269</ele>
        <time>2014-09-17T08:33:53.000Z</time>
      </trkpt>
      <trkpt lat="47.6541" lon="6.07343">
        <ele>268.39999389648</ele>
        <time>2014-09-17T08:33:54.000Z</time>
      </trkpt>
      <trkpt lat="47.65406" lon="6.07335">
        <ele>268</ele>
        <time>2014-09-17T08:33:55.000Z</time>
      </trkpt>
      <trkpt lat="47.65404" lon="6.07328">
        <ele>267.60000610352</ele>
        <time>2014-09-17T08:33:56.000Z</time>
      </trkpt>
      <trkpt lat="47.65401" lon="6.07321">
        <ele>267.20001220703</ele>
        <time>2014-09-17T08:33:57.000Z</time>
      </trkpt>
      <trkpt lat="47.65398" lon="6.07313">
        <ele>266.60000610352</ele>
        <time>2014-09-17T08:33:58.000Z</time>
      </trkpt>
      <trkpt lat="47.65396" lon="6.07305">
        <ele>266.20001220703</ele>
        <time>2014-09-17T08:33:59.000Z</time>
      </trkpt>
      <trkpt lat="47.6539" lon="6.07289">
        <ele>265.39999389648</ele>
        <time>2014-09-17T08:34:01.000Z</time>
      </trkpt>
      <trkpt lat="47.65387" lon="6.07281">
        <ele>264.79998779297</ele>
        <time>2014-09-17T08:34:02.000Z</time>
      </trkpt>
      <trkpt lat="47.65384" lon="6.07273">
        <ele>264.39999389648</ele>
        <time>2014-09-17T08:34:03.000Z</time>
      </trkpt>
      <trkpt lat="47.65381" lon="6.07267">
        <ele>264</ele>
        <time>2014-09-17T08:34:04.000Z</time>
      </trkpt>
      <trkpt lat="47.65375" lon="6.07249">
        <ele>264</ele>
        <time>2014-09-17T08:34:07.000Z</time>
      </trkpt>
      <trkpt lat="47.65371" lon="6.07237">
        <ele>263.60000610352</ele>
        <time>2014-09-17T08:34:09.000Z</time>
      </trkpt>
      <trkpt lat="47.65369" lon="6.07231">
        <ele>263.20001220703</ele>
        <time>2014-09-17T08:34:10.000Z</time>
      </trkpt>
      <trkpt lat="47.65367" lon="6.07226">
        <ele>262.79998779297</ele>
        <time>2014-09-17T08:34:11.000Z</time>
      </trkpt>
      <trkpt lat="47.65366" lon="6.07222">
        <ele>262.39999389648</ele>
        <time>2014-09-17T08:34:12.000Z</time>
      </trkpt>
      <trkpt lat="47.65364" lon="6.07218">
        <ele>262</ele>
        <time>2014-09-17T08:34:13.000Z</time>
      </trkpt>
      <trkpt lat="47.65361" lon="6.07214">
        <ele>262</ele>
        <time>2014-09-17T08:34:14.000Z</time>
      </trkpt>
      <trkpt lat="47.65354" lon="6.07209">
        <ele>262</ele>
        <time>2014-09-17T08:34:16.000Z</time>
      </trkpt>
      <trkpt lat="47.65351" lon="6.07208">
        <ele>261.39999389648</ele>
        <time>2014-09-17T08:34:17.000Z</time>
      </trkpt>
      <trkpt lat="47.65349" lon="6.07208">
        <ele>261</ele>
        <time>2014-09-17T08:34:18.000Z</time>
      </trkpt>
      <trkpt lat="47.65345" lon="6.07208">
        <ele>260.60000610352</ele>
        <time>2014-09-17T08:34:19.000Z</time>
      </trkpt>
      <trkpt lat="47.65342" lon="6.07209">
        <ele>260.20001220703</ele>
        <time>2014-09-17T08:34:20.000Z</time>
      </trkpt>
      <trkpt lat="47.65339" lon="6.0721">
        <ele>259.79998779297</ele>
        <time>2014-09-17T08:34:21.000Z</time>
      </trkpt>
      <trkpt lat="47.65333" lon="6.07213">
        <ele>259.79998779297</ele>
        <time>2014-09-17T08:34:23.000Z</time>
      </trkpt>
      <trkpt lat="47.65318" lon="6.0722">
        <ele>259.79998779297</ele>
        <time>2014-09-17T08:34:29.000Z</time>
      </trkpt>
      <trkpt lat="47.65299" lon="6.07224">
        <ele>259.79998779297</ele>
        <time>2014-09-17T08:34:36.000Z</time>
      </trkpt>
      <trkpt lat="47.65285" lon="6.07227">
        <ele>259.79998779297</ele>
        <time>2014-09-17T08:34:42.000Z</time>
      </trkpt>
      <trkpt lat="47.65264" lon="6.07229">
        <ele>259.79998779297</ele>
        <time>2014-09-17T08:34:50.000Z</time>
      </trkpt>
      <trkpt lat="47.65243" lon="6.07232">
        <ele>259.79998779297</ele>
        <time>2014-09-17T08:34:58.000Z</time>
      </trkpt>
      <trkpt lat="47.6523" lon="6.07234">
        <ele>259.79998779297</ele>
        <time>2014-09-17T08:35:05.000Z</time>
      </trkpt>
      <trkpt lat="47.65216" lon="6.07235">
        <ele>259.79998779297</ele>
        <time>2014-09-17T08:35:12.000Z</time>
      </trkpt>
      <trkpt lat="47.65197" lon="6.07238">
        <ele>259.79998779297</ele>
        <time>2014-09-17T08:35:21.000Z</time>
      </trkpt>
      <trkpt lat="47.65178" lon="6.07241">
        <ele>259.79998779297</ele>
        <time>2014-09-17T08:35:30.000Z</time>
      </trkpt>
      <trkpt lat="47.65162" lon="6.07243">
        <ele>259.79998779297</ele>
        <time>2014-09-17T08:35:38.000Z</time>
      </trkpt>
      <trkpt lat="47.65151" lon="6.07245">
        <ele>259.79998779297</ele>
        <time>2014-09-17T08:35:44.000Z</time>
      </trkpt>
      <trkpt lat="47.65138" lon="6.07247">
        <ele>259.79998779297</ele>
        <time>2014-09-17T08:35:53.000Z</time>
      </trkpt>
      <trkpt lat="47.65136" lon="6.07247">
        <ele>259.79998779297</ele>
        <time>2014-09-17T08:35:56.000Z</time>
      </trkpt>
      <trkpt lat="47.65131" lon="6.07249">
        <ele>259.79998779297</ele>
        <time>2014-09-17T08:36:26.000Z</time>
      </trkpt>
      <trkpt lat="47.65129" lon="6.07249">
        <ele>259.79998779297</ele>
        <time>2014-09-17T08:36:27.000Z</time>
      </trkpt>
      <trkpt lat="47.65124" lon="6.0725">
        <ele>259.79998779297</ele>
        <time>2014-09-17T08:36:30.000Z</time>
      </trkpt>
      <trkpt lat="47.65119" lon="6.0725">
        <ele>260.20001220703</ele>
        <time>2014-09-17T08:36:32.000Z</time>
      </trkpt>
      <trkpt lat="47.65117" lon="6.07251">
        <ele>260.60000610352</ele>
        <time>2014-09-17T08:36:33.000Z</time>
      </trkpt>
      <trkpt lat="47.65115" lon="6.07251">
        <ele>261</ele>
        <time>2014-09-17T08:36:34.000Z</time>
      </trkpt>
      <trkpt lat="47.65112" lon="6.07251">
        <ele>261.39999389648</ele>
        <time>2014-09-17T08:36:35.000Z</time>
      </trkpt>
      <trkpt lat="47.6511" lon="6.07251">
        <ele>261.79998779297</ele>
        <time>2014-09-17T08:36:36.000Z</time>
      </trkpt>
      <trkpt lat="47.65098" lon="6.07252">
        <ele>261.79998779297</ele>
        <time>2014-09-17T08:36:41.000Z</time>
      </trkpt>
      <trkpt lat="47.65078" lon="6.07254">
        <ele>261.79998779297</ele>
        <time>2014-09-17T08:36:49.000Z</time>
      </trkpt>
      <trkpt lat="47.65059" lon="6.07255">
        <ele>261.79998779297</ele>
        <time>2014-09-17T08:36:57.000Z</time>
      </trkpt>
      <trkpt lat="47.65041" lon="6.07259">
        <ele>262.20001220703</ele>
        <time>2014-09-17T08:37:04.000Z</time>
      </trkpt>
      <trkpt lat="47.65039" lon="6.0726">
        <ele>262.60000610352</ele>
        <time>2014-09-17T08:37:05.000Z</time>
      </trkpt>
      <trkpt lat="47.65036" lon="6.0726">
        <ele>263.20001220703</ele>
        <time>2014-09-17T08:37:06.000Z</time>
      </trkpt>
      <trkpt lat="47.65034" lon="6.07261">
        <ele>263.60000610352</ele>
        <time>2014-09-17T08:37:07.000Z</time>
      </trkpt>
      <trkpt lat="47.65032" lon="6.07262">
        <ele>264</ele>
        <time>2014-09-17T08:37:08.000Z</time>
      </trkpt>
      <trkpt lat="47.65022" lon="6.07266">
        <ele>264</ele>
        <time>2014-09-17T08:37:13.000Z</time>
      </trkpt>
      <trkpt lat="47.6501" lon="6.07273">
        <ele>264</ele>
        <time>2014-09-17T08:37:19.000Z</time>
      </trkpt>
      <trkpt lat="47.64998" lon="6.07282">
        <ele>264</ele>
        <time>2014-09-17T08:37:26.000Z</time>
      </trkpt>
      <trkpt lat="47.64989" lon="6.07288">
        <ele>264.39999389648</ele>
        <time>2014-09-17T08:37:30.000Z</time>
      </trkpt>
      <trkpt lat="47.64987" lon="6.07289">
        <ele>264.79998779297</ele>
        <time>2014-09-17T08:37:31.000Z</time>
      </trkpt>
      <trkpt lat="47.64985" lon="6.07291">
        <ele>265.20001220703</ele>
        <time>2014-09-17T08:37:32.000Z</time>
      </trkpt>
      <trkpt lat="47.64983" lon="6.07293">
        <ele>265.60000610352</ele>
        <time>2014-09-17T08:37:33.000Z</time>
      </trkpt>
      <trkpt lat="47.6498" lon="6.07294">
        <ele>266</ele>
        <time>2014-09-17T08:37:34.000Z</time>
      </trkpt>
      <trkpt lat="47.64978" lon="6.07295">
        <ele>266</ele>
        <time>2014-09-17T08:37:35.000Z</time>
      </trkpt>
      <trkpt lat="47.64959" lon="6.07301">
        <ele>266</ele>
        <time>2014-09-17T08:37:43.000Z</time>
      </trkpt>
      <trkpt lat="47.6494" lon="6.07294">
        <ele>266</ele>
        <time>2014-09-17T08:37:50.000Z</time>
      </trkpt>
      <trkpt lat="47.64921" lon="6.07278">
        <ele>266</ele>
        <time>2014-09-17T08:37:57.000Z</time>
      </trkpt>
      <trkpt lat="47.64899" lon="6.07258">
        <ele>266</ele>
        <time>2014-09-17T08:38:05.000Z</time>
      </trkpt>
      <trkpt lat="47.64881" lon="6.07244">
        <ele>266</ele>
        <time>2014-09-17T08:38:12.000Z</time>
      </trkpt>
      <trkpt lat="47.64856" lon="6.07227">
        <ele>266</ele>
        <time>2014-09-17T08:38:20.000Z</time>
      </trkpt>
      <trkpt lat="47.64829" lon="6.07209">
        <ele>266</ele>
        <time>2014-09-17T08:38:28.000Z</time>
      </trkpt>
      <trkpt lat="47.64808" lon="6.07194">
        <ele>266</ele>
        <time>2014-09-17T08:38:35.000Z</time>
      </trkpt>
      <trkpt lat="47.64786" lon="6.07187">
        <ele>266</ele>
        <time>2014-09-17T08:38:43.000Z</time>
      </trkpt>
      <trkpt lat="47.64772" lon="6.07187">
        <ele>266</ele>
        <time>2014-09-17T08:38:49.000Z</time>
      </trkpt>
      <trkpt lat="47.64755" lon="6.07189">
        <ele>266</ele>
        <time>2014-09-17T08:38:55.000Z</time>
      </trkpt>
      <trkpt lat="47.6473" lon="6.07195">
        <ele>266</ele>
        <time>2014-09-17T08:39:01.000Z</time>
      </trkpt>
      <trkpt lat="47.64726" lon="6.07196">
        <ele>266.39999389648</ele>
        <time>2014-09-17T08:39:02.000Z</time>
      </trkpt>
      <trkpt lat="47.64722" lon="6.07196">
        <ele>266.79998779297</ele>
        <time>2014-09-17T08:39:03.000Z</time>
      </trkpt>
      <trkpt lat="47.64719" lon="6.07197">
        <ele>267.20001220703</ele>
        <time>2014-09-17T08:39:04.000Z</time>
      </trkpt>
      <trkpt lat="47.64715" lon="6.07198">
        <ele>267.60000610352</ele>
        <time>2014-09-17T08:39:05.000Z</time>
      </trkpt>
      <trkpt lat="47.64712" lon="6.07199">
        <ele>268</ele>
        <time>2014-09-17T08:39:06.000Z</time>
      </trkpt>
      <trkpt lat="47.64708" lon="6.072">
        <ele>268</ele>
        <time>2014-09-17T08:39:07.000Z</time>
      </trkpt>
      <trkpt lat="47.64692" lon="6.07202">
        <ele>268</ele>
        <time>2014-09-17T08:39:12.000Z</time>
      </trkpt>
      <trkpt lat="47.64676" lon="6.07206">
        <ele>268</ele>
        <time>2014-09-17T08:39:18.000Z</time>
      </trkpt>
      <trkpt lat="47.64668" lon="6.07207">
        <ele>268.39999389648</ele>
        <time>2014-09-17T08:39:21.000Z</time>
      </trkpt>
      <trkpt lat="47.64665" lon="6.07208">
        <ele>268.79998779297</ele>
        <time>2014-09-17T08:39:22.000Z</time>
      </trkpt>
      <trkpt lat="47.64662" lon="6.07209">
        <ele>269.60000610352</ele>
        <time>2014-09-17T08:39:23.000Z</time>
      </trkpt>
      <trkpt lat="47.6466" lon="6.07209">
        <ele>270</ele>
        <time>2014-09-17T08:39:24.000Z</time>
      </trkpt>
      <trkpt lat="47.64657" lon="6.07209">
        <ele>270</ele>
        <time>2014-09-17T08:39:25.000Z</time>
      </trkpt>
      <trkpt lat="47.6464" lon="6.07219">
        <ele>270</ele>
        <time>2014-09-17T08:39:31.000Z</time>
      </trkpt>
      <trkpt lat="47.64619" lon="6.07233">
        <ele>270</ele>
        <time>2014-09-17T08:39:37.000Z</time>
      </trkpt>
      <trkpt lat="47.64594" lon="6.07251">
        <ele>270</ele>
        <time>2014-09-17T08:39:45.000Z</time>
      </trkpt>
      <trkpt lat="47.64578" lon="6.07265">
        <ele>270</ele>
        <time>2014-09-17T08:39:50.000Z</time>
      </trkpt>
      <trkpt lat="47.64572" lon="6.07274">
        <ele>270</ele>
        <time>2014-09-17T08:39:52.000Z</time>
      </trkpt>
      <trkpt lat="47.64562" lon="6.0729">
        <ele>270</ele>
        <time>2014-09-17T08:39:55.000Z</time>
      </trkpt>
      <trkpt lat="47.64555" lon="6.07301">
        <ele>269.60000610352</ele>
        <time>2014-09-17T08:39:57.000Z</time>
      </trkpt>
      <trkpt lat="47.64552" lon="6.07307">
        <ele>269.20001220703</ele>
        <time>2014-09-17T08:39:58.000Z</time>
      </trkpt>
      <trkpt lat="47.64549" lon="6.07313">
        <ele>268.60000610352</ele>
        <time>2014-09-17T08:39:59.000Z</time>
      </trkpt>
      <trkpt lat="47.64546" lon="6.07317">
        <ele>268.20001220703</ele>
        <time>2014-09-17T08:40:00.000Z</time>
      </trkpt>
      <trkpt lat="47.64542" lon="6.07321">
        <ele>267.79998779297</ele>
        <time>2014-09-17T08:40:01.000Z</time>
      </trkpt>
      <trkpt lat="47.64526" lon="6.07321">
        <ele>267.79998779297</ele>
        <time>2014-09-17T08:40:05.000Z</time>
      </trkpt>
      <trkpt lat="47.64492" lon="6.07317">
        <ele>267.79998779297</ele>
        <time>2014-09-17T08:40:13.000Z</time>
      </trkpt>
      <trkpt lat="47.64467" lon="6.07318">
        <ele>267.79998779297</ele>
        <time>2014-09-17T08:40:20.000Z</time>
      </trkpt>
      <trkpt lat="47.6445" lon="6.07325">
        <ele>268.20001220703</ele>
        <time>2014-09-17T08:40:27.000Z</time>
      </trkpt>
      <trkpt lat="47.64448" lon="6.07326">
        <ele>268.60000610352</ele>
        <time>2014-09-17T08:40:28.000Z</time>
      </trkpt>
      <trkpt lat="47.64446" lon="6.07327">
        <ele>269</ele>
        <time>2014-09-17T08:40:29.000Z</time>
      </trkpt>
      <trkpt lat="47.64444" lon="6.07328">
        <ele>269.39999389648</ele>
        <time>2014-09-17T08:40:30.000Z</time>
      </trkpt>
      <trkpt lat="47.64441" lon="6.07329">
        <ele>269.79998779297</ele>
        <time>2014-09-17T08:40:31.000Z</time>
      </trkpt>
      <trkpt lat="47.64434" lon="6.07332">
        <ele>269.79998779297</ele>
        <time>2014-09-17T08:40:35.000Z</time>
      </trkpt>
      <trkpt lat="47.64421" lon="6.07339">
        <ele>270.20001220703</ele>
        <time>2014-09-17T08:40:42.000Z</time>
      </trkpt>
      <trkpt lat="47.64419" lon="6.0734">
        <ele>270.60000610352</ele>
        <time>2014-09-17T08:40:43.000Z</time>
      </trkpt>
      <trkpt lat="47.64418" lon="6.07341">
        <ele>271</ele>
        <time>2014-09-17T08:40:44.000Z</time>
      </trkpt>
      <trkpt lat="47.64416" lon="6.07342">
        <ele>271.39999389648</ele>
        <time>2014-09-17T08:40:45.000Z</time>
      </trkpt>
      <trkpt lat="47.64414" lon="6.07342">
        <ele>271.79998779297</ele>
        <time>2014-09-17T08:40:46.000Z</time>
      </trkpt>
      <trkpt lat="47.64409" lon="6.07343">
        <ele>271.79998779297</ele>
        <time>2014-09-17T08:40:50.000Z</time>
      </trkpt>
      <trkpt lat="47.64358" lon="6.07362">
        <ele>276</ele>
        <time>2014-09-17T08:47:06.000Z</time>
      </trkpt>
      <trkpt lat="47.64354" lon="6.07365">
        <ele>276</ele>
        <time>2014-09-17T08:47:09.000Z</time>
      </trkpt>
      <trkpt lat="47.64352" lon="6.07365">
        <ele>276</ele>
        <time>2014-09-17T08:47:11.000Z</time>
      </trkpt>
      <trkpt lat="47.64348" lon="6.07363">
        <ele>276</ele>
        <time>2014-09-17T08:47:15.000Z</time>
      </trkpt>
      <trkpt lat="47.64342" lon="6.07366">
        <ele>276</ele>
        <time>2014-09-17T08:47:21.000Z</time>
      </trkpt>
      <trkpt lat="47.64337" lon="6.07368">
        <ele>276.39999389648</ele>
        <time>2014-09-17T08:47:25.000Z</time>
      </trkpt>
      <trkpt lat="47.64335" lon="6.07368">
        <ele>276.79998779297</ele>
        <time>2014-09-17T08:47:26.000Z</time>
      </trkpt>
      <trkpt lat="47.64334" lon="6.07368">
        <ele>277.20001220703</ele>
        <time>2014-09-17T08:47:27.000Z</time>
      </trkpt>
      <trkpt lat="47.64333" lon="6.07368">
        <ele>277.60000610352</ele>
        <time>2014-09-17T08:47:28.000Z</time>
      </trkpt>
      <trkpt lat="47.64331" lon="6.07368">
        <ele>278</ele>
        <time>2014-09-17T08:47:29.000Z</time>
      </trkpt>
      <trkpt lat="47.64327" lon="6.07368">
        <ele>278</ele>
        <time>2014-09-17T08:47:31.000Z</time>
      </trkpt>
      <trkpt lat="47.64319" lon="6.07366">
        <ele>278</ele>
        <time>2014-09-17T08:47:36.000Z</time>
      </trkpt>
      <trkpt lat="47.64306" lon="6.07363">
        <ele>278</ele>
        <time>2014-09-17T08:47:44.000Z</time>
      </trkpt>
      <trkpt lat="47.643" lon="6.07358">
        <ele>278.39999389648</ele>
        <time>2014-09-17T08:47:49.000Z</time>
      </trkpt>
      <trkpt lat="47.64299" lon="6.07356">
        <ele>278.79998779297</ele>
        <time>2014-09-17T08:47:50.000Z</time>
      </trkpt>
      <trkpt lat="47.64298" lon="6.07355">
        <ele>279.20001220703</ele>
        <time>2014-09-17T08:47:51.000Z</time>
      </trkpt>
      <trkpt lat="47.64297" lon="6.07354">
        <ele>279.60000610352</ele>
        <time>2014-09-17T08:47:52.000Z</time>
      </trkpt>
      <trkpt lat="47.64296" lon="6.07353">
        <ele>280</ele>
        <time>2014-09-17T08:47:53.000Z</time>
      </trkpt>
      <trkpt lat="47.64289" lon="6.0735">
        <ele>280</ele>
        <time>2014-09-17T08:47:58.000Z</time>
      </trkpt>
      <trkpt lat="47.64278" lon="6.07343">
        <ele>280</ele>
        <time>2014-09-17T08:48:05.000Z</time>
      </trkpt>
      <trkpt lat="47.64271" lon="6.0734">
        <ele>280</ele>
        <time>2014-09-17T08:48:09.000Z</time>
      </trkpt>
      <trkpt lat="47.64267" lon="6.0734">
        <ele>280</ele>
        <time>2014-09-17T08:48:11.000Z</time>
      </trkpt>
      <trkpt lat="47.64263" lon="6.07334">
        <ele>280</ele>
        <time>2014-09-17T08:48:15.000Z</time>
      </trkpt>
      <trkpt lat="47.64256" lon="6.07334">
        <ele>280</ele>
        <time>2014-09-17T08:48:20.000Z</time>
      </trkpt>
      <trkpt lat="47.64255" lon="6.07337">
        <ele>280</ele>
        <time>2014-09-17T08:48:22.000Z</time>
      </trkpt>
      <trkpt lat="47.64256" lon="6.07338">
        <ele>280</ele>
        <time>2014-09-17T08:48:23.000Z</time>
      </trkpt>
      <trkpt lat="47.64259" lon="6.07338">
        <ele>280</ele>
        <time>2014-09-17T08:48:24.000Z</time>
      </trkpt>
      <trkpt lat="47.6427" lon="6.07332">
        <ele>280</ele>
        <time>2014-09-17T08:48:31.000Z</time>
      </trkpt>
      <trkpt lat="47.64267" lon="6.07327">
        <ele>280</ele>
        <time>2014-09-17T08:48:35.000Z</time>
      </trkpt>
      <trkpt lat="47.64259" lon="6.07331">
        <ele>280</ele>
        <time>2014-09-17T08:48:39.000Z</time>
      </trkpt>
      <trkpt lat="47.64257" lon="6.07331">
        <ele>280</ele>
        <time>2014-09-17T08:48:40.000Z</time>
      </trkpt>
      <trkpt lat="47.6425" lon="6.07326">
        <ele>280</ele>
        <time>2014-09-17T08:48:44.000Z</time>
      </trkpt>
      <trkpt lat="47.6424" lon="6.07326">
        <ele>280</ele>
        <time>2014-09-17T08:48:48.000Z</time>
      </trkpt>
      <trkpt lat="47.64223" lon="6.07319">
        <ele>280</ele>
        <time>2014-09-17T08:48:54.000Z</time>
      </trkpt>
      <trkpt lat="47.64212" lon="6.07322">
        <ele>280</ele>
        <time>2014-09-17T08:48:59.000Z</time>
      </trkpt>
      <trkpt lat="47.64209" lon="6.07322">
        <ele>280</ele>
        <time>2014-09-17T08:49:03.000Z</time>
      </trkpt>
      <trkpt lat="47.64209" lon="6.07318">
        <ele>279.60000610352</ele>
        <time>2014-09-17T08:52:02.000Z</time>
      </trkpt>
      <trkpt lat="47.64212" lon="6.07316">
        <ele>279.60000610352</ele>
        <time>2014-09-17T08:52:04.000Z</time>
      </trkpt>
      <trkpt lat="47.64214" lon="6.07315">
        <ele>279.60000610352</ele>
        <time>2014-09-17T08:52:05.000Z</time>
      </trkpt>
      <trkpt lat="47.6422" lon="6.0732">
        <ele>279.60000610352</ele>
        <time>2014-09-17T08:52:09.000Z</time>
      </trkpt>
      <trkpt lat="47.64221" lon="6.07321">
        <ele>279.60000610352</ele>
        <time>2014-09-17T08:52:10.000Z</time>
      </trkpt>
      <trkpt lat="47.64233" lon="6.07325">
        <ele>279.60000610352</ele>
        <time>2014-09-17T08:52:17.000Z</time>
      </trkpt>
      <trkpt lat="47.6425" lon="6.0733">
        <ele>279.60000610352</ele>
        <time>2014-09-17T08:52:25.000Z</time>
      </trkpt>
      <trkpt lat="47.64266" lon="6.07329">
        <ele>279.60000610352</ele>
        <time>2014-09-17T08:52:32.000Z</time>
      </trkpt>
      <trkpt lat="47.64272" lon="6.07324">
        <ele>280</ele>
        <time>2014-09-17T08:52:35.000Z</time>
      </trkpt>
      <trkpt lat="47.64273" lon="6.07323">
        <ele>280.39999389648</ele>
        <time>2014-09-17T08:52:36.000Z</time>
      </trkpt>
      <trkpt lat="47.64275" lon="6.0732">
        <ele>280.79998779297</ele>
        <time>2014-09-17T08:52:37.000Z</time>
      </trkpt>
      <trkpt lat="47.64276" lon="6.07318">
        <ele>281.39999389648</ele>
        <time>2014-09-17T08:52:38.000Z</time>
      </trkpt>
      <trkpt lat="47.64277" lon="6.07316">
        <ele>281.79998779297</ele>
        <time>2014-09-17T08:52:39.000Z</time>
      </trkpt>
      <trkpt lat="47.64285" lon="6.07302">
        <ele>281.79998779297</ele>
        <time>2014-09-17T08:52:45.000Z</time>
      </trkpt>
      <trkpt lat="47.64298" lon="6.07279">
        <ele>281.79998779297</ele>
        <time>2014-09-17T08:52:52.000Z</time>
      </trkpt>
      <trkpt lat="47.64311" lon="6.07255">
        <ele>281.79998779297</ele>
        <time>2014-09-17T08:52:58.000Z</time>
      </trkpt>
      <trkpt lat="47.64321" lon="6.0724">
        <ele>281.79998779297</ele>
        <time>2014-09-17T08:53:03.000Z</time>
      </trkpt>
      <trkpt lat="47.64323" lon="6.07238">
        <ele>281.39999389648</ele>
        <time>2014-09-17T08:53:06.000Z</time>
      </trkpt>
      <trkpt lat="47.64327" lon="6.07233">
        <ele>279.60000610352</ele>
        <time>2014-09-17T08:54:46.000Z</time>
      </trkpt>
      <trkpt lat="47.64328" lon="6.07231">
        <ele>279.60000610352</ele>
        <time>2014-09-17T08:54:47.000Z</time>
      </trkpt>
      <trkpt lat="47.64337" lon="6.07213">
        <ele>279.60000610352</ele>
        <time>2014-09-17T08:54:54.000Z</time>
      </trkpt>
      <trkpt lat="47.64345" lon="6.07202">
        <ele>279.60000610352</ele>
        <time>2014-09-17T08:55:00.000Z</time>
      </trkpt>
      <trkpt lat="47.64346" lon="6.07201">
        <ele>279.20001220703</ele>
        <time>2014-09-17T08:55:01.000Z</time>
      </trkpt>
      <trkpt lat="47.64347" lon="6.07199">
        <ele>278.79998779297</ele>
        <time>2014-09-17T08:55:02.000Z</time>
      </trkpt>
      <trkpt lat="47.64348" lon="6.07197">
        <ele>278.39999389648</ele>
        <time>2014-09-17T08:55:03.000Z</time>
      </trkpt>
      <trkpt lat="47.64348" lon="6.07197">
        <ele>278</ele>
        <time>2014-09-17T08:55:04.000Z</time>
      </trkpt>
      <trkpt lat="47.64348" lon="6.07196">
        <ele>277.60000610352</ele>
        <time>2014-09-17T08:55:05.000Z</time>
      </trkpt>
      <trkpt lat="47.64351" lon="6.07194">
        <ele>277.60000610352</ele>
        <time>2014-09-17T08:55:22.000Z</time>
      </trkpt>
      <trkpt lat="47.64358" lon="6.07181">
        <ele>277.60000610352</ele>
        <time>2014-09-17T08:55:28.000Z</time>
      </trkpt>
      <trkpt lat="47.64359" lon="6.07179">
        <ele>277.60000610352</ele>
        <time>2014-09-17T08:55:29.000Z</time>
      </trkpt>
      <trkpt lat="47.64363" lon="6.07174">
        <ele>277.60000610352</ele>
        <time>2014-09-17T08:55:34.000Z</time>
      </trkpt>
      <trkpt lat="47.64367" lon="6.07165">
        <ele>277.60000610352</ele>
        <time>2014-09-17T08:55:39.000Z</time>
      </trkpt>
      <trkpt lat="47.64371" lon="6.07158">
        <ele>277.20001220703</ele>
        <time>2014-09-17T08:55:44.000Z</time>
      </trkpt>
      <trkpt lat="47.64371" lon="6.07156">
        <ele>276.79998779297</ele>
        <time>2014-09-17T08:55:45.000Z</time>
      </trkpt>
      <trkpt lat="47.64372" lon="6.07154">
        <ele>276.39999389648</ele>
        <time>2014-09-17T08:55:46.000Z</time>
      </trkpt>
      <trkpt lat="47.64374" lon="6.07152">
        <ele>276</ele>
        <time>2014-09-17T08:55:47.000Z</time>
      </trkpt>
      <trkpt lat="47.64375" lon="6.0715">
        <ele>275.60000610352</ele>
        <time>2014-09-17T08:55:48.000Z</time>
      </trkpt>
      <trkpt lat="47.64376" lon="6.07146">
        <ele>275.60000610352</ele>
        <time>2014-09-17T08:55:49.000Z</time>
      </trkpt>
      <trkpt lat="47.6438" lon="6.0714">
        <ele>275.60000610352</ele>
        <time>2014-09-17T08:55:51.000Z</time>
      </trkpt>
      <trkpt lat="47.64387" lon="6.07129">
        <ele>275.20001220703</ele>
        <time>2014-09-17T08:55:54.000Z</time>
      </trkpt>
      <trkpt lat="47.64389" lon="6.07125">
        <ele>274.79998779297</ele>
        <time>2014-09-17T08:55:55.000Z</time>
      </trkpt>
      <trkpt lat="47.64392" lon="6.07121">
        <ele>274.20001220703</ele>
        <time>2014-09-17T08:55:56.000Z</time>
      </trkpt>
      <trkpt lat="47.64394" lon="6.07116">
        <ele>273.79998779297</ele>
        <time>2014-09-17T08:55:57.000Z</time>
      </trkpt>
      <trkpt lat="47.64396" lon="6.07111">
        <ele>273.39999389648</ele>
        <time>2014-09-17T08:55:58.000Z</time>
      </trkpt>
      <trkpt lat="47.644" lon="6.07103">
        <ele>273</ele>
        <time>2014-09-17T08:56:00.000Z</time>
      </trkpt>
      <trkpt lat="47.64403" lon="6.071">
        <ele>272.60000610352</ele>
        <time>2014-09-17T08:56:01.000Z</time>
      </trkpt>
      <trkpt lat="47.64404" lon="6.07096">
        <ele>272</ele>
        <time>2014-09-17T08:56:02.000Z</time>
      </trkpt>
      <trkpt lat="47.64406" lon="6.07092">
        <ele>271.60000610352</ele>
        <time>2014-09-17T08:56:03.000Z</time>
      </trkpt>
      <trkpt lat="47.64408" lon="6.07087">
        <ele>271.20001220703</ele>
        <time>2014-09-17T08:56:04.000Z</time>
      </trkpt>
      <trkpt lat="47.64408" lon="6.0707">
        <ele>271.20001220703</ele>
        <time>2014-09-17T08:56:07.000Z</time>
      </trkpt>
      <trkpt lat="47.64407" lon="6.07066">
        <ele>270.60000610352</ele>
        <time>2014-09-17T08:56:08.000Z</time>
      </trkpt>
      <trkpt lat="47.64405" lon="6.07062">
        <ele>270.20001220703</ele>
        <time>2014-09-17T08:56:09.000Z</time>
      </trkpt>
      <trkpt lat="47.64403" lon="6.07057">
        <ele>269.79998779297</ele>
        <time>2014-09-17T08:56:10.000Z</time>
      </trkpt>
      <trkpt lat="47.644" lon="6.07053">
        <ele>269.39999389648</ele>
        <time>2014-09-17T08:56:11.000Z</time>
      </trkpt>
      <trkpt lat="47.64398" lon="6.0705">
        <ele>268.79998779297</ele>
        <time>2014-09-17T08:56:12.000Z</time>
      </trkpt>
      <trkpt lat="47.64387" lon="6.07035">
        <ele>268.79998779297</ele>
        <time>2014-09-17T08:56:15.000Z</time>
      </trkpt>
      <trkpt lat="47.64381" lon="6.07025">
        <ele>268.79998779297</ele>
        <time>2014-09-17T08:56:17.000Z</time>
      </trkpt>
      <trkpt lat="47.6437" lon="6.07009">
        <ele>268.79998779297</ele>
        <time>2014-09-17T08:56:21.000Z</time>
      </trkpt>
      <trkpt lat="47.64346" lon="6.06972">
        <ele>268.79998779297</ele>
        <time>2014-09-17T08:56:29.000Z</time>
      </trkpt>
      <trkpt lat="47.64325" lon="6.06939">
        <ele>268.79998779297</ele>
        <time>2014-09-17T08:56:36.000Z</time>
      </trkpt>
      <trkpt lat="47.64312" lon="6.06917">
        <ele>268.79998779297</ele>
        <time>2014-09-17T08:56:42.000Z</time>
      </trkpt>
      <trkpt lat="47.64303" lon="6.06903">
        <ele>268.79998779297</ele>
        <time>2014-09-17T08:56:48.000Z</time>
      </trkpt>
      <trkpt lat="47.64294" lon="6.0689">
        <ele>269.20001220703</ele>
        <time>2014-09-17T08:56:54.000Z</time>
      </trkpt>
      <trkpt lat="47.64293" lon="6.06888">
        <ele>269.79998779297</ele>
        <time>2014-09-17T08:56:55.000Z</time>
      </trkpt>
      <trkpt lat="47.64292" lon="6.06887">
        <ele>270.20001220703</ele>
        <time>2014-09-17T08:56:56.000Z</time>
      </trkpt>
      <trkpt lat="47.64291" lon="6.06885">
        <ele>270.60000610352</ele>
        <time>2014-09-17T08:56:57.000Z</time>
      </trkpt>
      <trkpt lat="47.64289" lon="6.06883">
        <ele>271</ele>
        <time>2014-09-17T08:56:58.000Z</time>
      </trkpt>
      <trkpt lat="47.64284" lon="6.06875">
        <ele>271</ele>
        <time>2014-09-17T08:57:02.000Z</time>
      </trkpt>
      <trkpt lat="47.6428" lon="6.0687">
        <ele>271.39999389648</ele>
        <time>2014-09-17T08:57:04.000Z</time>
      </trkpt>
      <trkpt lat="47.64279" lon="6.06867">
        <ele>271.79998779297</ele>
        <time>2014-09-17T08:57:05.000Z</time>
      </trkpt>
      <trkpt lat="47.64278" lon="6.06866">
        <ele>272.20001220703</ele>
        <time>2014-09-17T08:57:06.000Z</time>
      </trkpt>
      <trkpt lat="47.64277" lon="6.06864">
        <ele>272.60000610352</ele>
        <time>2014-09-17T08:57:07.000Z</time>
      </trkpt>
      <trkpt lat="47.64276" lon="6.06862">
        <ele>273</ele>
        <time>2014-09-17T08:57:08.000Z</time>
      </trkpt>
      <trkpt lat="47.6427" lon="6.06854">
        <ele>273</ele>
        <time>2014-09-17T08:57:13.000Z</time>
      </trkpt>
      <trkpt lat="47.64268" lon="6.0685">
        <ele>273</ele>
        <time>2014-09-17T08:57:15.000Z</time>
      </trkpt>
      <trkpt lat="47.64263" lon="6.06844">
        <ele>273.39999389648</ele>
        <time>2014-09-17T08:57:19.000Z</time>
      </trkpt>
      <trkpt lat="47.64263" lon="6.06842">
        <ele>273.79998779297</ele>
        <time>2014-09-17T08:57:20.000Z</time>
      </trkpt>
      <trkpt lat="47.64262" lon="6.0684">
        <ele>274.20001220703</ele>
        <time>2014-09-17T08:57:21.000Z</time>
      </trkpt>
      <trkpt lat="47.64261" lon="6.06839">
        <ele>274.60000610352</ele>
        <time>2014-09-17T08:57:22.000Z</time>
      </trkpt>
      <trkpt lat="47.64259" lon="6.06837">
        <ele>275.20001220703</ele>
        <time>2014-09-17T08:57:23.000Z</time>
      </trkpt>
      <trkpt lat="47.64258" lon="6.06835">
        <ele>275.20001220703</ele>
        <time>2014-09-17T08:57:24.000Z</time>
      </trkpt>
      <trkpt lat="47.64252" lon="6.06824">
        <ele>275.20001220703</ele>
        <time>2014-09-17T08:57:30.000Z</time>
      </trkpt>
      <trkpt lat="47.64248" lon="6.06819">
        <ele>275.20001220703</ele>
        <time>2014-09-17T08:57:33.000Z</time>
      </trkpt>
      <trkpt lat="47.64243" lon="6.06813">
        <ele>275.60000610352</ele>
        <time>2014-09-17T08:57:36.000Z</time>
      </trkpt>
      <trkpt lat="47.64242" lon="6.06811">
        <ele>276</ele>
        <time>2014-09-17T08:57:37.000Z</time>
      </trkpt>
      <trkpt lat="47.64241" lon="6.06809">
        <ele>276.39999389648</ele>
        <time>2014-09-17T08:57:38.000Z</time>
      </trkpt>
      <trkpt lat="47.6424" lon="6.06807">
        <ele>276.79998779297</ele>
        <time>2014-09-17T08:57:39.000Z</time>
      </trkpt>
      <trkpt lat="47.64238" lon="6.06805">
        <ele>277.39999389648</ele>
        <time>2014-09-17T08:57:40.000Z</time>
      </trkpt>
      <trkpt lat="47.64233" lon="6.06797">
        <ele>277.39999389648</ele>
        <time>2014-09-17T08:57:44.000Z</time>
      </trkpt>
      <trkpt lat="47.64221" lon="6.06777">
        <ele>277.39999389648</ele>
        <time>2014-09-17T08:57:53.000Z</time>
      </trkpt>
      <trkpt lat="47.64212" lon="6.06761">
        <ele>277.39999389648</ele>
        <time>2014-09-17T08:58:00.000Z</time>
      </trkpt>
      <trkpt lat="47.64199" lon="6.06741">
        <ele>277.39999389648</ele>
        <time>2014-09-17T08:58:08.000Z</time>
      </trkpt>
      <trkpt lat="47.64193" lon="6.0673">
        <ele>277.79998779297</ele>
        <time>2014-09-17T08:58:13.000Z</time>
      </trkpt>
      <trkpt lat="47.64192" lon="6.06728">
        <ele>278.20001220703</ele>
        <time>2014-09-17T08:58:14.000Z</time>
      </trkpt>
      <trkpt lat="47.64191" lon="6.06726">
        <ele>278.60000610352</ele>
        <time>2014-09-17T08:58:15.000Z</time>
      </trkpt>
      <trkpt lat="47.6419" lon="6.06724">
        <ele>279</ele>
        <time>2014-09-17T08:58:16.000Z</time>
      </trkpt>
      <trkpt lat="47.64188" lon="6.06722">
        <ele>279.39999389648</ele>
        <time>2014-09-17T08:58:17.000Z</time>
      </trkpt>
      <trkpt lat="47.64184" lon="6.06714">
        <ele>279.39999389648</ele>
        <time>2014-09-17T08:58:21.000Z</time>
      </trkpt>
      <trkpt lat="47.64176" lon="6.067">
        <ele>279.39999389648</ele>
        <time>2014-09-17T08:58:28.000Z</time>
      </trkpt>
      <trkpt lat="47.64171" lon="6.06693">
        <ele>279.79998779297</ele>
        <time>2014-09-17T08:58:32.000Z</time>
      </trkpt>
      <trkpt lat="47.6417" lon="6.06691">
        <ele>280.20001220703</ele>
        <time>2014-09-17T08:58:33.000Z</time>
      </trkpt>
      <trkpt lat="47.64169" lon="6.06689">
        <ele>280.60000610352</ele>
        <time>2014-09-17T08:58:34.000Z</time>
      </trkpt>
      <trkpt lat="47.64168" lon="6.06688">
        <ele>281</ele>
        <time>2014-09-17T08:58:35.000Z</time>
      </trkpt>
      <trkpt lat="47.64167" lon="6.06686">
        <ele>281.39999389648</ele>
        <time>2014-09-17T08:58:36.000Z</time>
      </trkpt>
      <trkpt lat="47.64166" lon="6.06684">
        <ele>281.39999389648</ele>
        <time>2014-09-17T08:58:37.000Z</time>
      </trkpt>
      <trkpt lat="47.64158" lon="6.0667">
        <ele>281.39999389648</ele>
        <time>2014-09-17T08:58:45.000Z</time>
      </trkpt>
      <trkpt lat="47.6415" lon="6.06657">
        <ele>281.39999389648</ele>
        <time>2014-09-17T08:58:52.000Z</time>
      </trkpt>
      <trkpt lat="47.64147" lon="6.0665">
        <ele>281.79998779297</ele>
        <time>2014-09-17T08:58:56.000Z</time>
      </trkpt>
      <trkpt lat="47.64146" lon="6.06648">
        <ele>282.20001220703</ele>
        <time>2014-09-17T08:58:57.000Z</time>
      </trkpt>
      <trkpt lat="47.64145" lon="6.06646">
        <ele>282.60000610352</ele>
        <time>2014-09-17T08:58:58.000Z</time>
      </trkpt>
      <trkpt lat="47.64143" lon="6.06644">
        <ele>283</ele>
        <time>2014-09-17T08:58:59.000Z</time>
      </trkpt>
      <trkpt lat="47.64142" lon="6.06642">
        <ele>283.60000610352</ele>
        <time>2014-09-17T08:59:00.000Z</time>
      </trkpt>
      <trkpt lat="47.64133" lon="6.06627">
        <ele>283.60000610352</ele>
        <time>2014-09-17T08:59:08.000Z</time>
      </trkpt>
      <trkpt lat="47.64128" lon="6.06616">
        <ele>283.60000610352</ele>
        <time>2014-09-17T08:59:13.000Z</time>
      </trkpt>
      <trkpt lat="47.64124" lon="6.06611">
        <ele>283.60000610352</ele>
        <time>2014-09-17T08:59:16.000Z</time>
      </trkpt>
      <trkpt lat="47.64117" lon="6.066">
        <ele>283.60000610352</ele>
        <time>2014-09-17T08:59:22.000Z</time>
      </trkpt>
      <trkpt lat="47.64111" lon="6.06591">
        <ele>284</ele>
        <time>2014-09-17T08:59:28.000Z</time>
      </trkpt>
      <trkpt lat="47.6411" lon="6.06589">
        <ele>284.39999389648</ele>
        <time>2014-09-17T08:59:29.000Z</time>
      </trkpt>
      <trkpt lat="47.6411" lon="6.06587">
        <ele>284.79998779297</ele>
        <time>2014-09-17T08:59:30.000Z</time>
      </trkpt>
      <trkpt lat="47.64109" lon="6.06586">
        <ele>285.20001220703</ele>
        <time>2014-09-17T08:59:31.000Z</time>
      </trkpt>
      <trkpt lat="47.64108" lon="6.06585">
        <ele>285.60000610352</ele>
        <time>2014-09-17T08:59:32.000Z</time>
      </trkpt>
      <trkpt lat="47.64104" lon="6.06578">
        <ele>285.60000610352</ele>
        <time>2014-09-17T08:59:37.000Z</time>
      </trkpt>
      <trkpt lat="47.64097" lon="6.06562">
        <ele>285.60000610352</ele>
        <time>2014-09-17T08:59:43.000Z</time>
      </trkpt>
      <trkpt lat="47.64085" lon="6.06554">
        <ele>285.60000610352</ele>
        <time>2014-09-17T08:59:48.000Z</time>
      </trkpt>
      <trkpt lat="47.64066" lon="6.06549">
        <ele>285.60000610352</ele>
        <time>2014-09-17T08:59:56.000Z</time>
      </trkpt>
      <trkpt lat="47.64044" lon="6.06547">
        <ele>285.60000610352</ele>
        <time>2014-09-17T09:00:05.000Z</time>
      </trkpt>
      <trkpt lat="47.6404" lon="6.06544">
        <ele>285.60000610352</ele>
        <time>2014-09-17T09:00:07.000Z</time>
      </trkpt>
      <trkpt lat="47.64038" lon="6.06539">
        <ele>285.60000610352</ele>
        <time>2014-09-17T09:00:09.000Z</time>
      </trkpt>
      <trkpt lat="47.64038" lon="6.06533">
        <ele>285.60000610352</ele>
        <time>2014-09-17T09:00:11.000Z</time>
      </trkpt>
      <trkpt lat="47.64041" lon="6.06522">
        <ele>285.60000610352</ele>
        <time>2014-09-17T09:00:15.000Z</time>
      </trkpt>
      <trkpt lat="47.64052" lon="6.06501">
        <ele>285.60000610352</ele>
        <time>2014-09-17T09:00:21.000Z</time>
      </trkpt>
      <trkpt lat="47.64068" lon="6.06477">
        <ele>285.60000610352</ele>
        <time>2014-09-17T09:00:27.000Z</time>
      </trkpt>
      <trkpt lat="47.64084" lon="6.0645">
        <ele>285.60000610352</ele>
        <time>2014-09-17T09:00:33.000Z</time>
      </trkpt>
      <trkpt lat="47.641" lon="6.0642">
        <ele>285.60000610352</ele>
        <time>2014-09-17T09:00:40.000Z</time>
      </trkpt>
      <trkpt lat="47.64116" lon="6.06383">
        <ele>285.60000610352</ele>
        <time>2014-09-17T09:00:48.000Z</time>
      </trkpt>
      <trkpt lat="47.64131" lon="6.06352">
        <ele>285.60000610352</ele>
        <time>2014-09-17T09:00:55.000Z</time>
      </trkpt>
      <trkpt lat="47.64146" lon="6.06313">
        <ele>285.60000610352</ele>
        <time>2014-09-17T09:01:03.000Z</time>
      </trkpt>
      <trkpt lat="47.64152" lon="6.06294">
        <ele>285.60000610352</ele>
        <time>2014-09-17T09:01:07.000Z</time>
      </trkpt>
      <trkpt lat="47.6416" lon="6.06276">
        <ele>285.60000610352</ele>
        <time>2014-09-17T09:01:11.000Z</time>
      </trkpt>
      <trkpt lat="47.64174" lon="6.06236">
        <ele>285.20001220703</ele>
        <time>2014-09-17T09:01:18.000Z</time>
      </trkpt>
      <trkpt lat="47.64177" lon="6.06229">
        <ele>284.79998779297</ele>
        <time>2014-09-17T09:01:19.000Z</time>
      </trkpt>
      <trkpt lat="47.64179" lon="6.06222">
        <ele>284.39999389648</ele>
        <time>2014-09-17T09:01:20.000Z</time>
      </trkpt>
      <trkpt lat="47.64181" lon="6.06214">
        <ele>284</ele>
        <time>2014-09-17T09:01:21.000Z</time>
      </trkpt>
      <trkpt lat="47.64183" lon="6.06207">
        <ele>283.60000610352</ele>
        <time>2014-09-17T09:01:22.000Z</time>
      </trkpt>
      <trkpt lat="47.64191" lon="6.06183">
        <ele>283.60000610352</ele>
        <time>2014-09-17T09:01:25.000Z</time>
      </trkpt>
      <trkpt lat="47.64197" lon="6.06157">
        <ele>283.20001220703</ele>
        <time>2014-09-17T09:01:28.000Z</time>
      </trkpt>
      <trkpt lat="47.64198" lon="6.06149">
        <ele>282.60000610352</ele>
        <time>2014-09-17T09:01:29.000Z</time>
      </trkpt>
      <trkpt lat="47.64198" lon="6.06141">
        <ele>282.20001220703</ele>
        <time>2014-09-17T09:01:30.000Z</time>
      </trkpt>
      <trkpt lat="47.64197" lon="6.06133">
        <ele>281.79998779297</ele>
        <time>2014-09-17T09:01:31.000Z</time>
      </trkpt>
      <trkpt lat="47.64194" lon="6.06127">
        <ele>281.39999389648</ele>
        <time>2014-09-17T09:01:32.000Z</time>
      </trkpt>
      <trkpt lat="47.64188" lon="6.06116">
        <ele>281.39999389648</ele>
        <time>2014-09-17T09:01:34.000Z</time>
      </trkpt>
      <trkpt lat="47.64182" lon="6.06107">
        <ele>281.39999389648</ele>
        <time>2014-09-17T09:01:36.000Z</time>
      </trkpt>
      <trkpt lat="47.64169" lon="6.06089">
        <ele>281.39999389648</ele>
        <time>2014-09-17T09:01:40.000Z</time>
      </trkpt>
      <trkpt lat="47.64166" lon="6.06084">
        <ele>281.39999389648</ele>
        <time>2014-09-17T09:01:41.000Z</time>
      </trkpt>
      <trkpt lat="47.6415" lon="6.06058">
        <ele>281.39999389648</ele>
        <time>2014-09-17T09:01:45.000Z</time>
      </trkpt>
      <trkpt lat="47.64146" lon="6.06051">
        <ele>281.39999389648</ele>
        <time>2014-09-17T09:01:46.000Z</time>
      </trkpt>
      <trkpt lat="47.64134" lon="6.06032">
        <ele>281.39999389648</ele>
        <time>2014-09-17T09:01:49.000Z</time>
      </trkpt>
      <trkpt lat="47.64114" lon="6.06001">
        <ele>281.39999389648</ele>
        <time>2014-09-17T09:01:55.000Z</time>
      </trkpt>
      <trkpt lat="47.64094" lon="6.0597">
        <ele>281.39999389648</ele>
        <time>2014-09-17T09:02:03.000Z</time>
      </trkpt>
      <trkpt lat="47.64078" lon="6.05944">
        <ele>281.39999389648</ele>
        <time>2014-09-17T09:02:09.000Z</time>
      </trkpt>
      <trkpt lat="47.64075" lon="6.05939">
        <ele>281.39999389648</ele>
        <time>2014-09-17T09:02:10.000Z</time>
      </trkpt>
      <trkpt lat="47.64062" lon="6.05922">
        <ele>281.39999389648</ele>
        <time>2014-09-17T09:02:14.000Z</time>
      </trkpt>
      <trkpt lat="47.64057" lon="6.05913">
        <ele>281.39999389648</ele>
        <time>2014-09-17T09:02:16.000Z</time>
      </trkpt>
      <trkpt lat="47.64043" lon="6.05886">
        <ele>281.39999389648</ele>
        <time>2014-09-17T09:02:21.000Z</time>
      </trkpt>
      <trkpt lat="47.64038" lon="6.05874">
        <ele>281.39999389648</ele>
        <time>2014-09-17T09:02:23.000Z</time>
      </trkpt>
      <trkpt lat="47.64032" lon="6.05854">
        <ele>281.39999389648</ele>
        <time>2014-09-17T09:02:26.000Z</time>
      </trkpt>
      <trkpt lat="47.64019" lon="6.05796">
        <ele>281.39999389648</ele>
        <time>2014-09-17T09:02:34.000Z</time>
      </trkpt>
      <trkpt lat="47.64016" lon="6.05781">
        <ele>281</ele>
        <time>2014-09-17T09:02:36.000Z</time>
      </trkpt>
      <trkpt lat="47.64014" lon="6.05773">
        <ele>280.60000610352</ele>
        <time>2014-09-17T09:02:37.000Z</time>
      </trkpt>
      <trkpt lat="47.64011" lon="6.05764">
        <ele>280.20001220703</ele>
        <time>2014-09-17T09:02:38.000Z</time>
      </trkpt>
      <trkpt lat="47.64009" lon="6.05756">
        <ele>279.60000610352</ele>
        <time>2014-09-17T09:02:39.000Z</time>
      </trkpt>
      <trkpt lat="47.64008" lon="6.05748">
        <ele>279.20001220703</ele>
        <time>2014-09-17T09:02:40.000Z</time>
      </trkpt>
      <trkpt lat="47.64004" lon="6.05732">
        <ele>279.20001220703</ele>
        <time>2014-09-17T09:02:42.000Z</time>
      </trkpt>
      <trkpt lat="47.64" lon="6.0571">
        <ele>279.20001220703</ele>
        <time>2014-09-17T09:02:45.000Z</time>
      </trkpt>
      <trkpt lat="47.63994" lon="6.05684">
        <ele>279.20001220703</ele>
        <time>2014-09-17T09:02:50.000Z</time>
      </trkpt>
      <trkpt lat="47.63986" lon="6.05651">
        <ele>279.20001220703</ele>
        <time>2014-09-17T09:02:58.000Z</time>
      </trkpt>
      <trkpt lat="47.63981" lon="6.05633">
        <ele>279.20001220703</ele>
        <time>2014-09-17T09:03:02.000Z</time>
      </trkpt>
      <trkpt lat="47.63974" lon="6.05602">
        <ele>279.20001220703</ele>
        <time>2014-09-17T09:03:09.000Z</time>
      </trkpt>
      <trkpt lat="47.63966" lon="6.05566">
        <ele>279.20001220703</ele>
        <time>2014-09-17T09:03:17.000Z</time>
      </trkpt>
      <trkpt lat="47.63963" lon="6.05553">
        <ele>279.60000610352</ele>
        <time>2014-09-17T09:03:20.000Z</time>
      </trkpt>
      <trkpt lat="47.63962" lon="6.05548">
        <ele>280</ele>
        <time>2014-09-17T09:03:21.000Z</time>
      </trkpt>
      <trkpt lat="47.63961" lon="6.05544">
        <ele>280.39999389648</ele>
        <time>2014-09-17T09:03:22.000Z</time>
      </trkpt>
      <trkpt lat="47.6396" lon="6.05539">
        <ele>280.79998779297</ele>
        <time>2014-09-17T09:03:23.000Z</time>
      </trkpt>
      <trkpt lat="47.63959" lon="6.05535">
        <ele>281.20001220703</ele>
        <time>2014-09-17T09:03:24.000Z</time>
      </trkpt>
      <trkpt lat="47.63955" lon="6.05516">
        <ele>281.20001220703</ele>
        <time>2014-09-17T09:03:29.000Z</time>
      </trkpt>
      <trkpt lat="47.63949" lon="6.05492">
        <ele>281.20001220703</ele>
        <time>2014-09-17T09:03:35.000Z</time>
      </trkpt>
      <trkpt lat="47.63946" lon="6.05469">
        <ele>281.20001220703</ele>
        <time>2014-09-17T09:03:40.000Z</time>
      </trkpt>
      <trkpt lat="47.63949" lon="6.05458">
        <ele>281.20001220703</ele>
        <time>2014-09-17T09:03:42.000Z</time>
      </trkpt>
      <trkpt lat="47.63954" lon="6.05448">
        <ele>281.20001220703</ele>
        <time>2014-09-17T09:03:44.000Z</time>
      </trkpt>
      <trkpt lat="47.63962" lon="6.0544">
        <ele>280.79998779297</ele>
        <time>2014-09-17T09:03:46.000Z</time>
      </trkpt>
      <trkpt lat="47.63965" lon="6.05435">
        <ele>280.39999389648</ele>
        <time>2014-09-17T09:03:47.000Z</time>
      </trkpt>
      <trkpt lat="47.63968" lon="6.0543">
        <ele>280</ele>
        <time>2014-09-17T09:03:48.000Z</time>
      </trkpt>
      <trkpt lat="47.6397" lon="6.05424">
        <ele>279.60000610352</ele>
        <time>2014-09-17T09:03:49.000Z</time>
      </trkpt>
      <trkpt lat="47.63972" lon="6.05418">
        <ele>279.20001220703</ele>
        <time>2014-09-17T09:03:50.000Z</time>
      </trkpt>
      <trkpt lat="47.63974" lon="6.05405">
        <ele>279.20001220703</ele>
        <time>2014-09-17T09:03:52.000Z</time>
      </trkpt>
      <trkpt lat="47.63967" lon="6.05381">
        <ele>279.20001220703</ele>
        <time>2014-09-17T09:03:56.000Z</time>
      </trkpt>
      <trkpt lat="47.63956" lon="6.05348">
        <ele>279.20001220703</ele>
        <time>2014-09-17T09:04:02.000Z</time>
      </trkpt>
      <trkpt lat="47.63953" lon="6.05337">
        <ele>278.39999389648</ele>
        <time>2014-09-17T09:04:04.000Z</time>
      </trkpt>
      <trkpt lat="47.63951" lon="6.0533">
        <ele>278</ele>
        <time>2014-09-17T09:04:05.000Z</time>
      </trkpt>
      <trkpt lat="47.6395" lon="6.05324">
        <ele>277.60000610352</ele>
        <time>2014-09-17T09:04:06.000Z</time>
      </trkpt>
      <trkpt lat="47.63948" lon="6.05318">
        <ele>277.20001220703</ele>
        <time>2014-09-17T09:04:07.000Z</time>
      </trkpt>
      <trkpt lat="47.63946" lon="6.05306">
        <ele>277.20001220703</ele>
        <time>2014-09-17T09:04:09.000Z</time>
      </trkpt>
      <trkpt lat="47.63936" lon="6.05257">
        <ele>277.20001220703</ele>
        <time>2014-09-17T09:04:16.000Z</time>
      </trkpt>
      <trkpt lat="47.63934" lon="6.05241">
        <ele>276.79998779297</ele>
        <time>2014-09-17T09:04:18.000Z</time>
      </trkpt>
      <trkpt lat="47.63932" lon="6.05234">
        <ele>276.20001220703</ele>
        <time>2014-09-17T09:04:19.000Z</time>
      </trkpt>
      <trkpt lat="47.63931" lon="6.05228">
        <ele>275.79998779297</ele>
        <time>2014-09-17T09:04:20.000Z</time>
      </trkpt>
      <trkpt lat="47.63929" lon="6.05222">
        <ele>275.39999389648</ele>
        <time>2014-09-17T09:04:21.000Z</time>
      </trkpt>
      <trkpt lat="47.63928" lon="6.05216">
        <ele>275</ele>
        <time>2014-09-17T09:04:22.000Z</time>
      </trkpt>
      <trkpt lat="47.63929" lon="6.05204">
        <ele>275</ele>
        <time>2014-09-17T09:04:24.000Z</time>
      </trkpt>
      <trkpt lat="47.63931" lon="6.05198">
        <ele>275</ele>
        <time>2014-09-17T09:04:25.000Z</time>
      </trkpt>
      <trkpt lat="47.6394" lon="6.05187">
        <ele>274.60000610352</ele>
        <time>2014-09-17T09:04:27.000Z</time>
      </trkpt>
      <trkpt lat="47.63944" lon="6.05182">
        <ele>273.60000610352</ele>
        <time>2014-09-17T09:04:28.000Z</time>
      </trkpt>
      <trkpt lat="47.63949" lon="6.05177">
        <ele>273.20001220703</ele>
        <time>2014-09-17T09:04:29.000Z</time>
      </trkpt>
      <trkpt lat="47.63953" lon="6.05171">
        <ele>272.79998779297</ele>
        <time>2014-09-17T09:04:30.000Z</time>
      </trkpt>
      <trkpt lat="47.6397" lon="6.0515">
        <ele>272.79998779297</ele>
        <time>2014-09-17T09:04:34.000Z</time>
      </trkpt>
      <trkpt lat="47.63978" lon="6.0514">
        <ele>272.20001220703</ele>
        <time>2014-09-17T09:04:36.000Z</time>
      </trkpt>
      <trkpt lat="47.63982" lon="6.05135">
        <ele>271.79998779297</ele>
        <time>2014-09-17T09:04:37.000Z</time>
      </trkpt>
      <trkpt lat="47.63985" lon="6.0513">
        <ele>271.39999389648</ele>
        <time>2014-09-17T09:04:38.000Z</time>
      </trkpt>
      <trkpt lat="47.63989" lon="6.05125">
        <ele>271</ele>
        <time>2014-09-17T09:04:39.000Z</time>
      </trkpt>
      <trkpt lat="47.63992" lon="6.05121">
        <ele>270.39999389648</ele>
        <time>2014-09-17T09:04:40.000Z</time>
      </trkpt>
      <trkpt lat="47.63999" lon="6.05112">
        <ele>270.39999389648</ele>
        <time>2014-09-17T09:04:42.000Z</time>
      </trkpt>
      <trkpt lat="47.64002" lon="6.05107">
        <ele>270.39999389648</ele>
        <time>2014-09-17T09:04:43.000Z</time>
      </trkpt>
      <trkpt lat="47.64012" lon="6.05094">
        <ele>270.39999389648</ele>
        <time>2014-09-17T09:04:46.000Z</time>
      </trkpt>
      <trkpt lat="47.64018" lon="6.05086">
        <ele>270.39999389648</ele>
        <time>2014-09-17T09:04:48.000Z</time>
      </trkpt>
      <trkpt lat="47.64021" lon="6.05082">
        <ele>270.39999389648</ele>
        <time>2014-09-17T09:04:49.000Z</time>
      </trkpt>
      <trkpt lat="47.64026" lon="6.05065">
        <ele>270.39999389648</ele>
        <time>2014-09-17T09:04:52.000Z</time>
      </trkpt>
      <trkpt lat="47.64026" lon="6.05058">
        <ele>270</ele>
        <time>2014-09-17T09:04:53.000Z</time>
      </trkpt>
      <trkpt lat="47.64026" lon="6.05051">
        <ele>269.60000610352</ele>
        <time>2014-09-17T09:04:54.000Z</time>
      </trkpt>
      <trkpt lat="47.64026" lon="6.05045">
        <ele>269.20001220703</ele>
        <time>2014-09-17T09:04:55.000Z</time>
      </trkpt>
      <trkpt lat="47.64026" lon="6.05037">
        <ele>268.60000610352</ele>
        <time>2014-09-17T09:04:56.000Z</time>
      </trkpt>
      <trkpt lat="47.64026" lon="6.0503">
        <ele>268.20001220703</ele>
        <time>2014-09-17T09:04:57.000Z</time>
      </trkpt>
      <trkpt lat="47.64025" lon="6.04999">
        <ele>267.79998779297</ele>
        <time>2014-09-17T09:05:01.000Z</time>
      </trkpt>
      <trkpt lat="47.64025" lon="6.04992">
        <ele>267.39999389648</ele>
        <time>2014-09-17T09:05:02.000Z</time>
      </trkpt>
      <trkpt lat="47.64024" lon="6.04984">
        <ele>267</ele>
        <time>2014-09-17T09:05:03.000Z</time>
      </trkpt>
      <trkpt lat="47.64024" lon="6.04976">
        <ele>266.60000610352</ele>
        <time>2014-09-17T09:05:04.000Z</time>
      </trkpt>
      <trkpt lat="47.64023" lon="6.04968">
        <ele>266.20001220703</ele>
        <time>2014-09-17T09:05:05.000Z</time>
      </trkpt>
      <trkpt lat="47.6402" lon="6.04924">
        <ele>266.20001220703</ele>
        <time>2014-09-17T09:05:11.000Z</time>
      </trkpt>
      <trkpt lat="47.64014" lon="6.04882">
        <ele>266.20001220703</ele>
        <time>2014-09-17T09:05:17.000Z</time>
      </trkpt>
      <trkpt lat="47.64011" lon="6.0487">
        <ele>266.20001220703</ele>
        <time>2014-09-17T09:05:19.000Z</time>
      </trkpt>
      <trkpt lat="47.64005" lon="6.04845">
        <ele>266.20001220703</ele>
        <time>2014-09-17T09:05:23.000Z</time>
      </trkpt>
      <trkpt lat="47.64003" lon="6.0484">
        <ele>265.60000610352</ele>
        <time>2014-09-17T09:05:24.000Z</time>
      </trkpt>
      <trkpt lat="47.64001" lon="6.04834">
        <ele>265.20001220703</ele>
        <time>2014-09-17T09:05:25.000Z</time>
      </trkpt>
      <trkpt lat="47.64" lon="6.04828">
        <ele>264.79998779297</ele>
        <time>2014-09-17T09:05:26.000Z</time>
      </trkpt>
      <trkpt lat="47.63998" lon="6.04823">
        <ele>264.39999389648</ele>
        <time>2014-09-17T09:05:27.000Z</time>
      </trkpt>
      <trkpt lat="47.63997" lon="6.04817">
        <ele>264</ele>
        <time>2014-09-17T09:05:28.000Z</time>
      </trkpt>
      <trkpt lat="47.63988" lon="6.04786">
        <ele>264</ele>
        <time>2014-09-17T09:05:34.000Z</time>
      </trkpt>
      <trkpt lat="47.63978" lon="6.0475">
        <ele>264</ele>
        <time>2014-09-17T09:05:41.000Z</time>
      </trkpt>
      <trkpt lat="47.63968" lon="6.04717">
        <ele>263.60000610352</ele>
        <time>2014-09-17T09:05:47.000Z</time>
      </trkpt>
      <trkpt lat="47.63966" lon="6.04712">
        <ele>263.20001220703</ele>
        <time>2014-09-17T09:05:48.000Z</time>
      </trkpt>
      <trkpt lat="47.63964" lon="6.04706">
        <ele>262.79998779297</ele>
        <time>2014-09-17T09:05:49.000Z</time>
      </trkpt>
      <trkpt lat="47.63962" lon="6.047">
        <ele>262.39999389648</ele>
        <time>2014-09-17T09:05:50.000Z</time>
      </trkpt>
      <trkpt lat="47.6396" lon="6.04694">
        <ele>262</ele>
        <time>2014-09-17T09:05:51.000Z</time>
      </trkpt>
      <trkpt lat="47.63946" lon="6.04654">
        <ele>262</ele>
        <time>2014-09-17T09:05:58.000Z</time>
      </trkpt>
      <trkpt lat="47.63939" lon="6.04635">
        <ele>261.60000610352</ele>
        <time>2014-09-17T09:06:02.000Z</time>
      </trkpt>
      <trkpt lat="47.63937" lon="6.0463">
        <ele>261.20001220703</ele>
        <time>2014-09-17T09:06:03.000Z</time>
      </trkpt>
      <trkpt lat="47.63936" lon="6.04626">
        <ele>260.79998779297</ele>
        <time>2014-09-17T09:06:04.000Z</time>
      </trkpt>
      <trkpt lat="47.63934" lon="6.04621">
        <ele>260.39999389648</ele>
        <time>2014-09-17T09:06:05.000Z</time>
      </trkpt>
      <trkpt lat="47.63932" lon="6.04617">
        <ele>259.79998779297</ele>
        <time>2014-09-17T09:06:06.000Z</time>
      </trkpt>
      <trkpt lat="47.63921" lon="6.04589">
        <ele>259.79998779297</ele>
        <time>2014-09-17T09:06:11.000Z</time>
      </trkpt>
      <trkpt lat="47.63898" lon="6.04536">
        <ele>259.79998779297</ele>
        <time>2014-09-17T09:06:21.000Z</time>
      </trkpt>
      <trkpt lat="47.63889" lon="6.04515">
        <ele>259.39999389648</ele>
        <time>2014-09-17T09:06:25.000Z</time>
      </trkpt>
      <trkpt lat="47.63887" lon="6.04509">
        <ele>259</ele>
        <time>2014-09-17T09:06:26.000Z</time>
      </trkpt>
      <trkpt lat="47.63884" lon="6.04503">
        <ele>258.60000610352</ele>
        <time>2014-09-17T09:06:27.000Z</time>
      </trkpt>
      <trkpt lat="47.63882" lon="6.04498">
        <ele>258.20001220703</ele>
        <time>2014-09-17T09:06:28.000Z</time>
      </trkpt>
      <trkpt lat="47.6388" lon="6.04492">
        <ele>257.79998779297</ele>
        <time>2014-09-17T09:06:29.000Z</time>
      </trkpt>
      <trkpt lat="47.63876" lon="6.0448">
        <ele>257.79998779297</ele>
        <time>2014-09-17T09:06:31.000Z</time>
      </trkpt>
      <trkpt lat="47.63861" lon="6.04434">
        <ele>257.39999389648</ele>
        <time>2014-09-17T09:06:38.000Z</time>
      </trkpt>
      <trkpt lat="47.63859" lon="6.04427">
        <ele>257</ele>
        <time>2014-09-17T09:06:39.000Z</time>
      </trkpt>
      <trkpt lat="47.63857" lon="6.0442">
        <ele>256.60000610352</ele>
        <time>2014-09-17T09:06:40.000Z</time>
      </trkpt>
      <trkpt lat="47.63855" lon="6.04413">
        <ele>256.20001220703</ele>
        <time>2014-09-17T09:06:41.000Z</time>
      </trkpt>
      <trkpt lat="47.63853" lon="6.04406">
        <ele>255.80000305176</ele>
        <time>2014-09-17T09:06:42.000Z</time>
      </trkpt>
      <trkpt lat="47.63843" lon="6.04362">
        <ele>255.80000305176</ele>
        <time>2014-09-17T09:06:48.000Z</time>
      </trkpt>
      <trkpt lat="47.63833" lon="6.04315">
        <ele>255.80000305176</ele>
        <time>2014-09-17T09:06:55.000Z</time>
      </trkpt>
      <trkpt lat="47.63832" lon="6.04308">
        <ele>255</ele>
        <time>2014-09-17T09:06:56.000Z</time>
      </trkpt>
      <trkpt lat="47.63831" lon="6.04302">
        <ele>254.39999389648</ele>
        <time>2014-09-17T09:06:57.000Z</time>
      </trkpt>
      <trkpt lat="47.63829" lon="6.04295">
        <ele>254</ele>
        <time>2014-09-17T09:06:58.000Z</time>
      </trkpt>
      <trkpt lat="47.63827" lon="6.04288">
        <ele>253.60000610352</ele>
        <time>2014-09-17T09:06:59.000Z</time>
      </trkpt>
      <trkpt lat="47.63825" lon="6.04281">
        <ele>253.60000610352</ele>
        <time>2014-09-17T09:07:00.000Z</time>
      </trkpt>
      <trkpt lat="47.63819" lon="6.04253">
        <ele>253.19999694824</ele>
        <time>2014-09-17T09:07:05.000Z</time>
      </trkpt>
      <trkpt lat="47.63818" lon="6.04249">
        <ele>252.80000305176</ele>
        <time>2014-09-17T09:07:06.000Z</time>
      </trkpt>
      <trkpt lat="47.63817" lon="6.04244">
        <ele>252.39999389648</ele>
        <time>2014-09-17T09:07:07.000Z</time>
      </trkpt>
      <trkpt lat="47.63816" lon="6.04239">
        <ele>252</ele>
        <time>2014-09-17T09:07:08.000Z</time>
      </trkpt>
      <trkpt lat="47.63815" lon="6.04234">
        <ele>251.60000610352</ele>
        <time>2014-09-17T09:07:09.000Z</time>
      </trkpt>
      <trkpt lat="47.63812" lon="6.04224">
        <ele>251.60000610352</ele>
        <time>2014-09-17T09:07:11.000Z</time>
      </trkpt>
      <trkpt lat="47.63804" lon="6.04182">
        <ele>251.60000610352</ele>
        <time>2014-09-17T09:07:18.000Z</time>
      </trkpt>
      <trkpt lat="47.63803" lon="6.04176">
        <ele>251.19999694824</ele>
        <time>2014-09-17T09:07:19.000Z</time>
      </trkpt>
      <trkpt lat="47.63802" lon="6.04169">
        <ele>250.80000305176</ele>
        <time>2014-09-17T09:07:20.000Z</time>
      </trkpt>
      <trkpt lat="47.63801" lon="6.04162">
        <ele>249.80000305176</ele>
        <time>2014-09-17T09:07:21.000Z</time>
      </trkpt>
      <trkpt lat="47.63799" lon="6.04155">
        <ele>249.39999389648</ele>
        <time>2014-09-17T09:07:22.000Z</time>
      </trkpt>
      <trkpt lat="47.63796" lon="6.04133">
        <ele>249.39999389648</ele>
        <time>2014-09-17T09:07:25.000Z</time>
      </trkpt>
      <trkpt lat="47.63793" lon="6.0411">
        <ele>249</ele>
        <time>2014-09-17T09:07:28.000Z</time>
      </trkpt>
      <trkpt lat="47.63792" lon="6.04103">
        <ele>248.60000610352</ele>
        <time>2014-09-17T09:07:29.000Z</time>
      </trkpt>
      <trkpt lat="47.63791" lon="6.04095">
        <ele>248.19999694824</ele>
        <time>2014-09-17T09:07:30.000Z</time>
      </trkpt>
      <trkpt lat="47.6379" lon="6.04088">
        <ele>247.80000305176</ele>
        <time>2014-09-17T09:07:31.000Z</time>
      </trkpt>
      <trkpt lat="47.63789" lon="6.04082">
        <ele>247.39999389648</ele>
        <time>2014-09-17T09:07:32.000Z</time>
      </trkpt>
      <trkpt lat="47.63787" lon="6.04069">
        <ele>247</ele>
        <time>2014-09-17T09:07:34.000Z</time>
      </trkpt>
      <trkpt lat="47.63786" lon="6.04063">
        <ele>246.39999389648</ele>
        <time>2014-09-17T09:07:35.000Z</time>
      </trkpt>
      <trkpt lat="47.63784" lon="6.04056">
        <ele>246</ele>
        <time>2014-09-17T09:07:36.000Z</time>
      </trkpt>
      <trkpt lat="47.63783" lon="6.04051">
        <ele>245.60000610352</ele>
        <time>2014-09-17T09:07:37.000Z</time>
      </trkpt>
      <trkpt lat="47.63783" lon="6.04045">
        <ele>245.19999694824</ele>
        <time>2014-09-17T09:07:38.000Z</time>
      </trkpt>
      <trkpt lat="47.6378" lon="6.04028">
        <ele>245.19999694824</ele>
        <time>2014-09-17T09:07:41.000Z</time>
      </trkpt>
      <trkpt lat="47.63774" lon="6.03991">
        <ele>244.60000610352</ele>
        <time>2014-09-17T09:07:47.000Z</time>
      </trkpt>
      <trkpt lat="47.63773" lon="6.03985">
        <ele>244.19999694824</ele>
        <time>2014-09-17T09:07:48.000Z</time>
      </trkpt>
      <trkpt lat="47.63771" lon="6.03978">
        <ele>243.80000305176</ele>
        <time>2014-09-17T09:07:49.000Z</time>
      </trkpt>
      <trkpt lat="47.6377" lon="6.03972">
        <ele>243.39999389648</ele>
        <time>2014-09-17T09:07:50.000Z</time>
      </trkpt>
      <trkpt lat="47.63769" lon="6.03966">
        <ele>243</ele>
        <time>2014-09-17T09:07:51.000Z</time>
      </trkpt>
      <trkpt lat="47.63766" lon="6.03951">
        <ele>243</ele>
        <time>2014-09-17T09:07:54.000Z</time>
      </trkpt>
      <trkpt lat="47.6376" lon="6.0391">
        <ele>242.39999389648</ele>
        <time>2014-09-17T09:08:01.000Z</time>
      </trkpt>
      <trkpt lat="47.63758" lon="6.03903">
        <ele>242</ele>
        <time>2014-09-17T09:08:02.000Z</time>
      </trkpt>
      <trkpt lat="47.63757" lon="6.03896">
        <ele>241.60000610352</ele>
        <time>2014-09-17T09:08:03.000Z</time>
      </trkpt>
      <trkpt lat="47.63755" lon="6.03888">
        <ele>241.19999694824</ele>
        <time>2014-09-17T09:08:04.000Z</time>
      </trkpt>
      <trkpt lat="47.63753" lon="6.03881">
        <ele>240.80000305176</ele>
        <time>2014-09-17T09:08:05.000Z</time>
      </trkpt>
      <trkpt lat="47.63749" lon="6.03858">
        <ele>240.80000305176</ele>
        <time>2014-09-17T09:08:08.000Z</time>
      </trkpt>
      <trkpt lat="47.63747" lon="6.03851">
        <ele>240.39999389648</ele>
        <time>2014-09-17T09:08:09.000Z</time>
      </trkpt>
      <trkpt lat="47.63746" lon="6.03844">
        <ele>239.39999389648</ele>
        <time>2014-09-17T09:08:10.000Z</time>
      </trkpt>
      <trkpt lat="47.63745" lon="6.03838">
        <ele>239</ele>
        <time>2014-09-17T09:08:11.000Z</time>
      </trkpt>
      <trkpt lat="47.63743" lon="6.03833">
        <ele>238.60000610352</ele>
        <time>2014-09-17T09:08:12.000Z</time>
      </trkpt>
      <trkpt lat="47.63742" lon="6.03827">
        <ele>238.60000610352</ele>
        <time>2014-09-17T09:08:13.000Z</time>
      </trkpt>
      <trkpt lat="47.63737" lon="6.03798">
        <ele>238.19999694824</ele>
        <time>2014-09-17T09:08:18.000Z</time>
      </trkpt>
      <trkpt lat="47.63736" lon="6.03791">
        <ele>237.60000610352</ele>
        <time>2014-09-17T09:08:19.000Z</time>
      </trkpt>
      <trkpt lat="47.63735" lon="6.03786">
        <ele>237.19999694824</ele>
        <time>2014-09-17T09:08:20.000Z</time>
      </trkpt>
      <trkpt lat="47.63734" lon="6.0378">
        <ele>236.80000305176</ele>
        <time>2014-09-17T09:08:21.000Z</time>
      </trkpt>
      <trkpt lat="47.63732" lon="6.03775">
        <ele>236.39999389648</ele>
        <time>2014-09-17T09:08:22.000Z</time>
      </trkpt>
      <trkpt lat="47.63729" lon="6.03765">
        <ele>236.39999389648</ele>
        <time>2014-09-17T09:08:25.000Z</time>
      </trkpt>
      <trkpt lat="47.63725" lon="6.03754">
        <ele>236.39999389648</ele>
        <time>2014-09-17T09:08:31.000Z</time>
      </trkpt>
      <trkpt lat="47.63724" lon="6.03746">
        <ele>233.19999694824</ele>
        <time>2014-09-17T09:10:07.000Z</time>
      </trkpt>
      <trkpt lat="47.63723" lon="6.0374">
        <ele>233.19999694824</ele>
        <time>2014-09-17T09:10:09.000Z</time>
      </trkpt>
      <trkpt lat="47.63718" lon="6.03718">
        <ele>233.19999694824</ele>
        <time>2014-09-17T09:10:14.000Z</time>
      </trkpt>
      <trkpt lat="47.6371" lon="6.03681">
        <ele>233.19999694824</ele>
        <time>2014-09-17T09:10:21.000Z</time>
      </trkpt>
      <trkpt lat="47.63708" lon="6.03675">
        <ele>232.80000305176</ele>
        <time>2014-09-17T09:10:22.000Z</time>
      </trkpt>
      <trkpt lat="47.63707" lon="6.0367">
        <ele>232.39999389648</ele>
        <time>2014-09-17T09:10:23.000Z</time>
      </trkpt>
      <trkpt lat="47.63706" lon="6.03665">
        <ele>232</ele>
        <time>2014-09-17T09:10:24.000Z</time>
      </trkpt>
      <trkpt lat="47.63705" lon="6.0366">
        <ele>231.60000610352</ele>
        <time>2014-09-17T09:10:25.000Z</time>
      </trkpt>
      <trkpt lat="47.63704" lon="6.03655">
        <ele>231.19999694824</ele>
        <time>2014-09-17T09:10:26.000Z</time>
      </trkpt>
      <trkpt lat="47.63702" lon="6.03646">
        <ele>231.19999694824</ele>
        <time>2014-09-17T09:10:28.000Z</time>
      </trkpt>
      <trkpt lat="47.63699" lon="6.03621">
        <ele>230.80000305176</ele>
        <time>2014-09-17T09:10:33.000Z</time>
      </trkpt>
      <trkpt lat="47.63698" lon="6.03615">
        <ele>230.39999389648</ele>
        <time>2014-09-17T09:10:34.000Z</time>
      </trkpt>
      <trkpt lat="47.63697" lon="6.03609">
        <ele>230</ele>
        <time>2014-09-17T09:10:35.000Z</time>
      </trkpt>
      <trkpt lat="47.63697" lon="6.03603">
        <ele>229.60000610352</ele>
        <time>2014-09-17T09:10:36.000Z</time>
      </trkpt>
      <trkpt lat="47.63697" lon="6.03596">
        <ele>229.19999694824</ele>
        <time>2014-09-17T09:10:37.000Z</time>
      </trkpt>
      <trkpt lat="47.63695" lon="6.03581">
        <ele>228.80000305176</ele>
        <time>2014-09-17T09:10:39.000Z</time>
      </trkpt>
      <trkpt lat="47.63694" lon="6.03574">
        <ele>228.39999389648</ele>
        <time>2014-09-17T09:10:40.000Z</time>
      </trkpt>
      <trkpt lat="47.63693" lon="6.03567">
        <ele>228</ele>
        <time>2014-09-17T09:10:41.000Z</time>
      </trkpt>
      <trkpt lat="47.63693" lon="6.03561">
        <ele>227.60000610352</ele>
        <time>2014-09-17T09:10:42.000Z</time>
      </trkpt>
      <trkpt lat="47.63692" lon="6.03556">
        <ele>227.19999694824</ele>
        <time>2014-09-17T09:10:43.000Z</time>
      </trkpt>
      <trkpt lat="47.63691" lon="6.03546">
        <ele>227.19999694824</ele>
        <time>2014-09-17T09:10:45.000Z</time>
      </trkpt>
      <trkpt lat="47.63692" lon="6.03534">
        <ele>226.80000305176</ele>
        <time>2014-09-17T09:10:48.000Z</time>
      </trkpt>
      <trkpt lat="47.63695" lon="6.03531">
        <ele>226.39999389648</ele>
        <time>2014-09-17T09:10:49.000Z</time>
      </trkpt>
      <trkpt lat="47.63698" lon="6.0353">
        <ele>226</ele>
        <time>2014-09-17T09:10:50.000Z</time>
      </trkpt>
      <trkpt lat="47.637" lon="6.03529">
        <ele>225.60000610352</ele>
        <time>2014-09-17T09:10:51.000Z</time>
      </trkpt>
      <trkpt lat="47.63703" lon="6.03528">
        <ele>225.19999694824</ele>
        <time>2014-09-17T09:10:52.000Z</time>
      </trkpt>
      <trkpt lat="47.63723" lon="6.03519">
        <ele>225.19999694824</ele>
        <time>2014-09-17T09:10:59.000Z</time>
      </trkpt>
      <trkpt lat="47.63738" lon="6.03515">
        <ele>225.19999694824</ele>
        <time>2014-09-17T09:11:04.000Z</time>
      </trkpt>
      <trkpt lat="47.63756" lon="6.03511">
        <ele>225.19999694824</ele>
        <time>2014-09-17T09:11:11.000Z</time>
      </trkpt>
      <trkpt lat="47.6377" lon="6.03513">
        <ele>225.60000610352</ele>
        <time>2014-09-17T09:11:17.000Z</time>
      </trkpt>
      <trkpt lat="47.63772" lon="6.03512">
        <ele>226</ele>
        <time>2014-09-17T09:11:18.000Z</time>
      </trkpt>
      <trkpt lat="47.63773" lon="6.03513">
        <ele>226.39999389648</ele>
        <time>2014-09-17T09:11:19.000Z</time>
      </trkpt>
      <trkpt lat="47.63775" lon="6.03514">
        <ele>226.80000305176</ele>
        <time>2014-09-17T09:11:20.000Z</time>
      </trkpt>
      <trkpt lat="47.63776" lon="6.03514">
        <ele>227.19999694824</ele>
        <time>2014-09-17T09:11:21.000Z</time>
      </trkpt>
      <trkpt lat="47.63781" lon="6.03517">
        <ele>227.19999694824</ele>
        <time>2014-09-17T09:11:24.000Z</time>
      </trkpt>
      <trkpt lat="47.63793" lon="6.03522">
        <ele>227.19999694824</ele>
        <time>2014-09-17T09:11:31.000Z</time>
      </trkpt>
      <trkpt lat="47.63803" lon="6.03526">
        <ele>227.60000610352</ele>
        <time>2014-09-17T09:11:37.000Z</time>
      </trkpt>
      <trkpt lat="47.63805" lon="6.03527">
        <ele>228</ele>
        <time>2014-09-17T09:11:38.000Z</time>
      </trkpt>
      <trkpt lat="47.63807" lon="6.03527">
        <ele>228.39999389648</ele>
        <time>2014-09-17T09:11:39.000Z</time>
      </trkpt>
      <trkpt lat="47.63808" lon="6.03527">
        <ele>228.80000305176</ele>
        <time>2014-09-17T09:11:40.000Z</time>
      </trkpt>
      <trkpt lat="47.63812" lon="6.03528">
        <ele>229.19999694824</ele>
        <time>2014-09-17T09:11:41.000Z</time>
      </trkpt>
      <trkpt lat="47.63827" lon="6.03531">
        <ele>229.19999694824</ele>
        <time>2014-09-17T09:11:45.000Z</time>
      </trkpt>
      <trkpt lat="47.63847" lon="6.03535">
        <ele>229.19999694824</ele>
        <time>2014-09-17T09:11:52.000Z</time>
      </trkpt>
      <trkpt lat="47.63857" lon="6.03539">
        <ele>229.60000610352</ele>
        <time>2014-09-17T09:11:55.000Z</time>
      </trkpt>
      <trkpt lat="47.6386" lon="6.03541">
        <ele>230</ele>
        <time>2014-09-17T09:11:56.000Z</time>
      </trkpt>
      <trkpt lat="47.63863" lon="6.03543">
        <ele>230.39999389648</ele>
        <time>2014-09-17T09:11:57.000Z</time>
      </trkpt>
      <trkpt lat="47.63867" lon="6.03545">
        <ele>230.80000305176</ele>
        <time>2014-09-17T09:11:58.000Z</time>
      </trkpt>
      <trkpt lat="47.6387" lon="6.03547">
        <ele>231.19999694824</ele>
        <time>2014-09-17T09:11:59.000Z</time>
      </trkpt>
      <trkpt lat="47.6389" lon="6.03558">
        <ele>231.19999694824</ele>
        <time>2014-09-17T09:12:06.000Z</time>
      </trkpt>
      <trkpt lat="47.63904" lon="6.03565">
        <ele>231.19999694824</ele>
        <time>2014-09-17T09:12:12.000Z</time>
      </trkpt>
      <trkpt lat="47.63918" lon="6.0357">
        <ele>232</ele>
        <time>2014-09-17T09:12:17.000Z</time>
      </trkpt>
      <trkpt lat="47.6392" lon="6.03571">
        <ele>232.39999389648</ele>
        <time>2014-09-17T09:12:18.000Z</time>
      </trkpt>
      <trkpt lat="47.63923" lon="6.03572">
        <ele>232.80000305176</ele>
        <time>2014-09-17T09:12:19.000Z</time>
      </trkpt>
      <trkpt lat="47.63925" lon="6.03574">
        <ele>233.19999694824</ele>
        <time>2014-09-17T09:12:20.000Z</time>
      </trkpt>
      <trkpt lat="47.63937" lon="6.03576">
        <ele>233.19999694824</ele>
        <time>2014-09-17T09:12:24.000Z</time>
      </trkpt>
      <trkpt lat="47.63961" lon="6.03585">
        <ele>233.19999694824</ele>
        <time>2014-09-17T09:12:31.000Z</time>
      </trkpt>
      <trkpt lat="47.63982" lon="6.03595">
        <ele>233.19999694824</ele>
        <time>2014-09-17T09:12:38.000Z</time>
      </trkpt>
      <trkpt lat="47.63997" lon="6.03603">
        <ele>233.19999694824</ele>
        <time>2014-09-17T09:12:44.000Z</time>
      </trkpt>
      <trkpt lat="47.64015" lon="6.03616">
        <ele>233.19999694824</ele>
        <time>2014-09-17T09:12:52.000Z</time>
      </trkpt>
      <trkpt lat="47.64025" lon="6.03623">
        <ele>233.60000610352</ele>
        <time>2014-09-17T09:12:56.000Z</time>
      </trkpt>
      <trkpt lat="47.64028" lon="6.03626">
        <ele>234</ele>
        <time>2014-09-17T09:12:57.000Z</time>
      </trkpt>
      <trkpt lat="47.64031" lon="6.03628">
        <ele>234.60000610352</ele>
        <time>2014-09-17T09:12:58.000Z</time>
      </trkpt>
      <trkpt lat="47.64034" lon="6.0363">
        <ele>235</ele>
        <time>2014-09-17T09:12:59.000Z</time>
      </trkpt>
      <trkpt lat="47.64037" lon="6.03632">
        <ele>235.39999389648</ele>
        <time>2014-09-17T09:13:00.000Z</time>
      </trkpt>
      <trkpt lat="47.6405" lon="6.03642">
        <ele>235.39999389648</ele>
        <time>2014-09-17T09:13:05.000Z</time>
      </trkpt>
      <trkpt lat="47.64071" lon="6.03652">
        <ele>235.39999389648</ele>
        <time>2014-09-17T09:13:12.000Z</time>
      </trkpt>
      <trkpt lat="47.64094" lon="6.03664">
        <ele>235.39999389648</ele>
        <time>2014-09-17T09:13:19.000Z</time>
      </trkpt>
      <trkpt lat="47.64131" lon="6.03681">
        <ele>235.39999389648</ele>
        <time>2014-09-17T09:13:29.000Z</time>
      </trkpt>
      <trkpt lat="47.64163" lon="6.03687">
        <ele>235.39999389648</ele>
        <time>2014-09-17T09:13:38.000Z</time>
      </trkpt>
      <trkpt lat="47.64181" lon="6.03685">
        <ele>235.39999389648</ele>
        <time>2014-09-17T09:13:43.000Z</time>
      </trkpt>
      <trkpt lat="47.64207" lon="6.03687">
        <ele>235.39999389648</ele>
        <time>2014-09-17T09:13:51.000Z</time>
      </trkpt>
      <trkpt lat="47.64237" lon="6.03695">
        <ele>235.39999389648</ele>
        <time>2014-09-17T09:14:00.000Z</time>
      </trkpt>
      <trkpt lat="47.64264" lon="6.03703">
        <ele>235.39999389648</ele>
        <time>2014-09-17T09:14:07.000Z</time>
      </trkpt>
      <trkpt lat="47.6429" lon="6.0371">
        <ele>235.39999389648</ele>
        <time>2014-09-17T09:14:15.000Z</time>
      </trkpt>
      <trkpt lat="47.64317" lon="6.03709">
        <ele>235.39999389648</ele>
        <time>2014-09-17T09:14:23.000Z</time>
      </trkpt>
      <trkpt lat="47.64336" lon="6.03707">
        <ele>235.39999389648</ele>
        <time>2014-09-17T09:14:29.000Z</time>
      </trkpt>
      <trkpt lat="47.64363" lon="6.03702">
        <ele>235.39999389648</ele>
        <time>2014-09-17T09:14:36.000Z</time>
      </trkpt>
      <trkpt lat="47.64367" lon="6.037">
        <ele>235</ele>
        <time>2014-09-17T09:14:37.000Z</time>
      </trkpt>
      <trkpt lat="47.64372" lon="6.03699">
        <ele>234.60000610352</ele>
        <time>2014-09-17T09:14:38.000Z</time>
      </trkpt>
      <trkpt lat="47.64377" lon="6.03697">
        <ele>234.19999694824</ele>
        <time>2014-09-17T09:14:39.000Z</time>
      </trkpt>
      <trkpt lat="47.64383" lon="6.03695">
        <ele>233.80000305176</ele>
        <time>2014-09-17T09:14:40.000Z</time>
      </trkpt>
      <trkpt lat="47.64389" lon="6.03691">
        <ele>233.39999389648</ele>
        <time>2014-09-17T09:14:41.000Z</time>
      </trkpt>
      <trkpt lat="47.64395" lon="6.03686">
        <ele>232.80000305176</ele>
        <time>2014-09-17T09:14:42.000Z</time>
      </trkpt>
      <trkpt lat="47.64401" lon="6.03679">
        <ele>232.39999389648</ele>
        <time>2014-09-17T09:14:43.000Z</time>
      </trkpt>
      <trkpt lat="47.64404" lon="6.0367">
        <ele>231.60000610352</ele>
        <time>2014-09-17T09:14:44.000Z</time>
      </trkpt>
      <trkpt lat="47.64407" lon="6.0366">
        <ele>231.19999694824</ele>
        <time>2014-09-17T09:14:45.000Z</time>
      </trkpt>
      <trkpt lat="47.6441" lon="6.0365">
        <ele>231.19999694824</ele>
        <time>2014-09-17T09:14:46.000Z</time>
      </trkpt>
      <trkpt lat="47.64414" lon="6.03641">
        <ele>230.80000305176</ele>
        <time>2014-09-17T09:14:47.000Z</time>
      </trkpt>
      <trkpt lat="47.64419" lon="6.03633">
        <ele>230.39999389648</ele>
        <time>2014-09-17T09:14:48.000Z</time>
      </trkpt>
      <trkpt lat="47.64425" lon="6.03627">
        <ele>230</ele>
        <time>2014-09-17T09:14:49.000Z</time>
      </trkpt>
      <trkpt lat="47.64432" lon="6.03623">
        <ele>229.60000610352</ele>
        <time>2014-09-17T09:14:50.000Z</time>
      </trkpt>
      <trkpt lat="47.64439" lon="6.03622">
        <ele>229.19999694824</ele>
        <time>2014-09-17T09:14:51.000Z</time>
      </trkpt>
      <trkpt lat="47.64446" lon="6.03622">
        <ele>229.19999694824</ele>
        <time>2014-09-17T09:14:52.000Z</time>
      </trkpt>
      <trkpt lat="47.64459" lon="6.03624">
        <ele>229.19999694824</ele>
        <time>2014-09-17T09:14:54.000Z</time>
      </trkpt>
      <trkpt lat="47.64466" lon="6.03625">
        <ele>229.19999694824</ele>
        <time>2014-09-17T09:14:55.000Z</time>
      </trkpt>
      <trkpt lat="47.64472" lon="6.03625">
        <ele>229.19999694824</ele>
        <time>2014-09-17T09:14:56.000Z</time>
      </trkpt>
      <trkpt lat="47.64505" lon="6.03623">
        <ele>229.19999694824</ele>
        <time>2014-09-17T09:15:02.000Z</time>
      </trkpt>
      <trkpt lat="47.64524" lon="6.03618">
        <ele>229.19999694824</ele>
        <time>2014-09-17T09:15:06.000Z</time>
      </trkpt>
      <trkpt lat="47.64531" lon="6.03616">
        <ele>229.19999694824</ele>
        <time>2014-09-17T09:15:08.000Z</time>
      </trkpt>
      <trkpt lat="47.64535" lon="6.03615">
        <ele>229.19999694824</ele>
        <time>2014-09-17T09:15:10.000Z</time>
      </trkpt>
      <trkpt lat="47.64535" lon="6.03614">
        <ele>229.19999694824</ele>
        <time>2014-09-17T09:15:11.000Z</time>
      </trkpt>
      <trkpt lat="47.64535" lon="6.03614">
        <ele>229.19999694824</ele>
        <time>2014-09-17T09:15:12.000Z</time>
      </trkpt>
      <trkpt lat="47.64529" lon="6.03615">
        <ele>229.19999694824</ele>
        <time>2014-09-17T09:15:21.000Z</time>
      </trkpt>
      <trkpt lat="47.64526" lon="6.03616">
        <ele>229.19999694824</ele>
        <time>2014-09-17T09:15:23.000Z</time>
      </trkpt>
      <trkpt lat="47.64513" lon="6.03619">
        <ele>229.19999694824</ele>
        <time>2014-09-17T09:15:28.000Z</time>
      </trkpt>
      <trkpt lat="47.64491" lon="6.03623">
        <ele>229.19999694824</ele>
        <time>2014-09-17T09:15:35.000Z</time>
      </trkpt>
      <trkpt lat="47.64459" lon="6.03623">
        <ele>229.19999694824</ele>
        <time>2014-09-17T09:15:44.000Z</time>
      </trkpt>
      <trkpt lat="47.64436" lon="6.03621">
        <ele>229.19999694824</ele>
        <time>2014-09-17T09:15:51.000Z</time>
      </trkpt>
      <trkpt lat="47.64419" lon="6.03628">
        <ele>229.19999694824</ele>
        <time>2014-09-17T09:15:57.000Z</time>
      </trkpt>
      <trkpt lat="47.64407" lon="6.03648">
        <ele>229.19999694824</ele>
        <time>2014-09-17T09:16:04.000Z</time>
      </trkpt>
      <trkpt lat="47.64401" lon="6.03664">
        <ele>229.19999694824</ele>
        <time>2014-09-17T09:16:09.000Z</time>
      </trkpt>
      <trkpt lat="47.64394" lon="6.03684">
        <ele>229.19999694824</ele>
        <time>2014-09-17T09:16:16.000Z</time>
      </trkpt>
      <trkpt lat="47.6439" lon="6.03689">
        <ele>229.19999694824</ele>
        <time>2014-09-17T09:16:19.000Z</time>
      </trkpt>
      <trkpt lat="47.64387" lon="6.03692">
        <ele>229.19999694824</ele>
        <time>2014-09-17T09:16:21.000Z</time>
      </trkpt>
      <trkpt lat="47.64383" lon="6.03694">
        <ele>229.60000610352</ele>
        <time>2014-09-17T09:16:23.000Z</time>
      </trkpt>
      <trkpt lat="47.64381" lon="6.03694">
        <ele>230</ele>
        <time>2014-09-17T09:16:24.000Z</time>
      </trkpt>
      <trkpt lat="47.6438" lon="6.03694">
        <ele>230.39999389648</ele>
        <time>2014-09-17T09:16:25.000Z</time>
      </trkpt>
      <trkpt lat="47.64378" lon="6.03695">
        <ele>230.80000305176</ele>
        <time>2014-09-17T09:16:26.000Z</time>
      </trkpt>
      <trkpt lat="47.64376" lon="6.03695">
        <ele>231.19999694824</ele>
        <time>2014-09-17T09:16:27.000Z</time>
      </trkpt>
      <trkpt lat="47.64368" lon="6.03699">
        <ele>231.19999694824</ele>
        <time>2014-09-17T09:16:32.000Z</time>
      </trkpt>
      <trkpt lat="47.64365" lon="6.037">
        <ele>231.60000610352</ele>
        <time>2014-09-17T09:16:34.000Z</time>
      </trkpt>
      <trkpt lat="47.64363" lon="6.037">
        <ele>232</ele>
        <time>2014-09-17T09:16:35.000Z</time>
      </trkpt>
      <trkpt lat="47.64362" lon="6.037">
        <ele>232.39999389648</ele>
        <time>2014-09-17T09:16:36.000Z</time>
      </trkpt>
      <trkpt lat="47.6436" lon="6.03701">
        <ele>232.80000305176</ele>
        <time>2014-09-17T09:16:37.000Z</time>
      </trkpt>
      <trkpt lat="47.64358" lon="6.03701">
        <ele>233.39999389648</ele>
        <time>2014-09-17T09:16:38.000Z</time>
      </trkpt>
      <trkpt lat="47.64356" lon="6.03701">
        <ele>233.39999389648</ele>
        <time>2014-09-17T09:16:39.000Z</time>
      </trkpt>
      <trkpt lat="47.64341" lon="6.03705">
        <ele>233.39999389648</ele>
        <time>2014-09-17T09:16:47.000Z</time>
      </trkpt>
      <trkpt lat="47.64323" lon="6.03706">
        <ele>233.39999389648</ele>
        <time>2014-09-17T09:16:54.000Z</time>
      </trkpt>
      <trkpt lat="47.64302" lon="6.03707">
        <ele>233.39999389648</ele>
        <time>2014-09-17T09:17:01.000Z</time>
      </trkpt>
      <trkpt lat="47.6428" lon="6.03705">
        <ele>233.39999389648</ele>
        <time>2014-09-17T09:17:07.000Z</time>
      </trkpt>
      <trkpt lat="47.64261" lon="6.03699">
        <ele>233.39999389648</ele>
        <time>2014-09-17T09:17:12.000Z</time>
      </trkpt>
      <trkpt lat="47.64257" lon="6.03698">
        <ele>233.39999389648</ele>
        <time>2014-09-17T09:17:13.000Z</time>
      </trkpt>
      <trkpt lat="47.64237" lon="6.03693">
        <ele>233.39999389648</ele>
        <time>2014-09-17T09:17:18.000Z</time>
      </trkpt>
      <trkpt lat="47.64212" lon="6.03685">
        <ele>233.39999389648</ele>
        <time>2014-09-17T09:17:25.000Z</time>
      </trkpt>
      <trkpt lat="47.64183" lon="6.03681">
        <ele>233.39999389648</ele>
        <time>2014-09-17T09:17:33.000Z</time>
      </trkpt>
      <trkpt lat="47.64157" lon="6.03682">
        <ele>233.39999389648</ele>
        <time>2014-09-17T09:17:40.000Z</time>
      </trkpt>
      <trkpt lat="47.64135" lon="6.03678">
        <ele>233.39999389648</ele>
        <time>2014-09-17T09:17:46.000Z</time>
      </trkpt>
      <trkpt lat="47.64112" lon="6.03668">
        <ele>233.39999389648</ele>
        <time>2014-09-17T09:17:53.000Z</time>
      </trkpt>
      <trkpt lat="47.64094" lon="6.03659">
        <ele>233.80000305176</ele>
        <time>2014-09-17T09:17:59.000Z</time>
      </trkpt>
      <trkpt lat="47.64091" lon="6.03658">
        <ele>234.19999694824</ele>
        <time>2014-09-17T09:18:00.000Z</time>
      </trkpt>
      <trkpt lat="47.64087" lon="6.03656">
        <ele>235</ele>
        <time>2014-09-17T09:18:01.000Z</time>
      </trkpt>
      <trkpt lat="47.64084" lon="6.03655">
        <ele>235.39999389648</ele>
        <time>2014-09-17T09:18:02.000Z</time>
      </trkpt>
      <trkpt lat="47.64064" lon="6.03647">
        <ele>235.39999389648</ele>
        <time>2014-09-17T09:18:08.000Z</time>
      </trkpt>
      <trkpt lat="47.64043" lon="6.03632">
        <ele>235.39999389648</ele>
        <time>2014-09-17T09:18:15.000Z</time>
      </trkpt>
      <trkpt lat="47.64024" lon="6.03618">
        <ele>235.39999389648</ele>
        <time>2014-09-17T09:18:21.000Z</time>
      </trkpt>
      <trkpt lat="47.64004" lon="6.03602">
        <ele>235.39999389648</ele>
        <time>2014-09-17T09:18:27.000Z</time>
      </trkpt>
      <trkpt lat="47.63992" lon="6.03595">
        <ele>235.39999389648</ele>
        <time>2014-09-17T09:18:30.000Z</time>
      </trkpt>
      <trkpt lat="47.63983" lon="6.03589">
        <ele>235.39999389648</ele>
        <time>2014-09-17T09:18:32.000Z</time>
      </trkpt>
      <trkpt lat="47.63959" lon="6.03576">
        <ele>235.39999389648</ele>
        <time>2014-09-17T09:18:37.000Z</time>
      </trkpt>
      <trkpt lat="47.63955" lon="6.03575">
        <ele>235.39999389648</ele>
        <time>2014-09-17T09:18:38.000Z</time>
      </trkpt>
      <trkpt lat="47.63934" lon="6.03567">
        <ele>235.39999389648</ele>
        <time>2014-09-17T09:18:43.000Z</time>
      </trkpt>
      <trkpt lat="47.63925" lon="6.03566">
        <ele>235.39999389648</ele>
        <time>2014-09-17T09:18:45.000Z</time>
      </trkpt>
      <trkpt lat="47.63912" lon="6.03561">
        <ele>235.39999389648</ele>
        <time>2014-09-17T09:18:48.000Z</time>
      </trkpt>
      <trkpt lat="47.63903" lon="6.03556">
        <ele>235.39999389648</ele>
        <time>2014-09-17T09:18:50.000Z</time>
      </trkpt>
      <trkpt lat="47.63894" lon="6.0355">
        <ele>235</ele>
        <time>2014-09-17T09:18:52.000Z</time>
      </trkpt>
      <trkpt lat="47.63889" lon="6.03547">
        <ele>234.60000610352</ele>
        <time>2014-09-17T09:18:53.000Z</time>
      </trkpt>
      <trkpt lat="47.63883" lon="6.03544">
        <ele>234</ele>
        <time>2014-09-17T09:18:54.000Z</time>
      </trkpt>
      <trkpt lat="47.63877" lon="6.0354">
        <ele>233.60000610352</ele>
        <time>2014-09-17T09:18:55.000Z</time>
      </trkpt>
      <trkpt lat="47.63872" lon="6.03536">
        <ele>233.19999694824</ele>
        <time>2014-09-17T09:18:56.000Z</time>
      </trkpt>
      <trkpt lat="47.63859" lon="6.0353">
        <ele>233.19999694824</ele>
        <time>2014-09-17T09:18:58.000Z</time>
      </trkpt>
      <trkpt lat="47.63853" lon="6.03528">
        <ele>233.19999694824</ele>
        <time>2014-09-17T09:18:59.000Z</time>
      </trkpt>
      <trkpt lat="47.63847" lon="6.03526">
        <ele>232.80000305176</ele>
        <time>2014-09-17T09:19:00.000Z</time>
      </trkpt>
      <trkpt lat="47.63839" lon="6.03524">
        <ele>232.19999694824</ele>
        <time>2014-09-17T09:19:01.000Z</time>
      </trkpt>
      <trkpt lat="47.63832" lon="6.03523">
        <ele>231.80000305176</ele>
        <time>2014-09-17T09:19:02.000Z</time>
      </trkpt>
      <trkpt lat="47.63825" lon="6.03522">
        <ele>231.39999389648</ele>
        <time>2014-09-17T09:19:03.000Z</time>
      </trkpt>
      <trkpt lat="47.63817" lon="6.03521">
        <ele>230.80000305176</ele>
        <time>2014-09-17T09:19:04.000Z</time>
      </trkpt>
      <trkpt lat="47.63797" lon="6.03518">
        <ele>230.39999389648</ele>
        <time>2014-09-17T09:19:07.000Z</time>
      </trkpt>
      <trkpt lat="47.63792" lon="6.03517">
        <ele>230</ele>
        <time>2014-09-17T09:19:08.000Z</time>
      </trkpt>
      <trkpt lat="47.63789" lon="6.03517">
        <ele>229.60000610352</ele>
        <time>2014-09-17T09:19:09.000Z</time>
      </trkpt>
      <trkpt lat="47.63787" lon="6.03517">
        <ele>229.19999694824</ele>
        <time>2014-09-17T09:19:10.000Z</time>
      </trkpt>
      <trkpt lat="47.63785" lon="6.03516">
        <ele>228.80000305176</ele>
        <time>2014-09-17T09:19:11.000Z</time>
      </trkpt>
      <trkpt lat="47.63783" lon="6.03515">
        <ele>228.80000305176</ele>
        <time>2014-09-17T09:19:12.000Z</time>
      </trkpt>
      <trkpt lat="47.63767" lon="6.0351">
        <ele>228.80000305176</ele>
        <time>2014-09-17T09:19:17.000Z</time>
      </trkpt>
      <trkpt lat="47.63758" lon="6.03509">
        <ele>228.80000305176</ele>
        <time>2014-09-17T09:19:19.000Z</time>
      </trkpt>
      <trkpt lat="47.63747" lon="6.03512">
        <ele>228.39999389648</ele>
        <time>2014-09-17T09:19:21.000Z</time>
      </trkpt>
      <trkpt lat="47.63742" lon="6.03514">
        <ele>228</ele>
        <time>2014-09-17T09:19:22.000Z</time>
      </trkpt>
      <trkpt lat="47.63737" lon="6.03516">
        <ele>227.39999389648</ele>
        <time>2014-09-17T09:19:23.000Z</time>
      </trkpt>
      <trkpt lat="47.63731" lon="6.03518">
        <ele>227</ele>
        <time>2014-09-17T09:19:24.000Z</time>
      </trkpt>
      <trkpt lat="47.63725" lon="6.0352">
        <ele>226.60000610352</ele>
        <time>2014-09-17T09:19:25.000Z</time>
      </trkpt>
      <trkpt lat="47.63703" lon="6.03529">
        <ele>226.60000610352</ele>
        <time>2014-09-17T09:19:29.000Z</time>
      </trkpt>
      <trkpt lat="47.63691" lon="6.03527">
        <ele>226.60000610352</ele>
        <time>2014-09-17T09:19:32.000Z</time>
      </trkpt>
      <trkpt lat="47.63685" lon="6.0351">
        <ele>226.60000610352</ele>
        <time>2014-09-17T09:19:35.000Z</time>
      </trkpt>
      <trkpt lat="47.63684" lon="6.03503">
        <ele>226.60000610352</ele>
        <time>2014-09-17T09:19:36.000Z</time>
      </trkpt>
      <trkpt lat="47.6368" lon="6.03491">
        <ele>226.19999694824</ele>
        <time>2014-09-17T09:19:38.000Z</time>
      </trkpt>
      <trkpt lat="47.63677" lon="6.03486">
        <ele>225.80000305176</ele>
        <time>2014-09-17T09:19:39.000Z</time>
      </trkpt>
      <trkpt lat="47.63674" lon="6.0348">
        <ele>225</ele>
        <time>2014-09-17T09:19:40.000Z</time>
      </trkpt>
      <trkpt lat="47.63671" lon="6.03474">
        <ele>224.60000610352</ele>
        <time>2014-09-17T09:19:41.000Z</time>
      </trkpt>
      <trkpt lat="47.63647" lon="6.03437">
        <ele>224.60000610352</ele>
        <time>2014-09-17T09:19:47.000Z</time>
      </trkpt>
      <trkpt lat="47.63617" lon="6.03389">
        <ele>224.60000610352</ele>
        <time>2014-09-17T09:19:55.000Z</time>
      </trkpt>
      <trkpt lat="47.63613" lon="6.03384">
        <ele>224.60000610352</ele>
        <time>2014-09-17T09:19:56.000Z</time>
      </trkpt>
      <trkpt lat="47.63597" lon="6.03358">
        <ele>224.60000610352</ele>
        <time>2014-09-17T09:20:01.000Z</time>
      </trkpt>
      <trkpt lat="47.63578" lon="6.03326">
        <ele>224.60000610352</ele>
        <time>2014-09-17T09:20:08.000Z</time>
      </trkpt>
      <trkpt lat="47.63569" lon="6.03309">
        <ele>224.60000610352</ele>
        <time>2014-09-17T09:20:13.000Z</time>
      </trkpt>
      <trkpt lat="47.63555" lon="6.0328">
        <ele>224.60000610352</ele>
        <time>2014-09-17T09:20:20.000Z</time>
      </trkpt>
      <trkpt lat="47.6355" lon="6.03268">
        <ele>224.60000610352</ele>
        <time>2014-09-17T09:20:22.000Z</time>
      </trkpt>
      <trkpt lat="47.63544" lon="6.03257">
        <ele>224.60000610352</ele>
        <time>2014-09-17T09:20:24.000Z</time>
      </trkpt>
      <trkpt lat="47.63541" lon="6.03253">
        <ele>224.60000610352</ele>
        <time>2014-09-17T09:20:25.000Z</time>
      </trkpt>
      <trkpt lat="47.63534" lon="6.03239">
        <ele>224.60000610352</ele>
        <time>2014-09-17T09:20:28.000Z</time>
      </trkpt>
      <trkpt lat="47.63527" lon="6.03224">
        <ele>224.60000610352</ele>
        <time>2014-09-17T09:20:31.000Z</time>
      </trkpt>
      <trkpt lat="47.63512" lon="6.03193">
        <ele>224.60000610352</ele>
        <time>2014-09-17T09:20:38.000Z</time>
      </trkpt>
      <trkpt lat="47.63501" lon="6.03167">
        <ele>224.60000610352</ele>
        <time>2014-09-17T09:20:44.000Z</time>
      </trkpt>
      <trkpt lat="47.63497" lon="6.03165">
        <ele>224.60000610352</ele>
        <time>2014-09-17T09:20:46.000Z</time>
      </trkpt>
      <trkpt lat="47.63496" lon="6.03169">
        <ele>224.60000610352</ele>
        <time>2014-09-17T09:20:48.000Z</time>
      </trkpt>
      <trkpt lat="47.63497" lon="6.03176">
        <ele>224.60000610352</ele>
        <time>2014-09-17T09:20:52.000Z</time>
      </trkpt>
      <trkpt lat="47.63498" lon="6.03179">
        <ele>224.60000610352</ele>
        <time>2014-09-17T09:20:54.000Z</time>
      </trkpt>
      <trkpt lat="47.635" lon="6.03177">
        <ele>224.60000610352</ele>
        <time>2014-09-17T09:20:57.000Z</time>
      </trkpt>
      <trkpt lat="47.63499" lon="6.03176">
        <ele>224.60000610352</ele>
        <time>2014-09-17T09:20:58.000Z</time>
      </trkpt>
      <trkpt lat="47.63494" lon="6.03167">
        <ele>224.60000610352</ele>
        <time>2014-09-17T09:21:04.000Z</time>
      </trkpt>
      <trkpt lat="47.63485" lon="6.0315">
        <ele>224.60000610352</ele>
        <time>2014-09-17T09:21:10.000Z</time>
      </trkpt>
      <trkpt lat="47.63475" lon="6.03143">
        <ele>224.60000610352</ele>
        <time>2014-09-17T09:21:14.000Z</time>
      </trkpt>
      <trkpt lat="47.63473" lon="6.03141">
        <ele>225</ele>
        <time>2014-09-17T09:21:15.000Z</time>
      </trkpt>
      <trkpt lat="47.6347" lon="6.0314">
        <ele>225.39999389648</ele>
        <time>2014-09-17T09:21:16.000Z</time>
      </trkpt>
      <trkpt lat="47.63468" lon="6.03139">
        <ele>225.80000305176</ele>
        <time>2014-09-17T09:21:17.000Z</time>
      </trkpt>
      <trkpt lat="47.63466" lon="6.03137">
        <ele>226.19999694824</ele>
        <time>2014-09-17T09:21:18.000Z</time>
      </trkpt>
      <trkpt lat="47.63464" lon="6.03135">
        <ele>226.60000610352</ele>
        <time>2014-09-17T09:21:19.000Z</time>
      </trkpt>
      <trkpt lat="47.63459" lon="6.03132">
        <ele>226.60000610352</ele>
        <time>2014-09-17T09:21:21.000Z</time>
      </trkpt>
      <trkpt lat="47.63443" lon="6.03122">
        <ele>226.60000610352</ele>
        <time>2014-09-17T09:21:28.000Z</time>
      </trkpt>
      <trkpt lat="47.63432" lon="6.03113">
        <ele>226.60000610352</ele>
        <time>2014-09-17T09:21:34.000Z</time>
      </trkpt>
      <trkpt lat="47.6343" lon="6.03112">
        <ele>227</ele>
        <time>2014-09-17T09:21:35.000Z</time>
      </trkpt>
      <trkpt lat="47.63428" lon="6.0311">
        <ele>227.39999389648</ele>
        <time>2014-09-17T09:21:36.000Z</time>
      </trkpt>
      <trkpt lat="47.63426" lon="6.03109">
        <ele>228</ele>
        <time>2014-09-17T09:21:37.000Z</time>
      </trkpt>
      <trkpt lat="47.63424" lon="6.03108">
        <ele>228.39999389648</ele>
        <time>2014-09-17T09:21:38.000Z</time>
      </trkpt>
      <trkpt lat="47.63422" lon="6.03106">
        <ele>228.80000305176</ele>
        <time>2014-09-17T09:21:39.000Z</time>
      </trkpt>
      <trkpt lat="47.63418" lon="6.03103">
        <ele>228.80000305176</ele>
        <time>2014-09-17T09:21:41.000Z</time>
      </trkpt>
      <trkpt lat="47.63406" lon="6.03097">
        <ele>228.80000305176</ele>
        <time>2014-09-17T09:21:47.000Z</time>
      </trkpt>
      <trkpt lat="47.63393" lon="6.03087">
        <ele>228.80000305176</ele>
        <time>2014-09-17T09:21:53.000Z</time>
      </trkpt>
      <trkpt lat="47.6338" lon="6.03077">
        <ele>228.80000305176</ele>
        <time>2014-09-17T09:21:59.000Z</time>
      </trkpt>
      <trkpt lat="47.63375" lon="6.03074">
        <ele>229.19999694824</ele>
        <time>2014-09-17T09:22:01.000Z</time>
      </trkpt>
      <trkpt lat="47.63372" lon="6.03073">
        <ele>229.60000610352</ele>
        <time>2014-09-17T09:22:02.000Z</time>
      </trkpt>
      <trkpt lat="47.6337" lon="6.03072">
        <ele>230</ele>
        <time>2014-09-17T09:22:03.000Z</time>
      </trkpt>
      <trkpt lat="47.63367" lon="6.0307">
        <ele>230.39999389648</ele>
        <time>2014-09-17T09:22:04.000Z</time>
      </trkpt>
      <trkpt lat="47.63365" lon="6.03069">
        <ele>231</ele>
        <time>2014-09-17T09:22:05.000Z</time>
      </trkpt>
      <trkpt lat="47.6336" lon="6.03066">
        <ele>231</ele>
        <time>2014-09-17T09:22:07.000Z</time>
      </trkpt>
      <trkpt lat="47.63342" lon="6.03055">
        <ele>231</ele>
        <time>2014-09-17T09:22:14.000Z</time>
      </trkpt>
      <trkpt lat="47.63326" lon="6.03046">
        <ele>231</ele>
        <time>2014-09-17T09:22:20.000Z</time>
      </trkpt>
      <trkpt lat="47.63322" lon="6.03042">
        <ele>231</ele>
        <time>2014-09-17T09:22:22.000Z</time>
      </trkpt>
      <trkpt lat="47.63298" lon="6.03028">
        <ele>231</ele>
        <time>2014-09-17T09:22:31.000Z</time>
      </trkpt>
      <trkpt lat="47.6328" lon="6.03022">
        <ele>231</ele>
        <time>2014-09-17T09:22:38.000Z</time>
      </trkpt>
      <trkpt lat="47.63267" lon="6.03014">
        <ele>231</ele>
        <time>2014-09-17T09:22:43.000Z</time>
      </trkpt>
      <trkpt lat="47.63252" lon="6.02998">
        <ele>231</ele>
        <time>2014-09-17T09:22:48.000Z</time>
      </trkpt>
      <trkpt lat="47.6323" lon="6.02982">
        <ele>231</ele>
        <time>2014-09-17T09:22:53.000Z</time>
      </trkpt>
      <trkpt lat="47.63197" lon="6.02963">
        <ele>231</ele>
        <time>2014-09-17T09:23:00.000Z</time>
      </trkpt>
      <trkpt lat="47.63165" lon="6.02947">
        <ele>231</ele>
        <time>2014-09-17T09:23:07.000Z</time>
      </trkpt>
      <trkpt lat="47.63152" lon="6.02942">
        <ele>231</ele>
        <time>2014-09-17T09:23:10.000Z</time>
      </trkpt>
      <trkpt lat="47.63139" lon="6.02934">
        <ele>231</ele>
        <time>2014-09-17T09:23:13.000Z</time>
      </trkpt>
      <trkpt lat="47.63134" lon="6.02931">
        <ele>231</ele>
        <time>2014-09-17T09:23:14.000Z</time>
      </trkpt>
      <trkpt lat="47.63111" lon="6.02919">
        <ele>231</ele>
        <time>2014-09-17T09:23:20.000Z</time>
      </trkpt>
      <trkpt lat="47.63087" lon="6.02906">
        <ele>231</ele>
        <time>2014-09-17T09:23:27.000Z</time>
      </trkpt>
      <trkpt lat="47.6306" lon="6.02885">
        <ele>231</ele>
        <time>2014-09-17T09:23:35.000Z</time>
      </trkpt>
      <trkpt lat="47.63046" lon="6.02872">
        <ele>231</ele>
        <time>2014-09-17T09:23:40.000Z</time>
      </trkpt>
      <trkpt lat="47.6303" lon="6.0285">
        <ele>231</ele>
        <time>2014-09-17T09:23:46.000Z</time>
      </trkpt>
      <trkpt lat="47.63013" lon="6.02829">
        <ele>231</ele>
        <time>2014-09-17T09:23:52.000Z</time>
      </trkpt>
      <trkpt lat="47.62999" lon="6.02812">
        <ele>231</ele>
        <time>2014-09-17T09:23:58.000Z</time>
      </trkpt>
      <trkpt lat="47.62988" lon="6.02801">
        <ele>231</ele>
        <time>2014-09-17T09:24:04.000Z</time>
      </trkpt>
      <trkpt lat="47.62987" lon="6.02794">
        <ele>231</ele>
        <time>2014-09-17T09:24:09.000Z</time>
      </trkpt>
      <trkpt lat="47.62984" lon="6.02797">
        <ele>233.60000610352</ele>
        <time>2014-09-17T09:41:00.000Z</time>
      </trkpt>
      <trkpt lat="47.62987" lon="6.02801">
        <ele>233.60000610352</ele>
        <time>2014-09-17T09:41:02.000Z</time>
      </trkpt>
      <trkpt lat="47.62992" lon="6.02805">
        <ele>233</ele>
        <time>2014-09-17T09:41:04.000Z</time>
      </trkpt>
      <trkpt lat="47.62995" lon="6.02808">
        <ele>232.60000610352</ele>
        <time>2014-09-17T09:41:05.000Z</time>
      </trkpt>
      <trkpt lat="47.62998" lon="6.02811">
        <ele>232.19999694824</ele>
        <time>2014-09-17T09:41:06.000Z</time>
      </trkpt>
      <trkpt lat="47.63001" lon="6.02814">
        <ele>231.80000305176</ele>
        <time>2014-09-17T09:41:07.000Z</time>
      </trkpt>
      <trkpt lat="47.63003" lon="6.02816">
        <ele>231.39999389648</ele>
        <time>2014-09-17T09:41:08.000Z</time>
      </trkpt>
      <trkpt lat="47.63008" lon="6.02822">
        <ele>231.39999389648</ele>
        <time>2014-09-17T09:41:10.000Z</time>
      </trkpt>
      <trkpt lat="47.63015" lon="6.02834">
        <ele>231.39999389648</ele>
        <time>2014-09-17T09:41:13.000Z</time>
      </trkpt>
      <trkpt lat="47.63036" lon="6.02867">
        <ele>231.39999389648</ele>
        <time>2014-09-17T09:41:22.000Z</time>
      </trkpt>
      <trkpt lat="47.63054" lon="6.02886">
        <ele>231.39999389648</ele>
        <time>2014-09-17T09:41:29.000Z</time>
      </trkpt>
      <trkpt lat="47.63075" lon="6.02902">
        <ele>231.39999389648</ele>
        <time>2014-09-17T09:41:35.000Z</time>
      </trkpt>
      <trkpt lat="47.63091" lon="6.02912">
        <ele>231.39999389648</ele>
        <time>2014-09-17T09:41:40.000Z</time>
      </trkpt>
      <trkpt lat="47.63114" lon="6.02924">
        <ele>231.39999389648</ele>
        <time>2014-09-17T09:41:47.000Z</time>
      </trkpt>
      <trkpt lat="47.63137" lon="6.02937">
        <ele>231.39999389648</ele>
        <time>2014-09-17T09:41:54.000Z</time>
      </trkpt>
      <trkpt lat="47.63147" lon="6.02942">
        <ele>231.39999389648</ele>
        <time>2014-09-17T09:41:57.000Z</time>
      </trkpt>
      <trkpt lat="47.63162" lon="6.02951">
        <ele>231.39999389648</ele>
        <time>2014-09-17T09:42:02.000Z</time>
      </trkpt>
      <trkpt lat="47.63185" lon="6.02964">
        <ele>231.39999389648</ele>
        <time>2014-09-17T09:42:10.000Z</time>
      </trkpt>
      <trkpt lat="47.63208" lon="6.02978">
        <ele>231.39999389648</ele>
        <time>2014-09-17T09:42:18.000Z</time>
      </trkpt>
      <trkpt lat="47.63229" lon="6.02991">
        <ele>231.39999389648</ele>
        <time>2014-09-17T09:42:25.000Z</time>
      </trkpt>
      <trkpt lat="47.63251" lon="6.03002">
        <ele>231.39999389648</ele>
        <time>2014-09-17T09:42:32.000Z</time>
      </trkpt>
      <trkpt lat="47.63268" lon="6.03013">
        <ele>231.39999389648</ele>
        <time>2014-09-17T09:42:38.000Z</time>
      </trkpt>
      <trkpt lat="47.6329" lon="6.0303">
        <ele>231.39999389648</ele>
        <time>2014-09-17T09:42:46.000Z</time>
      </trkpt>
      <trkpt lat="47.63311" lon="6.03041">
        <ele>231.39999389648</ele>
        <time>2014-09-17T09:42:52.000Z</time>
      </trkpt>
      <trkpt lat="47.63341" lon="6.03058">
        <ele>231.39999389648</ele>
        <time>2014-09-17T09:43:00.000Z</time>
      </trkpt>
      <trkpt lat="47.63369" lon="6.03076">
        <ele>231.39999389648</ele>
        <time>2014-09-17T09:43:08.000Z</time>
      </trkpt>
      <trkpt lat="47.634" lon="6.03098">
        <ele>231.39999389648</ele>
        <time>2014-09-17T09:43:16.000Z</time>
      </trkpt>
      <trkpt lat="47.63404" lon="6.03099">
        <ele>231.39999389648</ele>
        <time>2014-09-17T09:43:17.000Z</time>
      </trkpt>
      <trkpt lat="47.63413" lon="6.03104">
        <ele>231</ele>
        <time>2014-09-17T09:43:19.000Z</time>
      </trkpt>
      <trkpt lat="47.63417" lon="6.03107">
        <ele>230.60000610352</ele>
        <time>2014-09-17T09:43:20.000Z</time>
      </trkpt>
      <trkpt lat="47.63421" lon="6.03111">
        <ele>230.19999694824</ele>
        <time>2014-09-17T09:43:21.000Z</time>
      </trkpt>
      <trkpt lat="47.63426" lon="6.03115">
        <ele>229.80000305176</ele>
        <time>2014-09-17T09:43:22.000Z</time>
      </trkpt>
      <trkpt lat="47.63431" lon="6.03118">
        <ele>229.39999389648</ele>
        <time>2014-09-17T09:43:23.000Z</time>
      </trkpt>
      <trkpt lat="47.63436" lon="6.0312">
        <ele>229.39999389648</ele>
        <time>2014-09-17T09:43:24.000Z</time>
      </trkpt>
      <trkpt lat="47.63441" lon="6.03122">
        <ele>229.39999389648</ele>
        <time>2014-09-17T09:43:25.000Z</time>
      </trkpt>
      <trkpt lat="47.63457" lon="6.03133">
        <ele>229.39999389648</ele>
        <time>2014-09-17T09:43:28.000Z</time>
      </trkpt>
      <trkpt lat="47.63462" lon="6.03138">
        <ele>229.39999389648</ele>
        <time>2014-09-17T09:43:29.000Z</time>
      </trkpt>
      <trkpt lat="47.63471" lon="6.03144">
        <ele>229</ele>
        <time>2014-09-17T09:43:31.000Z</time>
      </trkpt>
      <trkpt lat="47.63476" lon="6.03145">
        <ele>228.60000610352</ele>
        <time>2014-09-17T09:43:32.000Z</time>
      </trkpt>
      <trkpt lat="47.63481" lon="6.03148">
        <ele>228</ele>
        <time>2014-09-17T09:43:33.000Z</time>
      </trkpt>
      <trkpt lat="47.63486" lon="6.03151">
        <ele>227.60000610352</ele>
        <time>2014-09-17T09:43:34.000Z</time>
      </trkpt>
      <trkpt lat="47.63491" lon="6.03154">
        <ele>227.19999694824</ele>
        <time>2014-09-17T09:43:35.000Z</time>
      </trkpt>
      <trkpt lat="47.63504" lon="6.03171">
        <ele>227.19999694824</ele>
        <time>2014-09-17T09:43:38.000Z</time>
      </trkpt>
      <trkpt lat="47.63507" lon="6.03179">
        <ele>226.80000305176</ele>
        <time>2014-09-17T09:43:39.000Z</time>
      </trkpt>
      <trkpt lat="47.6351" lon="6.03186">
        <ele>226.39999389648</ele>
        <time>2014-09-17T09:43:40.000Z</time>
      </trkpt>
      <trkpt lat="47.63513" lon="6.03193">
        <ele>226</ele>
        <time>2014-09-17T09:43:41.000Z</time>
      </trkpt>
      <trkpt lat="47.63517" lon="6.03199">
        <ele>225.60000610352</ele>
        <time>2014-09-17T09:43:42.000Z</time>
      </trkpt>
      <trkpt lat="47.63521" lon="6.03206">
        <ele>225.19999694824</ele>
        <time>2014-09-17T09:43:43.000Z</time>
      </trkpt>
      <trkpt lat="47.63528" lon="6.03221">
        <ele>225.19999694824</ele>
        <time>2014-09-17T09:43:45.000Z</time>
      </trkpt>
      <trkpt lat="47.63536" lon="6.03244">
        <ele>225.19999694824</ele>
        <time>2014-09-17T09:43:48.000Z</time>
      </trkpt>
      <trkpt lat="47.63552" lon="6.03275">
        <ele>225.19999694824</ele>
        <time>2014-09-17T09:43:53.000Z</time>
      </trkpt>
      <trkpt lat="47.63563" lon="6.03302">
        <ele>225.19999694824</ele>
        <time>2014-09-17T09:43:58.000Z</time>
      </trkpt>
      <trkpt lat="47.63578" lon="6.03332">
        <ele>225.19999694824</ele>
        <time>2014-09-17T09:44:05.000Z</time>
      </trkpt>
      <trkpt lat="47.63595" lon="6.03361">
        <ele>224.80000305176</ele>
        <time>2014-09-17T09:44:10.000Z</time>
      </trkpt>
      <trkpt lat="47.63598" lon="6.03366">
        <ele>224.19999694824</ele>
        <time>2014-09-17T09:44:11.000Z</time>
      </trkpt>
      <trkpt lat="47.63601" lon="6.03372">
        <ele>223.80000305176</ele>
        <time>2014-09-17T09:44:12.000Z</time>
      </trkpt>
      <trkpt lat="47.63604" lon="6.03377">
        <ele>223.39999389648</ele>
        <time>2014-09-17T09:44:13.000Z</time>
      </trkpt>
      <trkpt lat="47.63608" lon="6.03382">
        <ele>223</ele>
        <time>2014-09-17T09:44:14.000Z</time>
      </trkpt>
      <trkpt lat="47.63614" lon="6.03391">
        <ele>223</ele>
        <time>2014-09-17T09:44:16.000Z</time>
      </trkpt>
      <trkpt lat="47.63629" lon="6.03415">
        <ele>223</ele>
        <time>2014-09-17T09:44:22.000Z</time>
      </trkpt>
      <trkpt lat="47.63644" lon="6.03435">
        <ele>223</ele>
        <time>2014-09-17T09:44:28.000Z</time>
      </trkpt>
      <trkpt lat="47.63653" lon="6.03454">
        <ele>223</ele>
        <time>2014-09-17T09:44:33.000Z</time>
      </trkpt>
      <trkpt lat="47.63665" lon="6.03469">
        <ele>223</ele>
        <time>2014-09-17T09:44:38.000Z</time>
      </trkpt>
      <trkpt lat="47.63676" lon="6.03489">
        <ele>223</ele>
        <time>2014-09-17T09:44:44.000Z</time>
      </trkpt>
      <trkpt lat="47.63686" lon="6.0351">
        <ele>223</ele>
        <time>2014-09-17T09:44:50.000Z</time>
      </trkpt>
      <trkpt lat="47.63691" lon="6.03528">
        <ele>223</ele>
        <time>2014-09-17T09:44:55.000Z</time>
      </trkpt>
      <trkpt lat="47.637" lon="6.03533">
        <ele>223.39999389648</ele>
        <time>2014-09-17T09:44:59.000Z</time>
      </trkpt>
      <trkpt lat="47.63703" lon="6.03533">
        <ele>223.80000305176</ele>
        <time>2014-09-17T09:45:00.000Z</time>
      </trkpt>
      <trkpt lat="47.63706" lon="6.03533">
        <ele>224.19999694824</ele>
        <time>2014-09-17T09:45:01.000Z</time>
      </trkpt>
      <trkpt lat="47.63709" lon="6.03532">
        <ele>224.60000610352</ele>
        <time>2014-09-17T09:45:02.000Z</time>
      </trkpt>
      <trkpt lat="47.63712" lon="6.03531">
        <ele>225</ele>
        <time>2014-09-17T09:45:03.000Z</time>
      </trkpt>
      <trkpt lat="47.63717" lon="6.03529">
        <ele>225</ele>
        <time>2014-09-17T09:45:05.000Z</time>
      </trkpt>
      <trkpt lat="47.63732" lon="6.03524">
        <ele>225</ele>
        <time>2014-09-17T09:45:11.000Z</time>
      </trkpt>
      <trkpt lat="47.63749" lon="6.03515">
        <ele>225</ele>
        <time>2014-09-17T09:45:18.000Z</time>
      </trkpt>
      <trkpt lat="47.63762" lon="6.03511">
        <ele>225</ele>
        <time>2014-09-17T09:45:24.000Z</time>
      </trkpt>
      <trkpt lat="47.63769" lon="6.0351">
        <ele>225.39999389648</ele>
        <time>2014-09-17T09:45:27.000Z</time>
      </trkpt>
      <trkpt lat="47.63771" lon="6.0351">
        <ele>225.80000305176</ele>
        <time>2014-09-17T09:45:28.000Z</time>
      </trkpt>
      <trkpt lat="47.63773" lon="6.03511">
        <ele>226.19999694824</ele>
        <time>2014-09-17T09:45:29.000Z</time>
      </trkpt>
      <trkpt lat="47.63775" lon="6.03511">
        <ele>226.60000610352</ele>
        <time>2014-09-17T09:45:30.000Z</time>
      </trkpt>
      <trkpt lat="47.63777" lon="6.03512">
        <ele>227</ele>
        <time>2014-09-17T09:45:31.000Z</time>
      </trkpt>
      <trkpt lat="47.63788" lon="6.03516">
        <ele>227</ele>
        <time>2014-09-17T09:45:37.000Z</time>
      </trkpt>
      <trkpt lat="47.63796" lon="6.0352">
        <ele>227</ele>
        <time>2014-09-17T09:45:43.000Z</time>
      </trkpt>
      <trkpt lat="47.63799" lon="6.0352">
        <ele>227.39999389648</ele>
        <time>2014-09-17T09:45:45.000Z</time>
      </trkpt>
      <trkpt lat="47.638" lon="6.03521">
        <ele>227.80000305176</ele>
        <time>2014-09-17T09:45:46.000Z</time>
      </trkpt>
      <trkpt lat="47.63802" lon="6.03521">
        <ele>228.19999694824</ele>
        <time>2014-09-17T09:45:47.000Z</time>
      </trkpt>
      <trkpt lat="47.63804" lon="6.03521">
        <ele>228.80000305176</ele>
        <time>2014-09-17T09:45:48.000Z</time>
      </trkpt>
      <trkpt lat="47.63805" lon="6.03522">
        <ele>229.19999694824</ele>
        <time>2014-09-17T09:45:49.000Z</time>
      </trkpt>
      <trkpt lat="47.63822" lon="6.03527">
        <ele>229.19999694824</ele>
        <time>2014-09-17T09:45:56.000Z</time>
      </trkpt>
      <trkpt lat="47.63829" lon="6.03527">
        <ele>229.19999694824</ele>
        <time>2014-09-17T09:45:59.000Z</time>
      </trkpt>
      <trkpt lat="47.63834" lon="6.03528">
        <ele>229.19999694824</ele>
        <time>2014-09-17T09:46:01.000Z</time>
      </trkpt>
      <trkpt lat="47.63849" lon="6.03533">
        <ele>229.60000610352</ele>
        <time>2014-09-17T09:46:08.000Z</time>
      </trkpt>
      <trkpt lat="47.63851" lon="6.03534">
        <ele>230</ele>
        <time>2014-09-17T09:46:09.000Z</time>
      </trkpt>
      <trkpt lat="47.63852" lon="6.03535">
        <ele>230.39999389648</ele>
        <time>2014-09-17T09:46:10.000Z</time>
      </trkpt>
      <trkpt lat="47.63855" lon="6.03536">
        <ele>230.80000305176</ele>
        <time>2014-09-17T09:46:11.000Z</time>
      </trkpt>
      <trkpt lat="47.63858" lon="6.03538">
        <ele>231.19999694824</ele>
        <time>2014-09-17T09:46:12.000Z</time>
      </trkpt>
      <trkpt lat="47.63873" lon="6.03548">
        <ele>231.19999694824</ele>
        <time>2014-09-17T09:46:15.000Z</time>
      </trkpt>
      <trkpt lat="47.63899" lon="6.03561">
        <ele>231.80000305176</ele>
        <time>2014-09-17T09:46:21.000Z</time>
      </trkpt>
      <trkpt lat="47.63903" lon="6.03562">
        <ele>232.19999694824</ele>
        <time>2014-09-17T09:46:22.000Z</time>
      </trkpt>
      <trkpt lat="47.63907" lon="6.03564">
        <ele>232.60000610352</ele>
        <time>2014-09-17T09:46:23.000Z</time>
      </trkpt>
      <trkpt lat="47.6391" lon="6.03565">
        <ele>233</ele>
        <time>2014-09-17T09:46:24.000Z</time>
      </trkpt>
      <trkpt lat="47.63913" lon="6.03566">
        <ele>233.39999389648</ele>
        <time>2014-09-17T09:46:25.000Z</time>
      </trkpt>
      <trkpt lat="47.63924" lon="6.0357">
        <ele>233.39999389648</ele>
        <time>2014-09-17T09:46:28.000Z</time>
      </trkpt>
      <trkpt lat="47.63939" lon="6.03574">
        <ele>233.39999389648</ele>
        <time>2014-09-17T09:46:33.000Z</time>
      </trkpt>
      <trkpt lat="47.63942" lon="6.03576">
        <ele>233.39999389648</ele>
        <time>2014-09-17T09:46:34.000Z</time>
      </trkpt>
      <trkpt lat="47.63966" lon="6.03587">
        <ele>233.39999389648</ele>
        <time>2014-09-17T09:46:41.000Z</time>
      </trkpt>
      <trkpt lat="47.63983" lon="6.03595">
        <ele>233.39999389648</ele>
        <time>2014-09-17T09:46:46.000Z</time>
      </trkpt>
      <trkpt lat="47.64011" lon="6.03614">
        <ele>233.39999389648</ele>
        <time>2014-09-17T09:46:55.000Z</time>
      </trkpt>
      <trkpt lat="47.64017" lon="6.03618">
        <ele>233.80000305176</ele>
        <time>2014-09-17T09:46:57.000Z</time>
      </trkpt>
      <trkpt lat="47.6402" lon="6.0362">
        <ele>234.19999694824</ele>
        <time>2014-09-17T09:46:58.000Z</time>
      </trkpt>
      <trkpt lat="47.64023" lon="6.03622">
        <ele>234.60000610352</ele>
        <time>2014-09-17T09:46:59.000Z</time>
      </trkpt>
      <trkpt lat="47.64026" lon="6.03624">
        <ele>235</ele>
        <time>2014-09-17T09:47:00.000Z</time>
      </trkpt>
      <trkpt lat="47.64029" lon="6.03626">
        <ele>235.39999389648</ele>
        <time>2014-09-17T09:47:01.000Z</time>
      </trkpt>
      <trkpt lat="47.64032" lon="6.03628">
        <ele>235.39999389648</ele>
        <time>2014-09-17T09:47:02.000Z</time>
      </trkpt>
      <trkpt lat="47.64055" lon="6.03646">
        <ele>235.39999389648</ele>
        <time>2014-09-17T09:47:10.000Z</time>
      </trkpt>
      <trkpt lat="47.64086" lon="6.03662">
        <ele>235.39999389648</ele>
        <time>2014-09-17T09:47:18.000Z</time>
      </trkpt>
      <trkpt lat="47.64119" lon="6.03675">
        <ele>235.39999389648</ele>
        <time>2014-09-17T09:47:25.000Z</time>
      </trkpt>
      <trkpt lat="47.64154" lon="6.03684">
        <ele>235.39999389648</ele>
        <time>2014-09-17T09:47:32.000Z</time>
      </trkpt>
      <trkpt lat="47.64178" lon="6.03684">
        <ele>235.39999389648</ele>
        <time>2014-09-17T09:47:37.000Z</time>
      </trkpt>
      <trkpt lat="47.64186" lon="6.03683">
        <ele>235.39999389648</ele>
        <time>2014-09-17T09:47:39.000Z</time>
      </trkpt>
      <trkpt lat="47.64207" lon="6.03686">
        <ele>235.39999389648</ele>
        <time>2014-09-17T09:47:44.000Z</time>
      </trkpt>
      <trkpt lat="47.64215" lon="6.03689">
        <ele>235.39999389648</ele>
        <time>2014-09-17T09:47:46.000Z</time>
      </trkpt>
      <trkpt lat="47.64244" lon="6.03697">
        <ele>235.39999389648</ele>
        <time>2014-09-17T09:47:52.000Z</time>
      </trkpt>
      <trkpt lat="47.64284" lon="6.03708">
        <ele>235.39999389648</ele>
        <time>2014-09-17T09:47:59.000Z</time>
      </trkpt>
      <trkpt lat="47.64313" lon="6.0371">
        <ele>235.39999389648</ele>
        <time>2014-09-17T09:48:05.000Z</time>
      </trkpt>
      <trkpt lat="47.6435" lon="6.03705">
        <ele>235.39999389648</ele>
        <time>2014-09-17T09:48:12.000Z</time>
      </trkpt>
      <trkpt lat="47.64362" lon="6.03702">
        <ele>235.39999389648</ele>
        <time>2014-09-17T09:48:14.000Z</time>
      </trkpt>
      <trkpt lat="47.64382" lon="6.03693">
        <ele>235.39999389648</ele>
        <time>2014-09-17T09:48:17.000Z</time>
      </trkpt>
      <trkpt lat="47.64389" lon="6.03689">
        <ele>235</ele>
        <time>2014-09-17T09:48:18.000Z</time>
      </trkpt>
      <trkpt lat="47.64395" lon="6.03683">
        <ele>234</ele>
        <time>2014-09-17T09:48:19.000Z</time>
      </trkpt>
      <trkpt lat="47.644" lon="6.03675">
        <ele>233.60000610352</ele>
        <time>2014-09-17T09:48:20.000Z</time>
      </trkpt>
      <trkpt lat="47.64404" lon="6.03665">
        <ele>233</ele>
        <time>2014-09-17T09:48:21.000Z</time>
      </trkpt>
      <trkpt lat="47.64407" lon="6.03655">
        <ele>232.60000610352</ele>
        <time>2014-09-17T09:48:22.000Z</time>
      </trkpt>
      <trkpt lat="47.64411" lon="6.03645">
        <ele>232</ele>
        <time>2014-09-17T09:48:23.000Z</time>
      </trkpt>
      <trkpt lat="47.64416" lon="6.03636">
        <ele>231.39999389648</ele>
        <time>2014-09-17T09:48:24.000Z</time>
      </trkpt>
      <trkpt lat="47.64421" lon="6.03628">
        <ele>231</ele>
        <time>2014-09-17T09:48:25.000Z</time>
      </trkpt>
      <trkpt lat="47.64435" lon="6.03622">
        <ele>231</ele>
        <time>2014-09-17T09:48:27.000Z</time>
      </trkpt>
      <trkpt lat="47.64441" lon="6.03622">
        <ele>230.60000610352</ele>
        <time>2014-09-17T09:48:28.000Z</time>
      </trkpt>
      <trkpt lat="47.64448" lon="6.03623">
        <ele>230.19999694824</ele>
        <time>2014-09-17T09:48:29.000Z</time>
      </trkpt>
      <trkpt lat="47.64454" lon="6.03624">
        <ele>229.60000610352</ele>
        <time>2014-09-17T09:48:30.000Z</time>
      </trkpt>
      <trkpt lat="47.64461" lon="6.03625">
        <ele>229.19999694824</ele>
        <time>2014-09-17T09:48:31.000Z</time>
      </trkpt>
      <trkpt lat="47.64467" lon="6.03625">
        <ele>228.80000305176</ele>
        <time>2014-09-17T09:48:32.000Z</time>
      </trkpt>
      <trkpt lat="47.64499" lon="6.03624">
        <ele>228.80000305176</ele>
        <time>2014-09-17T09:48:38.000Z</time>
      </trkpt>
      <trkpt lat="47.6451" lon="6.03622">
        <ele>228.80000305176</ele>
        <time>2014-09-17T09:48:42.000Z</time>
      </trkpt>
      <trkpt lat="47.64534" lon="6.03616">
        <ele>228.80000305176</ele>
        <time>2014-09-17T09:48:48.000Z</time>
      </trkpt>
      <trkpt lat="47.64556" lon="6.03607">
        <ele>228.80000305176</ele>
        <time>2014-09-17T09:48:53.000Z</time>
      </trkpt>
      <trkpt lat="47.64564" lon="6.036">
        <ele>228.80000305176</ele>
        <time>2014-09-17T09:48:55.000Z</time>
      </trkpt>
      <trkpt lat="47.64567" lon="6.03596">
        <ele>228.80000305176</ele>
        <time>2014-09-17T09:48:56.000Z</time>
      </trkpt>
      <trkpt lat="47.6458" lon="6.03578">
        <ele>228.80000305176</ele>
        <time>2014-09-17T09:49:00.000Z</time>
      </trkpt>
      <trkpt lat="47.64607" lon="6.03545">
        <ele>228.80000305176</ele>
        <time>2014-09-17T09:49:08.000Z</time>
      </trkpt>
      <trkpt lat="47.64638" lon="6.03505">
        <ele>228.80000305176</ele>
        <time>2014-09-17T09:49:17.000Z</time>
      </trkpt>
      <trkpt lat="47.64658" lon="6.03478">
        <ele>228.80000305176</ele>
        <time>2014-09-17T09:49:23.000Z</time>
      </trkpt>
      <trkpt lat="47.64662" lon="6.03474">
        <ele>228.80000305176</ele>
        <time>2014-09-17T09:49:24.000Z</time>
      </trkpt>
      <trkpt lat="47.64673" lon="6.03461">
        <ele>228.80000305176</ele>
        <time>2014-09-17T09:49:27.000Z</time>
      </trkpt>
      <trkpt lat="47.64691" lon="6.03446">
        <ele>228.80000305176</ele>
        <time>2014-09-17T09:49:31.000Z</time>
      </trkpt>
      <trkpt lat="47.64722" lon="6.03423">
        <ele>228.80000305176</ele>
        <time>2014-09-17T09:49:38.000Z</time>
      </trkpt>
      <trkpt lat="47.64753" lon="6.03401">
        <ele>228.80000305176</ele>
        <time>2014-09-17T09:49:45.000Z</time>
      </trkpt>
      <trkpt lat="47.6478" lon="6.03382">
        <ele>228.80000305176</ele>
        <time>2014-09-17T09:49:52.000Z</time>
      </trkpt>
      <trkpt lat="47.648" lon="6.0337">
        <ele>228.80000305176</ele>
        <time>2014-09-17T09:49:58.000Z</time>
      </trkpt>
      <trkpt lat="47.64808" lon="6.03366">
        <ele>228.39999389648</ele>
        <time>2014-09-17T09:50:00.000Z</time>
      </trkpt>
      <trkpt lat="47.64812" lon="6.03364">
        <ele>228</ele>
        <time>2014-09-17T09:50:01.000Z</time>
      </trkpt>
      <trkpt lat="47.64816" lon="6.03362">
        <ele>227.60000610352</ele>
        <time>2014-09-17T09:50:02.000Z</time>
      </trkpt>
      <trkpt lat="47.6482" lon="6.03359">
        <ele>227.19999694824</ele>
        <time>2014-09-17T09:50:03.000Z</time>
      </trkpt>
      <trkpt lat="47.64825" lon="6.03357">
        <ele>226.80000305176</ele>
        <time>2014-09-17T09:50:04.000Z</time>
      </trkpt>
      <trkpt lat="47.64838" lon="6.0335">
        <ele>226.80000305176</ele>
        <time>2014-09-17T09:50:07.000Z</time>
      </trkpt>
      <trkpt lat="47.64875" lon="6.03327">
        <ele>226.80000305176</ele>
        <time>2014-09-17T09:50:15.000Z</time>
      </trkpt>
      <trkpt lat="47.64889" lon="6.03318">
        <ele>226.80000305176</ele>
        <time>2014-09-17T09:50:18.000Z</time>
      </trkpt>
      <trkpt lat="47.64898" lon="6.03313">
        <ele>226.80000305176</ele>
        <time>2014-09-17T09:50:20.000Z</time>
      </trkpt>
      <trkpt lat="47.64925" lon="6.03297">
        <ele>226.80000305176</ele>
        <time>2014-09-17T09:50:26.000Z</time>
      </trkpt>
      <trkpt lat="47.64929" lon="6.03295">
        <ele>226.80000305176</ele>
        <time>2014-09-17T09:50:27.000Z</time>
      </trkpt>
      <trkpt lat="47.64936" lon="6.0329">
        <ele>226.80000305176</ele>
        <time>2014-09-17T09:50:29.000Z</time>
      </trkpt>
      <trkpt lat="47.64944" lon="6.03286">
        <ele>226.80000305176</ele>
        <time>2014-09-17T09:50:31.000Z</time>
      </trkpt>
      <trkpt lat="47.64959" lon="6.03276">
        <ele>226.80000305176</ele>
        <time>2014-09-17T09:50:35.000Z</time>
      </trkpt>
      <trkpt lat="47.64966" lon="6.03272">
        <ele>226.80000305176</ele>
        <time>2014-09-17T09:50:37.000Z</time>
      </trkpt>
      <trkpt lat="47.6499" lon="6.03258">
        <ele>226.80000305176</ele>
        <time>2014-09-17T09:50:44.000Z</time>
      </trkpt>
      <trkpt lat="47.65007" lon="6.03245">
        <ele>226.80000305176</ele>
        <time>2014-09-17T09:50:50.000Z</time>
      </trkpt>
      <trkpt lat="47.6503" lon="6.03226">
        <ele>226.80000305176</ele>
        <time>2014-09-17T09:50:57.000Z</time>
      </trkpt>
      <trkpt lat="47.65039" lon="6.03213">
        <ele>226.80000305176</ele>
        <time>2014-09-17T09:51:00.000Z</time>
      </trkpt>
      <trkpt lat="47.65049" lon="6.03197">
        <ele>226.80000305176</ele>
        <time>2014-09-17T09:51:03.000Z</time>
      </trkpt>
      <trkpt lat="47.65072" lon="6.03153">
        <ele>226.80000305176</ele>
        <time>2014-09-17T09:51:10.000Z</time>
      </trkpt>
      <trkpt lat="47.65078" lon="6.03139">
        <ele>226</ele>
        <time>2014-09-17T09:51:12.000Z</time>
      </trkpt>
      <trkpt lat="47.6508" lon="6.03131">
        <ele>225.60000610352</ele>
        <time>2014-09-17T09:51:13.000Z</time>
      </trkpt>
      <trkpt lat="47.65082" lon="6.03123">
        <ele>225.19999694824</ele>
        <time>2014-09-17T09:51:14.000Z</time>
      </trkpt>
      <trkpt lat="47.65083" lon="6.03114">
        <ele>224.80000305176</ele>
        <time>2014-09-17T09:51:15.000Z</time>
      </trkpt>
      <trkpt lat="47.65079" lon="6.03081">
        <ele>224.80000305176</ele>
        <time>2014-09-17T09:51:19.000Z</time>
      </trkpt>
      <trkpt lat="47.65073" lon="6.03067">
        <ele>224.80000305176</ele>
        <time>2014-09-17T09:51:21.000Z</time>
      </trkpt>
      <trkpt lat="47.65069" lon="6.03053">
        <ele>224.80000305176</ele>
        <time>2014-09-17T09:51:23.000Z</time>
      </trkpt>
      <trkpt lat="47.65068" lon="6.03048">
        <ele>224.80000305176</ele>
        <time>2014-09-17T09:51:24.000Z</time>
      </trkpt>
      <trkpt lat="47.65068" lon="6.03027">
        <ele>224.80000305176</ele>
        <time>2014-09-17T09:51:28.000Z</time>
      </trkpt>
      <trkpt lat="47.65062" lon="6.03018">
        <ele>224.39999389648</ele>
        <time>2014-09-17T09:51:30.000Z</time>
      </trkpt>
      <trkpt lat="47.65059" lon="6.03014">
        <ele>224</ele>
        <time>2014-09-17T09:51:31.000Z</time>
      </trkpt>
      <trkpt lat="47.65056" lon="6.03009">
        <ele>223.60000610352</ele>
        <time>2014-09-17T09:51:32.000Z</time>
      </trkpt>
      <trkpt lat="47.65053" lon="6.03004">
        <ele>223.19999694824</ele>
        <time>2014-09-17T09:51:33.000Z</time>
      </trkpt>
      <trkpt lat="47.6505" lon="6.02999">
        <ele>222.80000305176</ele>
        <time>2014-09-17T09:51:34.000Z</time>
      </trkpt>
      <trkpt lat="47.65024" lon="6.02957">
        <ele>222.80000305176</ele>
        <time>2014-09-17T09:51:41.000Z</time>
      </trkpt>
      <trkpt lat="47.65008" lon="6.02915">
        <ele>222.80000305176</ele>
        <time>2014-09-17T09:51:47.000Z</time>
      </trkpt>
      <trkpt lat="47.64997" lon="6.02861">
        <ele>222.80000305176</ele>
        <time>2014-09-17T09:51:54.000Z</time>
      </trkpt>
      <trkpt lat="47.6499" lon="6.02809">
        <ele>222.80000305176</ele>
        <time>2014-09-17T09:52:01.000Z</time>
      </trkpt>
      <trkpt lat="47.64981" lon="6.0274">
        <ele>222.80000305176</ele>
        <time>2014-09-17T09:52:10.000Z</time>
      </trkpt>
      <trkpt lat="47.64978" lon="6.0271">
        <ele>222.80000305176</ele>
        <time>2014-09-17T09:52:14.000Z</time>
      </trkpt>
      <trkpt lat="47.64977" lon="6.02701">
        <ele>222.80000305176</ele>
        <time>2014-09-17T09:52:15.000Z</time>
      </trkpt>
      <trkpt lat="47.6497" lon="6.02647">
        <ele>222.80000305176</ele>
        <time>2014-09-17T09:52:22.000Z</time>
      </trkpt>
      <trkpt lat="47.64963" lon="6.02591">
        <ele>222.80000305176</ele>
        <time>2014-09-17T09:52:29.000Z</time>
      </trkpt>
      <trkpt lat="47.64956" lon="6.02531">
        <ele>222.80000305176</ele>
        <time>2014-09-17T09:52:37.000Z</time>
      </trkpt>
      <trkpt lat="47.64951" lon="6.02503">
        <ele>222.80000305176</ele>
        <time>2014-09-17T09:52:42.000Z</time>
      </trkpt>
      <trkpt lat="47.64946" lon="6.0249">
        <ele>222.80000305176</ele>
        <time>2014-09-17T09:52:46.000Z</time>
      </trkpt>
      <trkpt lat="47.64946" lon="6.02483">
        <ele>222.80000305176</ele>
        <time>2014-09-17T09:52:48.000Z</time>
      </trkpt>
      <trkpt lat="47.64946" lon="6.02475">
        <ele>222.80000305176</ele>
        <time>2014-09-17T09:52:50.000Z</time>
      </trkpt>
      <trkpt lat="47.64943" lon="6.02452">
        <ele>222.80000305176</ele>
        <time>2014-09-17T09:52:55.000Z</time>
      </trkpt>
      <trkpt lat="47.64941" lon="6.0244">
        <ele>222.80000305176</ele>
        <time>2014-09-17T09:52:57.000Z</time>
      </trkpt>
      <trkpt lat="47.64939" lon="6.02424">
        <ele>222.80000305176</ele>
        <time>2014-09-17T09:53:00.000Z</time>
      </trkpt>
      <trkpt lat="47.64944" lon="6.0241">
        <ele>222.80000305176</ele>
        <time>2014-09-17T09:53:04.000Z</time>
      </trkpt>
      <trkpt lat="47.6495" lon="6.02404">
        <ele>222.80000305176</ele>
        <time>2014-09-17T09:53:06.000Z</time>
      </trkpt>
      <trkpt lat="47.64961" lon="6.02391">
        <ele>222.80000305176</ele>
        <time>2014-09-17T09:53:09.000Z</time>
      </trkpt>
      <trkpt lat="47.64968" lon="6.02368">
        <ele>222.80000305176</ele>
        <time>2014-09-17T09:53:13.000Z</time>
      </trkpt>
      <trkpt lat="47.64967" lon="6.02344">
        <ele>222.80000305176</ele>
        <time>2014-09-17T09:53:17.000Z</time>
      </trkpt>
      <trkpt lat="47.64967" lon="6.02338">
        <ele>222.80000305176</ele>
        <time>2014-09-17T09:53:18.000Z</time>
      </trkpt>
      <trkpt lat="47.64972" lon="6.02315">
        <ele>222.80000305176</ele>
        <time>2014-09-17T09:53:22.000Z</time>
      </trkpt>
      <trkpt lat="47.64972" lon="6.02303">
        <ele>222.80000305176</ele>
        <time>2014-09-17T09:53:24.000Z</time>
      </trkpt>
      <trkpt lat="47.64968" lon="6.02286">
        <ele>222.80000305176</ele>
        <time>2014-09-17T09:53:27.000Z</time>
      </trkpt>
      <trkpt lat="47.64965" lon="6.02274">
        <ele>222.80000305176</ele>
        <time>2014-09-17T09:53:29.000Z</time>
      </trkpt>
      <trkpt lat="47.6496" lon="6.02253">
        <ele>222.80000305176</ele>
        <time>2014-09-17T09:53:33.000Z</time>
      </trkpt>
      <trkpt lat="47.64955" lon="6.02235">
        <ele>222.80000305176</ele>
        <time>2014-09-17T09:53:36.000Z</time>
      </trkpt>
      <trkpt lat="47.64947" lon="6.02212">
        <ele>222.80000305176</ele>
        <time>2014-09-17T09:53:40.000Z</time>
      </trkpt>
      <trkpt lat="47.64939" lon="6.02189">
        <ele>222.80000305176</ele>
        <time>2014-09-17T09:53:45.000Z</time>
      </trkpt>
      <trkpt lat="47.6493" lon="6.02169">
        <ele>222.80000305176</ele>
        <time>2014-09-17T09:53:50.000Z</time>
      </trkpt>
      <trkpt lat="47.64921" lon="6.02133">
        <ele>222.80000305176</ele>
        <time>2014-09-17T09:53:58.000Z</time>
      </trkpt>
      <trkpt lat="47.64907" lon="6.021">
        <ele>222.80000305176</ele>
        <time>2014-09-17T09:54:05.000Z</time>
      </trkpt>
      <trkpt lat="47.64895" lon="6.02075">
        <ele>222.80000305176</ele>
        <time>2014-09-17T09:54:09.000Z</time>
      </trkpt>
      <trkpt lat="47.64891" lon="6.02065">
        <ele>222.80000305176</ele>
        <time>2014-09-17T09:54:11.000Z</time>
      </trkpt>
      <trkpt lat="47.64884" lon="6.02064">
        <ele>222.80000305176</ele>
        <time>2014-09-17T09:54:13.000Z</time>
      </trkpt>
      <trkpt lat="47.64881" lon="6.0207">
        <ele>222.80000305176</ele>
        <time>2014-09-17T09:54:16.000Z</time>
      </trkpt>
      <trkpt lat="47.64881" lon="6.02073">
        <ele>222.80000305176</ele>
        <time>2014-09-17T09:54:17.000Z</time>
      </trkpt>
      <trkpt lat="47.64882" lon="6.02077">
        <ele>222.80000305176</ele>
        <time>2014-09-17T09:54:21.000Z</time>
      </trkpt>
      <trkpt lat="47.64882" lon="6.02077">
        <ele>222.80000305176</ele>
        <time>2014-09-17T09:54:22.000Z</time>
      </trkpt>
      <trkpt lat="47.64895" lon="6.02087">
        <ele>222.80000305176</ele>
        <time>2014-09-17T09:54:28.000Z</time>
      </trkpt>
      <trkpt lat="47.649" lon="6.02085">
        <ele>223.60000610352</ele>
        <time>2014-09-17T09:54:30.000Z</time>
      </trkpt>
      <trkpt lat="47.64903" lon="6.02083">
        <ele>224</ele>
        <time>2014-09-17T09:54:31.000Z</time>
      </trkpt>
      <trkpt lat="47.64906" lon="6.02081">
        <ele>224.39999389648</ele>
        <time>2014-09-17T09:54:32.000Z</time>
      </trkpt>
      <trkpt lat="47.64909" lon="6.02079">
        <ele>224.80000305176</ele>
        <time>2014-09-17T09:54:33.000Z</time>
      </trkpt>
      <trkpt lat="47.64927" lon="6.02071">
        <ele>224.80000305176</ele>
        <time>2014-09-17T09:54:38.000Z</time>
      </trkpt>
      <trkpt lat="47.64945" lon="6.02056">
        <ele>224.80000305176</ele>
        <time>2014-09-17T09:54:44.000Z</time>
      </trkpt>
      <trkpt lat="47.64948" lon="6.02054">
        <ele>224.80000305176</ele>
        <time>2014-09-17T09:54:45.000Z</time>
      </trkpt>
      <trkpt lat="47.64964" lon="6.02043">
        <ele>224.80000305176</ele>
        <time>2014-09-17T09:54:49.000Z</time>
      </trkpt>
      <trkpt lat="47.64979" lon="6.02032">
        <ele>224.80000305176</ele>
        <time>2014-09-17T09:54:52.000Z</time>
      </trkpt>
      <trkpt lat="47.64984" lon="6.02029">
        <ele>224.39999389648</ele>
        <time>2014-09-17T09:54:53.000Z</time>
      </trkpt>
      <trkpt lat="47.64991" lon="6.02026">
        <ele>223.60000610352</ele>
        <time>2014-09-17T09:54:54.000Z</time>
      </trkpt>
      <trkpt lat="47.64997" lon="6.02026">
        <ele>223.19999694824</ele>
        <time>2014-09-17T09:54:55.000Z</time>
      </trkpt>
      <trkpt lat="47.65004" lon="6.02028">
        <ele>222.80000305176</ele>
        <time>2014-09-17T09:54:56.000Z</time>
      </trkpt>
      <trkpt lat="47.6502" lon="6.02034">
        <ele>222.80000305176</ele>
        <time>2014-09-17T09:54:59.000Z</time>
      </trkpt>
      <trkpt lat="47.65025" lon="6.02037">
        <ele>222.80000305176</ele>
        <time>2014-09-17T09:55:00.000Z</time>
      </trkpt>
      <trkpt lat="47.65045" lon="6.02051">
        <ele>222.80000305176</ele>
        <time>2014-09-17T09:55:05.000Z</time>
      </trkpt>
      <trkpt lat="47.65049" lon="6.02053">
        <ele>222.80000305176</ele>
        <time>2014-09-17T09:55:06.000Z</time>
      </trkpt>
      <trkpt lat="47.65074" lon="6.02063">
        <ele>222.80000305176</ele>
        <time>2014-09-17T09:55:13.000Z</time>
      </trkpt>
      <trkpt lat="47.65087" lon="6.0207">
        <ele>222.80000305176</ele>
        <time>2014-09-17T09:55:18.000Z</time>
      </trkpt>
      <trkpt lat="47.65098" lon="6.02071">
        <ele>222.80000305176</ele>
        <time>2014-09-17T09:55:22.000Z</time>
      </trkpt>
      <trkpt lat="47.65108" lon="6.02077">
        <ele>222.80000305176</ele>
        <time>2014-09-17T09:55:26.000Z</time>
      </trkpt>
      <trkpt lat="47.65123" lon="6.02083">
        <ele>222.80000305176</ele>
        <time>2014-09-17T09:55:31.000Z</time>
      </trkpt>
      <trkpt lat="47.65138" lon="6.02088">
        <ele>222.80000305176</ele>
        <time>2014-09-17T09:55:36.000Z</time>
      </trkpt>
      <trkpt lat="47.65147" lon="6.02092">
        <ele>223.19999694824</ele>
        <time>2014-09-17T09:55:39.000Z</time>
      </trkpt>
      <trkpt lat="47.6515" lon="6.02094">
        <ele>223.60000610352</ele>
        <time>2014-09-17T09:55:40.000Z</time>
      </trkpt>
      <trkpt lat="47.65154" lon="6.02095">
        <ele>224</ele>
        <time>2014-09-17T09:55:41.000Z</time>
      </trkpt>
      <trkpt lat="47.65157" lon="6.02096">
        <ele>224.39999389648</ele>
        <time>2014-09-17T09:55:42.000Z</time>
      </trkpt>
      <trkpt lat="47.6516" lon="6.02098">
        <ele>224.80000305176</ele>
        <time>2014-09-17T09:55:43.000Z</time>
      </trkpt>
      <trkpt lat="47.6518" lon="6.02104">
        <ele>224.80000305176</ele>
        <time>2014-09-17T09:55:49.000Z</time>
      </trkpt>
      <trkpt lat="47.65206" lon="6.02108">
        <ele>224.80000305176</ele>
        <time>2014-09-17T09:55:56.000Z</time>
      </trkpt>
      <trkpt lat="47.65239" lon="6.0211">
        <ele>224.80000305176</ele>
        <time>2014-09-17T09:56:03.000Z</time>
      </trkpt>
      <trkpt lat="47.65271" lon="6.02106">
        <ele>224.80000305176</ele>
        <time>2014-09-17T09:56:10.000Z</time>
      </trkpt>
      <trkpt lat="47.65308" lon="6.02095">
        <ele>224.80000305176</ele>
        <time>2014-09-17T09:56:18.000Z</time>
      </trkpt>
      <trkpt lat="47.65338" lon="6.02082">
        <ele>224.80000305176</ele>
        <time>2014-09-17T09:56:25.000Z</time>
      </trkpt>
      <trkpt lat="47.65371" lon="6.02062">
        <ele>224.80000305176</ele>
        <time>2014-09-17T09:56:33.000Z</time>
      </trkpt>
      <trkpt lat="47.65391" lon="6.02048">
        <ele>224.80000305176</ele>
        <time>2014-09-17T09:56:38.000Z</time>
      </trkpt>
      <trkpt lat="47.65398" lon="6.02043">
        <ele>224.80000305176</ele>
        <time>2014-09-17T09:56:40.000Z</time>
      </trkpt>
      <trkpt lat="47.65422" lon="6.02023">
        <ele>224.80000305176</ele>
        <time>2014-09-17T09:56:46.000Z</time>
      </trkpt>
      <trkpt lat="47.65454" lon="6.01997">
        <ele>224.80000305176</ele>
        <time>2014-09-17T09:56:54.000Z</time>
      </trkpt>
      <trkpt lat="47.65478" lon="6.01974">
        <ele>224.80000305176</ele>
        <time>2014-09-17T09:57:01.000Z</time>
      </trkpt>
      <trkpt lat="47.65496" lon="6.01959">
        <ele>224.80000305176</ele>
        <time>2014-09-17T09:57:08.000Z</time>
      </trkpt>
      <trkpt lat="47.65497" lon="6.01959">
        <ele>224.80000305176</ele>
        <time>2014-09-17T09:57:10.000Z</time>
      </trkpt>
      <trkpt lat="47.6551" lon="6.01952">
        <ele>224.80000305176</ele>
        <time>2014-09-17T10:12:15.000Z</time>
      </trkpt>
      <trkpt lat="47.65521" lon="6.01943">
        <ele>224.80000305176</ele>
        <time>2014-09-17T10:12:22.000Z</time>
      </trkpt>
      <trkpt lat="47.65528" lon="6.01934">
        <ele>224.80000305176</ele>
        <time>2014-09-17T10:12:28.000Z</time>
      </trkpt>
      <trkpt lat="47.65533" lon="6.01922">
        <ele>224.80000305176</ele>
        <time>2014-09-17T10:12:35.000Z</time>
      </trkpt>
      <trkpt lat="47.65528" lon="6.01911">
        <ele>224.80000305176</ele>
        <time>2014-09-17T10:12:41.000Z</time>
      </trkpt>
      <trkpt lat="47.65525" lon="6.019">
        <ele>224.80000305176</ele>
        <time>2014-09-17T10:12:45.000Z</time>
      </trkpt>
      <trkpt lat="47.65524" lon="6.01898">
        <ele>224.80000305176</ele>
        <time>2014-09-17T10:12:46.000Z</time>
      </trkpt>
      <trkpt lat="47.65515" lon="6.01885">
        <ele>224.80000305176</ele>
        <time>2014-09-17T10:12:53.000Z</time>
      </trkpt>
      <trkpt lat="47.65508" lon="6.01885">
        <ele>224.80000305176</ele>
        <time>2014-09-17T10:12:59.000Z</time>
      </trkpt>
      <trkpt lat="47.65504" lon="6.01888">
        <ele>224.80000305176</ele>
        <time>2014-09-17T10:13:04.000Z</time>
      </trkpt>
      <trkpt lat="47.65512" lon="6.01874">
        <ele>224.80000305176</ele>
        <time>2014-09-17T10:15:43.000Z</time>
      </trkpt>
      <trkpt lat="47.65513" lon="6.01864">
        <ele>224.80000305176</ele>
        <time>2014-09-17T10:15:46.000Z</time>
      </trkpt>
      <trkpt lat="47.65519" lon="6.0184">
        <ele>224.80000305176</ele>
        <time>2014-09-17T10:15:49.000Z</time>
      </trkpt>
      <trkpt lat="47.65519" lon="6.0184">
        <ele>224.80000305176</ele>
        <time>2014-09-17T10:15:52.000Z</time>
      </trkpt>
      <trkpt lat="47.65529" lon="6.01828">
        <ele>224.80000305176</ele>
        <time>2014-09-17T10:15:53.000Z</time>
      </trkpt>
      <trkpt lat="47.65536" lon="6.01823">
        <ele>224.80000305176</ele>
        <time>2014-09-17T10:15:57.000Z</time>
      </trkpt>
      <trkpt lat="47.6556" lon="6.01806">
        <ele>224.39999389648</ele>
        <time>2014-09-17T10:16:02.000Z</time>
      </trkpt>
      <trkpt lat="47.65564" lon="6.01802">
        <ele>224</ele>
        <time>2014-09-17T10:16:03.000Z</time>
      </trkpt>
      <trkpt lat="47.65568" lon="6.01797">
        <ele>223.60000610352</ele>
        <time>2014-09-17T10:16:04.000Z</time>
      </trkpt>
      <trkpt lat="47.65572" lon="6.01792">
        <ele>223.19999694824</ele>
        <time>2014-09-17T10:16:05.000Z</time>
      </trkpt>
      <trkpt lat="47.65576" lon="6.01786">
        <ele>222.60000610352</ele>
        <time>2014-09-17T10:16:06.000Z</time>
      </trkpt>
      <trkpt lat="47.65585" lon="6.01769">
        <ele>222.60000610352</ele>
        <time>2014-09-17T10:16:09.000Z</time>
      </trkpt>
      <trkpt lat="47.656" lon="6.01741">
        <ele>222.60000610352</ele>
        <time>2014-09-17T10:16:15.000Z</time>
      </trkpt>
      <trkpt lat="47.65616" lon="6.0172">
        <ele>222.60000610352</ele>
        <time>2014-09-17T10:16:21.000Z</time>
      </trkpt>
      <trkpt lat="47.65637" lon="6.01697">
        <ele>222.60000610352</ele>
        <time>2014-09-17T10:16:29.000Z</time>
      </trkpt>
      <trkpt lat="47.65657" lon="6.01679">
        <ele>222.60000610352</ele>
        <time>2014-09-17T10:16:36.000Z</time>
      </trkpt>
      <trkpt lat="47.65664" lon="6.01679">
        <ele>222.60000610352</ele>
        <time>2014-09-17T10:16:38.000Z</time>
      </trkpt>
      <trkpt lat="47.65666" lon="6.01682">
        <ele>222.60000610352</ele>
        <time>2014-09-17T10:16:39.000Z</time>
      </trkpt>
      <trkpt lat="47.65675" lon="6.01698">
        <ele>222.60000610352</ele>
        <time>2014-09-17T10:16:43.000Z</time>
      </trkpt>
      <trkpt lat="47.65689" lon="6.017">
        <ele>222.60000610352</ele>
        <time>2014-09-17T10:16:47.000Z</time>
      </trkpt>
      <trkpt lat="47.65705" lon="6.01689">
        <ele>222.60000610352</ele>
        <time>2014-09-17T10:16:52.000Z</time>
      </trkpt>
      <trkpt lat="47.65722" lon="6.01677">
        <ele>222.60000610352</ele>
        <time>2014-09-17T10:16:59.000Z</time>
      </trkpt>
      <trkpt lat="47.65739" lon="6.01668">
        <ele>222.60000610352</ele>
        <time>2014-09-17T10:17:05.000Z</time>
      </trkpt>
      <trkpt lat="47.65763" lon="6.01652">
        <ele>222.60000610352</ele>
        <time>2014-09-17T10:17:12.000Z</time>
      </trkpt>
      <trkpt lat="47.65793" lon="6.01626">
        <ele>222.60000610352</ele>
        <time>2014-09-17T10:17:21.000Z</time>
      </trkpt>
      <trkpt lat="47.65826" lon="6.01599">
        <ele>222.60000610352</ele>
        <time>2014-09-17T10:17:31.000Z</time>
      </trkpt>
      <trkpt lat="47.65851" lon="6.01578">
        <ele>222.60000610352</ele>
        <time>2014-09-17T10:17:37.000Z</time>
      </trkpt>
      <trkpt lat="47.65863" lon="6.0157">
        <ele>222.60000610352</ele>
        <time>2014-09-17T10:17:40.000Z</time>
      </trkpt>
      <trkpt lat="47.65878" lon="6.01562">
        <ele>222.60000610352</ele>
        <time>2014-09-17T10:17:44.000Z</time>
      </trkpt>
      <trkpt lat="47.65912" lon="6.01544">
        <ele>222.60000610352</ele>
        <time>2014-09-17T10:17:53.000Z</time>
      </trkpt>
      <trkpt lat="47.6594" lon="6.01531">
        <ele>222.60000610352</ele>
        <time>2014-09-17T10:18:01.000Z</time>
      </trkpt>
      <trkpt lat="47.65949" lon="6.01529">
        <ele>222.60000610352</ele>
        <time>2014-09-17T10:18:03.000Z</time>
      </trkpt>
      <trkpt lat="47.65961" lon="6.01524">
        <ele>222.60000610352</ele>
        <time>2014-09-17T10:18:06.000Z</time>
      </trkpt>
      <trkpt lat="47.65991" lon="6.01513">
        <ele>222.60000610352</ele>
        <time>2014-09-17T10:18:14.000Z</time>
      </trkpt>
      <trkpt lat="47.66017" lon="6.01503">
        <ele>222.60000610352</ele>
        <time>2014-09-17T10:18:20.000Z</time>
      </trkpt>
      <trkpt lat="47.6604" lon="6.01496">
        <ele>222.60000610352</ele>
        <time>2014-09-17T10:18:25.000Z</time>
      </trkpt>
      <trkpt lat="47.66045" lon="6.01494">
        <ele>222.60000610352</ele>
        <time>2014-09-17T10:18:26.000Z</time>
      </trkpt>
      <trkpt lat="47.6605" lon="6.01493">
        <ele>222.60000610352</ele>
        <time>2014-09-17T10:18:27.000Z</time>
      </trkpt>
      <trkpt lat="47.66069" lon="6.01488">
        <ele>222.60000610352</ele>
        <time>2014-09-17T10:18:31.000Z</time>
      </trkpt>
      <trkpt lat="47.66112" lon="6.01481">
        <ele>222.19999694824</ele>
        <time>2014-09-17T10:18:40.000Z</time>
      </trkpt>
      <trkpt lat="47.66116" lon="6.0148">
        <ele>221.80000305176</ele>
        <time>2014-09-17T10:18:41.000Z</time>
      </trkpt>
      <trkpt lat="47.66121" lon="6.01477">
        <ele>221.39999389648</ele>
        <time>2014-09-17T10:18:42.000Z</time>
      </trkpt>
      <trkpt lat="47.66125" lon="6.01476">
        <ele>221</ele>
        <time>2014-09-17T10:18:43.000Z</time>
      </trkpt>
      <trkpt lat="47.66129" lon="6.01475">
        <ele>220.60000610352</ele>
        <time>2014-09-17T10:18:44.000Z</time>
      </trkpt>
      <trkpt lat="47.66134" lon="6.01475">
        <ele>220.60000610352</ele>
        <time>2014-09-17T10:18:45.000Z</time>
      </trkpt>
      <trkpt lat="47.66154" lon="6.01474">
        <ele>220.60000610352</ele>
        <time>2014-09-17T10:18:50.000Z</time>
      </trkpt>
      <trkpt lat="47.6619" lon="6.01471">
        <ele>220.60000610352</ele>
        <time>2014-09-17T10:18:58.000Z</time>
      </trkpt>
      <trkpt lat="47.66199" lon="6.01471">
        <ele>220.60000610352</ele>
        <time>2014-09-17T10:19:00.000Z</time>
      </trkpt>
      <trkpt lat="47.66213" lon="6.01474">
        <ele>220.60000610352</ele>
        <time>2014-09-17T10:19:03.000Z</time>
      </trkpt>
      <trkpt lat="47.6625" lon="6.01483">
        <ele>220.60000610352</ele>
        <time>2014-09-17T10:19:11.000Z</time>
      </trkpt>
      <trkpt lat="47.6628" lon="6.01492">
        <ele>220.60000610352</ele>
        <time>2014-09-17T10:19:18.000Z</time>
      </trkpt>
      <trkpt lat="47.66308" lon="6.01503">
        <ele>220.60000610352</ele>
        <time>2014-09-17T10:19:25.000Z</time>
      </trkpt>
      <trkpt lat="47.66346" lon="6.01522">
        <ele>220.60000610352</ele>
        <time>2014-09-17T10:19:33.000Z</time>
      </trkpt>
      <trkpt lat="47.66384" lon="6.01544">
        <ele>220.60000610352</ele>
        <time>2014-09-17T10:19:41.000Z</time>
      </trkpt>
      <trkpt lat="47.66405" lon="6.01555">
        <ele>220.60000610352</ele>
        <time>2014-09-17T10:19:45.000Z</time>
      </trkpt>
      <trkpt lat="47.66416" lon="6.01562">
        <ele>220.60000610352</ele>
        <time>2014-09-17T10:19:47.000Z</time>
      </trkpt>
      <trkpt lat="47.66458" lon="6.01595">
        <ele>220.60000610352</ele>
        <time>2014-09-17T10:19:55.000Z</time>
      </trkpt>
      <trkpt lat="47.66498" lon="6.01625">
        <ele>220.60000610352</ele>
        <time>2014-09-17T10:20:03.000Z</time>
      </trkpt>
      <trkpt lat="47.66503" lon="6.01629">
        <ele>220.60000610352</ele>
        <time>2014-09-17T10:20:04.000Z</time>
      </trkpt>
      <trkpt lat="47.66522" lon="6.01648">
        <ele>220.60000610352</ele>
        <time>2014-09-17T10:20:08.000Z</time>
      </trkpt>
      <trkpt lat="47.6655" lon="6.01678">
        <ele>220.60000610352</ele>
        <time>2014-09-17T10:20:14.000Z</time>
      </trkpt>
      <trkpt lat="47.66559" lon="6.01687">
        <ele>220.60000610352</ele>
        <time>2014-09-17T10:20:16.000Z</time>
      </trkpt>
      <trkpt lat="47.66574" lon="6.01698">
        <ele>220.60000610352</ele>
        <time>2014-09-17T10:20:19.000Z</time>
      </trkpt>
      <trkpt lat="47.66602" lon="6.01728">
        <ele>220.60000610352</ele>
        <time>2014-09-17T10:20:25.000Z</time>
      </trkpt>
      <trkpt lat="47.66642" lon="6.01784">
        <ele>220.60000610352</ele>
        <time>2014-09-17T10:20:34.000Z</time>
      </trkpt>
      <trkpt lat="47.66646" lon="6.01791">
        <ele>220.60000610352</ele>
        <time>2014-09-17T10:20:35.000Z</time>
      </trkpt>
      <trkpt lat="47.66654" lon="6.01814">
        <ele>220.60000610352</ele>
        <time>2014-09-17T10:20:38.000Z</time>
      </trkpt>
      <trkpt lat="47.6667" lon="6.01846">
        <ele>220.60000610352</ele>
        <time>2014-09-17T10:20:41.000Z</time>
      </trkpt>
      <trkpt lat="47.66674" lon="6.01852">
        <ele>220.60000610352</ele>
        <time>2014-09-17T10:20:44.000Z</time>
      </trkpt>
      <trkpt lat="47.66699" lon="6.01897">
        <ele>220.60000610352</ele>
        <time>2014-09-17T10:20:51.000Z</time>
      </trkpt>
      <trkpt lat="47.66721" lon="6.01944">
        <ele>220.60000610352</ele>
        <time>2014-09-17T10:20:57.000Z</time>
      </trkpt>
      <trkpt lat="47.66724" lon="6.01952">
        <ele>220.60000610352</ele>
        <time>2014-09-17T10:20:58.000Z</time>
      </trkpt>
      <trkpt lat="47.66737" lon="6.02001">
        <ele>220.60000610352</ele>
        <time>2014-09-17T10:21:04.000Z</time>
      </trkpt>
      <trkpt lat="47.66755" lon="6.0207">
        <ele>220.60000610352</ele>
        <time>2014-09-17T10:21:12.000Z</time>
      </trkpt>
      <trkpt lat="47.66767" lon="6.02119">
        <ele>220.60000610352</ele>
        <time>2014-09-17T10:21:18.000Z</time>
      </trkpt>
      <trkpt lat="47.66771" lon="6.02134">
        <ele>220.60000610352</ele>
        <time>2014-09-17T10:21:20.000Z</time>
      </trkpt>
      <trkpt lat="47.66776" lon="6.02158">
        <ele>220.60000610352</ele>
        <time>2014-09-17T10:21:23.000Z</time>
      </trkpt>
      <trkpt lat="47.66789" lon="6.02206">
        <ele>220.60000610352</ele>
        <time>2014-09-17T10:21:29.000Z</time>
      </trkpt>
      <trkpt lat="47.66804" lon="6.02262">
        <ele>220.60000610352</ele>
        <time>2014-09-17T10:21:36.000Z</time>
      </trkpt>
      <trkpt lat="47.66823" lon="6.02318">
        <ele>220.60000610352</ele>
        <time>2014-09-17T10:21:43.000Z</time>
      </trkpt>
      <trkpt lat="47.66843" lon="6.02364">
        <ele>220.60000610352</ele>
        <time>2014-09-17T10:21:49.000Z</time>
      </trkpt>
      <trkpt lat="47.66868" lon="6.02414">
        <ele>220.60000610352</ele>
        <time>2014-09-17T10:21:56.000Z</time>
      </trkpt>
      <trkpt lat="47.66894" lon="6.02461">
        <ele>220.60000610352</ele>
        <time>2014-09-17T10:22:03.000Z</time>
      </trkpt>
      <trkpt lat="47.66922" lon="6.02509">
        <ele>220.60000610352</ele>
        <time>2014-09-17T10:22:10.000Z</time>
      </trkpt>
      <trkpt lat="47.66929" lon="6.02522">
        <ele>220.60000610352</ele>
        <time>2014-09-17T10:22:12.000Z</time>
      </trkpt>
      <trkpt lat="47.6694" lon="6.02543">
        <ele>220.60000610352</ele>
        <time>2014-09-17T10:22:15.000Z</time>
      </trkpt>
      <trkpt lat="47.66965" lon="6.02584">
        <ele>220.60000610352</ele>
        <time>2014-09-17T10:22:21.000Z</time>
      </trkpt>
      <trkpt lat="47.6698" lon="6.0261">
        <ele>220.60000610352</ele>
        <time>2014-09-17T10:22:25.000Z</time>
      </trkpt>
      <trkpt lat="47.66991" lon="6.0263">
        <ele>220.60000610352</ele>
        <time>2014-09-17T10:22:28.000Z</time>
      </trkpt>
      <trkpt lat="47.67025" lon="6.02681">
        <ele>220.60000610352</ele>
        <time>2014-09-17T10:22:36.000Z</time>
      </trkpt>
      <trkpt lat="47.67054" lon="6.02714">
        <ele>220.60000610352</ele>
        <time>2014-09-17T10:22:42.000Z</time>
      </trkpt>
      <trkpt lat="47.67087" lon="6.02752">
        <ele>220.60000610352</ele>
        <time>2014-09-17T10:22:49.000Z</time>
      </trkpt>
      <trkpt lat="47.67117" lon="6.02788">
        <ele>220.60000610352</ele>
        <time>2014-09-17T10:22:55.000Z</time>
      </trkpt>
      <trkpt lat="47.67146" lon="6.02831">
        <ele>220.60000610352</ele>
        <time>2014-09-17T10:23:02.000Z</time>
      </trkpt>
      <trkpt lat="47.67149" lon="6.02838">
        <ele>220.60000610352</ele>
        <time>2014-09-17T10:23:03.000Z</time>
      </trkpt>
      <trkpt lat="47.67164" lon="6.02867">
        <ele>220.60000610352</ele>
        <time>2014-09-17T10:23:07.000Z</time>
      </trkpt>
      <trkpt lat="47.67176" lon="6.02898">
        <ele>220.60000610352</ele>
        <time>2014-09-17T10:23:11.000Z</time>
      </trkpt>
      <trkpt lat="47.67178" lon="6.02906">
        <ele>220.60000610352</ele>
        <time>2014-09-17T10:23:12.000Z</time>
      </trkpt>
      <trkpt lat="47.67197" lon="6.02955">
        <ele>220.60000610352</ele>
        <time>2014-09-17T10:23:18.000Z</time>
      </trkpt>
      <trkpt lat="47.6721" lon="6.03009">
        <ele>220.60000610352</ele>
        <time>2014-09-17T10:23:24.000Z</time>
      </trkpt>
      <trkpt lat="47.67219" lon="6.03072">
        <ele>220.60000610352</ele>
        <time>2014-09-17T10:23:31.000Z</time>
      </trkpt>
      <trkpt lat="47.67225" lon="6.03135">
        <ele>220.60000610352</ele>
        <time>2014-09-17T10:23:38.000Z</time>
      </trkpt>
      <trkpt lat="47.67232" lon="6.03207">
        <ele>220.60000610352</ele>
        <time>2014-09-17T10:23:46.000Z</time>
      </trkpt>
      <trkpt lat="47.67243" lon="6.0327">
        <ele>221</ele>
        <time>2014-09-17T10:23:53.000Z</time>
      </trkpt>
      <trkpt lat="47.67245" lon="6.03279">
        <ele>221.39999389648</ele>
        <time>2014-09-17T10:23:54.000Z</time>
      </trkpt>
      <trkpt lat="47.67247" lon="6.03287">
        <ele>221.80000305176</ele>
        <time>2014-09-17T10:23:55.000Z</time>
      </trkpt>
      <trkpt lat="47.67249" lon="6.03295">
        <ele>222.19999694824</ele>
        <time>2014-09-17T10:23:56.000Z</time>
      </trkpt>
      <trkpt lat="47.67252" lon="6.03303">
        <ele>222.60000610352</ele>
        <time>2014-09-17T10:23:57.000Z</time>
      </trkpt>
      <trkpt lat="47.67259" lon="6.03328">
        <ele>222.60000610352</ele>
        <time>2014-09-17T10:24:00.000Z</time>
      </trkpt>
      <trkpt lat="47.67277" lon="6.03389">
        <ele>222.60000610352</ele>
        <time>2014-09-17T10:24:07.000Z</time>
      </trkpt>
      <trkpt lat="47.67285" lon="6.03424">
        <ele>222.60000610352</ele>
        <time>2014-09-17T10:24:11.000Z</time>
      </trkpt>
      <trkpt lat="47.67292" lon="6.03459">
        <ele>222.60000610352</ele>
        <time>2014-09-17T10:24:15.000Z</time>
      </trkpt>
      <trkpt lat="47.67308" lon="6.03528">
        <ele>222.60000610352</ele>
        <time>2014-09-17T10:24:23.000Z</time>
      </trkpt>
      <trkpt lat="47.6732" lon="6.03593">
        <ele>222.60000610352</ele>
        <time>2014-09-17T10:24:31.000Z</time>
      </trkpt>
      <trkpt lat="47.67334" lon="6.03643">
        <ele>222.60000610352</ele>
        <time>2014-09-17T10:24:37.000Z</time>
      </trkpt>
      <trkpt lat="47.6735" lon="6.03694">
        <ele>222.60000610352</ele>
        <time>2014-09-17T10:24:43.000Z</time>
      </trkpt>
      <trkpt lat="47.67359" lon="6.03719">
        <ele>222.60000610352</ele>
        <time>2014-09-17T10:24:46.000Z</time>
      </trkpt>
      <trkpt lat="47.6737" lon="6.0374">
        <ele>222.60000610352</ele>
        <time>2014-09-17T10:24:49.000Z</time>
      </trkpt>
      <trkpt lat="47.67397" lon="6.03787">
        <ele>222.60000610352</ele>
        <time>2014-09-17T10:24:56.000Z</time>
      </trkpt>
      <trkpt lat="47.67431" lon="6.03847">
        <ele>222.60000610352</ele>
        <time>2014-09-17T10:25:05.000Z</time>
      </trkpt>
      <trkpt lat="47.67451" lon="6.03882">
        <ele>222.60000610352</ele>
        <time>2014-09-17T10:25:10.000Z</time>
      </trkpt>
      <trkpt lat="47.67486" lon="6.03936">
        <ele>222.60000610352</ele>
        <time>2014-09-17T10:25:18.000Z</time>
      </trkpt>
      <trkpt lat="47.67506" lon="6.0397">
        <ele>222.60000610352</ele>
        <time>2014-09-17T10:25:23.000Z</time>
      </trkpt>
      <trkpt lat="47.6751" lon="6.03976">
        <ele>222.60000610352</ele>
        <time>2014-09-17T10:25:24.000Z</time>
      </trkpt>
      <trkpt lat="47.67519" lon="6.03987">
        <ele>222.60000610352</ele>
        <time>2014-09-17T10:25:26.000Z</time>
      </trkpt>
      <trkpt lat="47.67531" lon="6.03992">
        <ele>222.60000610352</ele>
        <time>2014-09-17T10:25:28.000Z</time>
      </trkpt>
      <trkpt lat="47.67557" lon="6.03985">
        <ele>222.60000610352</ele>
        <time>2014-09-17T10:25:32.000Z</time>
      </trkpt>
      <trkpt lat="47.67563" lon="6.03982">
        <ele>222.60000610352</ele>
        <time>2014-09-17T10:25:33.000Z</time>
      </trkpt>
      <trkpt lat="47.67569" lon="6.03977">
        <ele>222.60000610352</ele>
        <time>2014-09-17T10:25:34.000Z</time>
      </trkpt>
      <trkpt lat="47.67585" lon="6.03959">
        <ele>222.60000610352</ele>
        <time>2014-09-17T10:25:37.000Z</time>
      </trkpt>
      <trkpt lat="47.67614" lon="6.03924">
        <ele>222.60000610352</ele>
        <time>2014-09-17T10:25:43.000Z</time>
      </trkpt>
      <trkpt lat="47.6764" lon="6.03896">
        <ele>222.60000610352</ele>
        <time>2014-09-17T10:25:48.000Z</time>
      </trkpt>
      <trkpt lat="47.67669" lon="6.03862">
        <ele>222.60000610352</ele>
        <time>2014-09-17T10:25:54.000Z</time>
      </trkpt>
      <trkpt lat="47.677" lon="6.03828">
        <ele>222.60000610352</ele>
        <time>2014-09-17T10:26:00.000Z</time>
      </trkpt>
      <trkpt lat="47.6774" lon="6.03788">
        <ele>222.60000610352</ele>
        <time>2014-09-17T10:26:07.000Z</time>
      </trkpt>
      <trkpt lat="47.67778" lon="6.03751">
        <ele>222.60000610352</ele>
        <time>2014-09-17T10:26:14.000Z</time>
      </trkpt>
      <trkpt lat="47.6781" lon="6.03723">
        <ele>222.60000610352</ele>
        <time>2014-09-17T10:26:20.000Z</time>
      </trkpt>
      <trkpt lat="47.67847" lon="6.03695">
        <ele>222.60000610352</ele>
        <time>2014-09-17T10:26:27.000Z</time>
      </trkpt>
      <trkpt lat="47.67888" lon="6.03672">
        <ele>222.60000610352</ele>
        <time>2014-09-17T10:26:34.000Z</time>
      </trkpt>
      <trkpt lat="47.67929" lon="6.03646">
        <ele>222.60000610352</ele>
        <time>2014-09-17T10:26:41.000Z</time>
      </trkpt>
      <trkpt lat="47.67976" lon="6.03618">
        <ele>222.60000610352</ele>
        <time>2014-09-17T10:26:49.000Z</time>
      </trkpt>
      <trkpt lat="47.67999" lon="6.03603">
        <ele>222.60000610352</ele>
        <time>2014-09-17T10:26:53.000Z</time>
      </trkpt>
      <trkpt lat="47.68009" lon="6.03594">
        <ele>222.60000610352</ele>
        <time>2014-09-17T10:26:55.000Z</time>
      </trkpt>
      <trkpt lat="47.68028" lon="6.03577">
        <ele>222.60000610352</ele>
        <time>2014-09-17T10:26:59.000Z</time>
      </trkpt>
      <trkpt lat="47.68036" lon="6.03568">
        <ele>222.60000610352</ele>
        <time>2014-09-17T10:27:01.000Z</time>
      </trkpt>
      <trkpt lat="47.68046" lon="6.03569">
        <ele>222.19999694824</ele>
        <time>2014-09-17T10:27:03.000Z</time>
      </trkpt>
      <trkpt lat="47.68051" lon="6.03571">
        <ele>221.80000305176</ele>
        <time>2014-09-17T10:27:04.000Z</time>
      </trkpt>
      <trkpt lat="47.68056" lon="6.03573">
        <ele>221.39999389648</ele>
        <time>2014-09-17T10:27:05.000Z</time>
      </trkpt>
      <trkpt lat="47.68061" lon="6.03573">
        <ele>221</ele>
        <time>2014-09-17T10:27:06.000Z</time>
      </trkpt>
      <trkpt lat="47.68065" lon="6.03572">
        <ele>220.60000610352</ele>
        <time>2014-09-17T10:27:07.000Z</time>
      </trkpt>
      <trkpt lat="47.68069" lon="6.03572">
        <ele>220.60000610352</ele>
        <time>2014-09-17T10:27:08.000Z</time>
      </trkpt>
      <trkpt lat="47.68073" lon="6.03573">
        <ele>220.60000610352</ele>
        <time>2014-09-17T10:27:09.000Z</time>
      </trkpt>
      <trkpt lat="47.68082" lon="6.03574">
        <ele>220.60000610352</ele>
        <time>2014-09-17T10:27:11.000Z</time>
      </trkpt>
      <trkpt lat="47.68094" lon="6.03578">
        <ele>220.60000610352</ele>
        <time>2014-09-17T10:27:14.000Z</time>
      </trkpt>
      <trkpt lat="47.68107" lon="6.03582">
        <ele>220.60000610352</ele>
        <time>2014-09-17T10:27:17.000Z</time>
      </trkpt>
      <trkpt lat="47.68118" lon="6.03584">
        <ele>220.60000610352</ele>
        <time>2014-09-17T10:27:20.000Z</time>
      </trkpt>
      <trkpt lat="47.6814" lon="6.03583">
        <ele>220.60000610352</ele>
        <time>2014-09-17T10:27:26.000Z</time>
      </trkpt>
      <trkpt lat="47.68163" lon="6.03577">
        <ele>220.60000610352</ele>
        <time>2014-09-17T10:27:32.000Z</time>
      </trkpt>
      <trkpt lat="47.68197" lon="6.0357">
        <ele>220.60000610352</ele>
        <time>2014-09-17T10:27:41.000Z</time>
      </trkpt>
      <trkpt lat="47.68224" lon="6.03568">
        <ele>220.60000610352</ele>
        <time>2014-09-17T10:27:48.000Z</time>
      </trkpt>
      <trkpt lat="47.68247" lon="6.03569">
        <ele>220.60000610352</ele>
        <time>2014-09-17T10:27:54.000Z</time>
      </trkpt>
      <trkpt lat="47.68267" lon="6.03573">
        <ele>220.60000610352</ele>
        <time>2014-09-17T10:27:59.000Z</time>
      </trkpt>
      <trkpt lat="47.68295" lon="6.03576">
        <ele>220.60000610352</ele>
        <time>2014-09-17T10:28:06.000Z</time>
      </trkpt>
      <trkpt lat="47.68327" lon="6.03585">
        <ele>220.60000610352</ele>
        <time>2014-09-17T10:28:15.000Z</time>
      </trkpt>
      <trkpt lat="47.68367" lon="6.03597">
        <ele>220.60000610352</ele>
        <time>2014-09-17T10:28:25.000Z</time>
      </trkpt>
      <trkpt lat="47.68393" lon="6.03609">
        <ele>220.60000610352</ele>
        <time>2014-09-17T10:28:32.000Z</time>
      </trkpt>
      <trkpt lat="47.68422" lon="6.03624">
        <ele>220.60000610352</ele>
        <time>2014-09-17T10:28:40.000Z</time>
      </trkpt>
      <trkpt lat="47.68444" lon="6.03623">
        <ele>220.60000610352</ele>
        <time>2014-09-17T10:28:46.000Z</time>
      </trkpt>
      <trkpt lat="47.68469" lon="6.03615">
        <ele>220.60000610352</ele>
        <time>2014-09-17T10:28:53.000Z</time>
      </trkpt>
      <trkpt lat="47.68489" lon="6.03623">
        <ele>220.60000610352</ele>
        <time>2014-09-17T10:28:59.000Z</time>
      </trkpt>
      <trkpt lat="47.68514" lon="6.03633">
        <ele>220.60000610352</ele>
        <time>2014-09-17T10:29:06.000Z</time>
      </trkpt>
      <trkpt lat="47.68533" lon="6.03642">
        <ele>220.60000610352</ele>
        <time>2014-09-17T10:29:12.000Z</time>
      </trkpt>
      <trkpt lat="47.68555" lon="6.0365">
        <ele>220.60000610352</ele>
        <time>2014-09-17T10:29:19.000Z</time>
      </trkpt>
      <trkpt lat="47.68574" lon="6.03651">
        <ele>220.60000610352</ele>
        <time>2014-09-17T10:29:25.000Z</time>
      </trkpt>
      <trkpt lat="47.68588" lon="6.03645">
        <ele>220.60000610352</ele>
        <time>2014-09-17T10:29:30.000Z</time>
      </trkpt>
      <trkpt lat="47.68591" lon="6.03643">
        <ele>221</ele>
        <time>2014-09-17T10:29:31.000Z</time>
      </trkpt>
      <trkpt lat="47.68593" lon="6.03642">
        <ele>221.80000305176</ele>
        <time>2014-09-17T10:29:32.000Z</time>
      </trkpt>
      <trkpt lat="47.68595" lon="6.03641">
        <ele>222.19999694824</ele>
        <time>2014-09-17T10:29:33.000Z</time>
      </trkpt>
      <trkpt lat="47.68598" lon="6.0364">
        <ele>222.60000610352</ele>
        <time>2014-09-17T10:29:34.000Z</time>
      </trkpt>
      <trkpt lat="47.68609" lon="6.03631">
        <ele>222.60000610352</ele>
        <time>2014-09-17T10:29:39.000Z</time>
      </trkpt>
      <trkpt lat="47.68626" lon="6.03631">
        <ele>222.60000610352</ele>
        <time>2014-09-17T10:29:45.000Z</time>
      </trkpt>
      <trkpt lat="47.68641" lon="6.03635">
        <ele>222.60000610352</ele>
        <time>2014-09-17T10:29:50.000Z</time>
      </trkpt>
      <trkpt lat="47.68653" lon="6.03637">
        <ele>222.60000610352</ele>
        <time>2014-09-17T10:29:55.000Z</time>
      </trkpt>
      <trkpt lat="47.68665" lon="6.03638">
        <ele>222.60000610352</ele>
        <time>2014-09-17T10:30:01.000Z</time>
      </trkpt>
      <trkpt lat="47.68669" lon="6.03638">
        <ele>222.60000610352</ele>
        <time>2014-09-17T10:30:05.000Z</time>
      </trkpt>
      <trkpt lat="47.68675" lon="6.03634">
        <ele>222.60000610352</ele>
        <time>2014-09-17T10:31:22.000Z</time>
      </trkpt>
      <trkpt lat="47.68688" lon="6.03637">
        <ele>222.60000610352</ele>
        <time>2014-09-17T10:31:27.000Z</time>
      </trkpt>
      <trkpt lat="47.6871" lon="6.03643">
        <ele>222.60000610352</ele>
        <time>2014-09-17T10:31:33.000Z</time>
      </trkpt>
      <trkpt lat="47.68747" lon="6.03651">
        <ele>222.60000610352</ele>
        <time>2014-09-17T10:31:42.000Z</time>
      </trkpt>
      <trkpt lat="47.68752" lon="6.03651">
        <ele>222.60000610352</ele>
        <time>2014-09-17T10:31:43.000Z</time>
      </trkpt>
      <trkpt lat="47.68773" lon="6.03655">
        <ele>222.60000610352</ele>
        <time>2014-09-17T10:31:48.000Z</time>
      </trkpt>
      <trkpt lat="47.68802" lon="6.03655">
        <ele>222.60000610352</ele>
        <time>2014-09-17T10:31:55.000Z</time>
      </trkpt>
      <trkpt lat="47.68819" lon="6.03657">
        <ele>222.60000610352</ele>
        <time>2014-09-17T10:31:59.000Z</time>
      </trkpt>
      <trkpt lat="47.68827" lon="6.03658">
        <ele>222.60000610352</ele>
        <time>2014-09-17T10:32:01.000Z</time>
      </trkpt>
      <trkpt lat="47.6886" lon="6.03657">
        <ele>222.60000610352</ele>
        <time>2014-09-17T10:32:09.000Z</time>
      </trkpt>
      <trkpt lat="47.68885" lon="6.03657">
        <ele>222.60000610352</ele>
        <time>2014-09-17T10:32:15.000Z</time>
      </trkpt>
      <trkpt lat="47.68913" lon="6.03666">
        <ele>222.60000610352</ele>
        <time>2014-09-17T10:32:22.000Z</time>
      </trkpt>
      <trkpt lat="47.68948" lon="6.03685">
        <ele>222.60000610352</ele>
        <time>2014-09-17T10:32:30.000Z</time>
      </trkpt>
      <trkpt lat="47.68981" lon="6.0371">
        <ele>222.60000610352</ele>
        <time>2014-09-17T10:32:39.000Z</time>
      </trkpt>
      <trkpt lat="47.69004" lon="6.03729">
        <ele>222.60000610352</ele>
        <time>2014-09-17T10:32:46.000Z</time>
      </trkpt>
      <trkpt lat="47.69031" lon="6.03748">
        <ele>222.60000610352</ele>
        <time>2014-09-17T10:32:54.000Z</time>
      </trkpt>
      <trkpt lat="47.69058" lon="6.03771">
        <ele>222.60000610352</ele>
        <time>2014-09-17T10:33:02.000Z</time>
      </trkpt>
      <trkpt lat="47.69062" lon="6.03773">
        <ele>222.60000610352</ele>
        <time>2014-09-17T10:33:03.000Z</time>
      </trkpt>
      <trkpt lat="47.69082" lon="6.03786">
        <ele>222.60000610352</ele>
        <time>2014-09-17T10:33:08.000Z</time>
      </trkpt>
      <trkpt lat="47.69093" lon="6.03798">
        <ele>223</ele>
        <time>2014-09-17T10:33:13.000Z</time>
      </trkpt>
      <trkpt lat="47.69094" lon="6.038">
        <ele>223.39999389648</ele>
        <time>2014-09-17T10:33:14.000Z</time>
      </trkpt>
      <trkpt lat="47.69094" lon="6.03804">
        <ele>224.19999694824</ele>
        <time>2014-09-17T10:33:15.000Z</time>
      </trkpt>
      <trkpt lat="47.69094" lon="6.03807">
        <ele>224.60000610352</ele>
        <time>2014-09-17T10:33:16.000Z</time>
      </trkpt>
      <trkpt lat="47.69093" lon="6.03811">
        <ele>224.60000610352</ele>
        <time>2014-09-17T10:33:17.000Z</time>
      </trkpt>
      <trkpt lat="47.69092" lon="6.03815">
        <ele>224.60000610352</ele>
        <time>2014-09-17T10:33:18.000Z</time>
      </trkpt>
      <trkpt lat="47.69088" lon="6.03822">
        <ele>225.19999694824</ele>
        <time>2014-09-17T10:33:20.000Z</time>
      </trkpt>
      <trkpt lat="47.69086" lon="6.03826">
        <ele>225.60000610352</ele>
        <time>2014-09-17T10:33:21.000Z</time>
      </trkpt>
      <trkpt lat="47.69084" lon="6.03831">
        <ele>226</ele>
        <time>2014-09-17T10:33:22.000Z</time>
      </trkpt>
      <trkpt lat="47.69082" lon="6.03836">
        <ele>226.39999389648</ele>
        <time>2014-09-17T10:33:23.000Z</time>
      </trkpt>
      <trkpt lat="47.6908" lon="6.03842">
        <ele>226.80000305176</ele>
        <time>2014-09-17T10:33:24.000Z</time>
      </trkpt>
      <trkpt lat="47.69062" lon="6.03887">
        <ele>226.80000305176</ele>
        <time>2014-09-17T10:33:31.000Z</time>
      </trkpt>
      <trkpt lat="47.69043" lon="6.0393">
        <ele>226.80000305176</ele>
        <time>2014-09-17T10:33:38.000Z</time>
      </trkpt>
      <trkpt lat="47.69017" lon="6.03995">
        <ele>226.80000305176</ele>
        <time>2014-09-17T10:33:48.000Z</time>
      </trkpt>
      <trkpt lat="47.68998" lon="6.04042">
        <ele>226.80000305176</ele>
        <time>2014-09-17T10:33:55.000Z</time>
      </trkpt>
      <trkpt lat="47.6898" lon="6.04091">
        <ele>226.80000305176</ele>
        <time>2014-09-17T10:34:02.000Z</time>
      </trkpt>
      <trkpt lat="47.6897" lon="6.04116">
        <ele>226.80000305176</ele>
        <time>2014-09-17T10:34:06.000Z</time>
      </trkpt>
      <trkpt lat="47.68963" lon="6.04133">
        <ele>226.80000305176</ele>
        <time>2014-09-17T10:34:09.000Z</time>
      </trkpt>
      <trkpt lat="47.68947" lon="6.04169">
        <ele>226.80000305176</ele>
        <time>2014-09-17T10:34:15.000Z</time>
      </trkpt>
      <trkpt lat="47.68929" lon="6.04213">
        <ele>226.80000305176</ele>
        <time>2014-09-17T10:34:23.000Z</time>
      </trkpt>
      <trkpt lat="47.68914" lon="6.0425">
        <ele>226.80000305176</ele>
        <time>2014-09-17T10:34:30.000Z</time>
      </trkpt>
      <trkpt lat="47.68906" lon="6.04267">
        <ele>226.80000305176</ele>
        <time>2014-09-17T10:34:33.000Z</time>
      </trkpt>
      <trkpt lat="47.689" lon="6.04283">
        <ele>226.80000305176</ele>
        <time>2014-09-17T10:34:36.000Z</time>
      </trkpt>
      <trkpt lat="47.68892" lon="6.04304">
        <ele>226.80000305176</ele>
        <time>2014-09-17T10:34:41.000Z</time>
      </trkpt>
      <trkpt lat="47.68882" lon="6.04333">
        <ele>226.80000305176</ele>
        <time>2014-09-17T10:34:48.000Z</time>
      </trkpt>
      <trkpt lat="47.68872" lon="6.0436">
        <ele>226.80000305176</ele>
        <time>2014-09-17T10:34:54.000Z</time>
      </trkpt>
      <trkpt lat="47.68864" lon="6.04381">
        <ele>226.80000305176</ele>
        <time>2014-09-17T10:34:59.000Z</time>
      </trkpt>
      <trkpt lat="47.68859" lon="6.04398">
        <ele>227.19999694824</ele>
        <time>2014-09-17T10:35:03.000Z</time>
      </trkpt>
      <trkpt lat="47.68858" lon="6.04402">
        <ele>227.60000610352</ele>
        <time>2014-09-17T10:35:04.000Z</time>
      </trkpt>
      <trkpt lat="47.68857" lon="6.04406">
        <ele>228</ele>
        <time>2014-09-17T10:35:05.000Z</time>
      </trkpt>
      <trkpt lat="47.68855" lon="6.04409">
        <ele>228.39999389648</ele>
        <time>2014-09-17T10:35:06.000Z</time>
      </trkpt>
      <trkpt lat="47.68854" lon="6.04412">
        <ele>228.80000305176</ele>
        <time>2014-09-17T10:35:07.000Z</time>
      </trkpt>
      <trkpt lat="47.68849" lon="6.04431">
        <ele>228.80000305176</ele>
        <time>2014-09-17T10:35:13.000Z</time>
      </trkpt>
      <trkpt lat="47.68845" lon="6.04448">
        <ele>228.80000305176</ele>
        <time>2014-09-17T10:35:18.000Z</time>
      </trkpt>
      <trkpt lat="47.68844" lon="6.04451">
        <ele>229.19999694824</ele>
        <time>2014-09-17T10:35:19.000Z</time>
      </trkpt>
      <trkpt lat="47.68844" lon="6.04455">
        <ele>229.60000610352</ele>
        <time>2014-09-17T10:35:20.000Z</time>
      </trkpt>
      <trkpt lat="47.68843" lon="6.04458">
        <ele>230</ele>
        <time>2014-09-17T10:35:21.000Z</time>
      </trkpt>
      <trkpt lat="47.68843" lon="6.04461">
        <ele>230.39999389648</ele>
        <time>2014-09-17T10:35:22.000Z</time>
      </trkpt>
      <trkpt lat="47.68843" lon="6.04465">
        <ele>230.80000305176</ele>
        <time>2014-09-17T10:35:23.000Z</time>
      </trkpt>
      <trkpt lat="47.68841" lon="6.04472">
        <ele>230.80000305176</ele>
        <time>2014-09-17T10:35:25.000Z</time>
      </trkpt>
      <trkpt lat="47.68836" lon="6.04494">
        <ele>230.80000305176</ele>
        <time>2014-09-17T10:35:31.000Z</time>
      </trkpt>
      <trkpt lat="47.68832" lon="6.0452">
        <ele>230.80000305176</ele>
        <time>2014-09-17T10:35:38.000Z</time>
      </trkpt>
      <trkpt lat="47.68831" lon="6.04529">
        <ele>231.19999694824</ele>
        <time>2014-09-17T10:35:40.000Z</time>
      </trkpt>
      <trkpt lat="47.6883" lon="6.04533">
        <ele>231.60000610352</ele>
        <time>2014-09-17T10:35:41.000Z</time>
      </trkpt>
      <trkpt lat="47.68829" lon="6.04538">
        <ele>232</ele>
        <time>2014-09-17T10:35:42.000Z</time>
      </trkpt>
      <trkpt lat="47.68829" lon="6.04542">
        <ele>232.80000305176</ele>
        <time>2014-09-17T10:35:43.000Z</time>
      </trkpt>
      <trkpt lat="47.68829" lon="6.04559">
        <ele>232.80000305176</ele>
        <time>2014-09-17T10:35:47.000Z</time>
      </trkpt>
      <trkpt lat="47.68826" lon="6.04589">
        <ele>232.80000305176</ele>
        <time>2014-09-17T10:35:54.000Z</time>
      </trkpt>
      <trkpt lat="47.68825" lon="6.04622">
        <ele>232.80000305176</ele>
        <time>2014-09-17T10:36:02.000Z</time>
      </trkpt>
      <trkpt lat="47.68824" lon="6.04645">
        <ele>232.80000305176</ele>
        <time>2014-09-17T10:36:08.000Z</time>
      </trkpt>
      <trkpt lat="47.68823" lon="6.0467">
        <ele>233.19999694824</ele>
        <time>2014-09-17T10:36:15.000Z</time>
      </trkpt>
      <trkpt lat="47.68822" lon="6.04674">
        <ele>233.60000610352</ele>
        <time>2014-09-17T10:36:16.000Z</time>
      </trkpt>
      <trkpt lat="47.68822" lon="6.04677">
        <ele>234</ele>
        <time>2014-09-17T10:36:17.000Z</time>
      </trkpt>
      <trkpt lat="47.68822" lon="6.04681">
        <ele>234.39999389648</ele>
        <time>2014-09-17T10:36:18.000Z</time>
      </trkpt>
      <trkpt lat="47.68823" lon="6.04684">
        <ele>234.80000305176</ele>
        <time>2014-09-17T10:36:19.000Z</time>
      </trkpt>
      <trkpt lat="47.68823" lon="6.04707">
        <ele>234.80000305176</ele>
        <time>2014-09-17T10:36:25.000Z</time>
      </trkpt>
      <trkpt lat="47.68822" lon="6.04732">
        <ele>234.80000305176</ele>
        <time>2014-09-17T10:36:32.000Z</time>
      </trkpt>
      <trkpt lat="47.6882" lon="6.04757">
        <ele>234.80000305176</ele>
        <time>2014-09-17T10:36:39.000Z</time>
      </trkpt>
      <trkpt lat="47.68819" lon="6.04776">
        <ele>234.80000305176</ele>
        <time>2014-09-17T10:36:45.000Z</time>
      </trkpt>
      <trkpt lat="47.68818" lon="6.04785">
        <ele>235.19999694824</ele>
        <time>2014-09-17T10:36:48.000Z</time>
      </trkpt>
      <trkpt lat="47.68817" lon="6.04789">
        <ele>235.60000610352</ele>
        <time>2014-09-17T10:36:49.000Z</time>
      </trkpt>
      <trkpt lat="47.68817" lon="6.04792">
        <ele>236</ele>
        <time>2014-09-17T10:36:50.000Z</time>
      </trkpt>
      <trkpt lat="47.68816" lon="6.04795">
        <ele>236.39999389648</ele>
        <time>2014-09-17T10:36:51.000Z</time>
      </trkpt>
      <trkpt lat="47.68816" lon="6.04799">
        <ele>236.80000305176</ele>
        <time>2014-09-17T10:36:52.000Z</time>
      </trkpt>
      <trkpt lat="47.68815" lon="6.04813">
        <ele>236.80000305176</ele>
        <time>2014-09-17T10:36:57.000Z</time>
      </trkpt>
      <trkpt lat="47.68813" lon="6.04835">
        <ele>236.80000305176</ele>
        <time>2014-09-17T10:37:03.000Z</time>
      </trkpt>
      <trkpt lat="47.6881" lon="6.04855">
        <ele>237.19999694824</ele>
        <time>2014-09-17T10:37:09.000Z</time>
      </trkpt>
      <trkpt lat="47.68809" lon="6.04858">
        <ele>237.60000610352</ele>
        <time>2014-09-17T10:37:10.000Z</time>
      </trkpt>
      <trkpt lat="47.68809" lon="6.04861">
        <ele>238</ele>
        <time>2014-09-17T10:37:11.000Z</time>
      </trkpt>
      <trkpt lat="47.68807" lon="6.04863">
        <ele>238.39999389648</ele>
        <time>2014-09-17T10:37:12.000Z</time>
      </trkpt>
      <trkpt lat="47.68806" lon="6.04866">
        <ele>238.80000305176</ele>
        <time>2014-09-17T10:37:13.000Z</time>
      </trkpt>
      <trkpt lat="47.68801" lon="6.04871">
        <ele>238.80000305176</ele>
        <time>2014-09-17T10:37:16.000Z</time>
      </trkpt>
      <trkpt lat="47.68791" lon="6.04874">
        <ele>239.19999694824</ele>
        <time>2014-09-17T10:37:21.000Z</time>
      </trkpt>
      <trkpt lat="47.68789" lon="6.04875">
        <ele>240</ele>
        <time>2014-09-17T10:37:22.000Z</time>
      </trkpt>
      <trkpt lat="47.68787" lon="6.04875">
        <ele>240.39999389648</ele>
        <time>2014-09-17T10:37:23.000Z</time>
      </trkpt>
      <trkpt lat="47.68785" lon="6.04874">
        <ele>240.80000305176</ele>
        <time>2014-09-17T10:37:24.000Z</time>
      </trkpt>
      <trkpt lat="47.68781" lon="6.04869">
        <ele>240.80000305176</ele>
        <time>2014-09-17T10:37:26.000Z</time>
      </trkpt>
      <trkpt lat="47.6878" lon="6.04866">
        <ele>240.80000305176</ele>
        <time>2014-09-17T10:37:27.000Z</time>
      </trkpt>
      <trkpt lat="47.68774" lon="6.04843">
        <ele>240.80000305176</ele>
        <time>2014-09-17T10:37:32.000Z</time>
      </trkpt>
      <trkpt lat="47.68767" lon="6.0482">
        <ele>241.19999694824</ele>
        <time>2014-09-17T10:37:37.000Z</time>
      </trkpt>
      <trkpt lat="47.68766" lon="6.04816">
        <ele>241.60000610352</ele>
        <time>2014-09-17T10:37:38.000Z</time>
      </trkpt>
      <trkpt lat="47.68764" lon="6.04812">
        <ele>242</ele>
        <time>2014-09-17T10:37:39.000Z</time>
      </trkpt>
      <trkpt lat="47.68763" lon="6.04807">
        <ele>242.60000610352</ele>
        <time>2014-09-17T10:37:40.000Z</time>
      </trkpt>
      <trkpt lat="47.68762" lon="6.04802">
        <ele>243</ele>
        <time>2014-09-17T10:37:41.000Z</time>
      </trkpt>
      <trkpt lat="47.68752" lon="6.04769">
        <ele>243</ele>
        <time>2014-09-17T10:37:48.000Z</time>
      </trkpt>
      <trkpt lat="47.68748" lon="6.04752">
        <ele>243.39999389648</ele>
        <time>2014-09-17T10:37:52.000Z</time>
      </trkpt>
      <trkpt lat="47.68747" lon="6.04747">
        <ele>243.80000305176</ele>
        <time>2014-09-17T10:37:53.000Z</time>
      </trkpt>
      <trkpt lat="47.68745" lon="6.04741">
        <ele>244.19999694824</ele>
        <time>2014-09-17T10:37:54.000Z</time>
      </trkpt>
      <trkpt lat="47.68743" lon="6.04736">
        <ele>244.60000610352</ele>
        <time>2014-09-17T10:37:55.000Z</time>
      </trkpt>
      <trkpt lat="47.68742" lon="6.04732">
        <ele>245</ele>
        <time>2014-09-17T10:37:56.000Z</time>
      </trkpt>
      <trkpt lat="47.68735" lon="6.04711">
        <ele>245</ele>
        <time>2014-09-17T10:38:01.000Z</time>
      </trkpt>
      <trkpt lat="47.68722" lon="6.04682">
        <ele>245</ele>
        <time>2014-09-17T10:38:08.000Z</time>
      </trkpt>
      <trkpt lat="47.68711" lon="6.04658">
        <ele>245</ele>
        <time>2014-09-17T10:38:14.000Z</time>
      </trkpt>
      <trkpt lat="47.68698" lon="6.0463">
        <ele>245</ele>
        <time>2014-09-17T10:38:21.000Z</time>
      </trkpt>
      <trkpt lat="47.68689" lon="6.04605">
        <ele>245</ele>
        <time>2014-09-17T10:38:26.000Z</time>
      </trkpt>
      <trkpt lat="47.68685" lon="6.04593">
        <ele>245</ele>
        <time>2014-09-17T10:38:28.000Z</time>
      </trkpt>
      <trkpt lat="47.68681" lon="6.04581">
        <ele>245</ele>
        <time>2014-09-17T10:38:30.000Z</time>
      </trkpt>
      <trkpt lat="47.6867" lon="6.04566">
        <ele>245</ele>
        <time>2014-09-17T10:38:33.000Z</time>
      </trkpt>
      <trkpt lat="47.68653" lon="6.04544">
        <ele>245</ele>
        <time>2014-09-17T10:38:37.000Z</time>
      </trkpt>
      <trkpt lat="47.68644" lon="6.04536">
        <ele>245</ele>
        <time>2014-09-17T10:38:39.000Z</time>
      </trkpt>
      <trkpt lat="47.68635" lon="6.04531">
        <ele>244.39999389648</ele>
        <time>2014-09-17T10:38:41.000Z</time>
      </trkpt>
      <trkpt lat="47.68631" lon="6.04533">
        <ele>244</ele>
        <time>2014-09-17T10:38:42.000Z</time>
      </trkpt>
      <trkpt lat="47.68627" lon="6.04538">
        <ele>243.60000610352</ele>
        <time>2014-09-17T10:38:43.000Z</time>
      </trkpt>
      <trkpt lat="47.68625" lon="6.04543">
        <ele>243</ele>
        <time>2014-09-17T10:38:44.000Z</time>
      </trkpt>
      <trkpt lat="47.68624" lon="6.04547">
        <ele>242.60000610352</ele>
        <time>2014-09-17T10:38:45.000Z</time>
      </trkpt>
      <trkpt lat="47.68626" lon="6.0455">
        <ele>242.60000610352</ele>
        <time>2014-09-17T10:38:48.000Z</time>
      </trkpt>
      <trkpt lat="47.68626" lon="6.04552">
        <ele>242.60000610352</ele>
        <time>2014-09-17T10:38:50.000Z</time>
      </trkpt>
    </trkseg>
  </trk>
</gpx>